<?xml version="1.0" encoding="UTF-8"?>
<gpx version="1.1" creator="https://www.youtrack.es" xsi:schemaLocation="http://www.topografix.com/GPX/1/1 http://www.topografix.com/GPX/1/1/gpx.xsd http://www.garmin.com/xmlschemas/GpxExtensions/v3 http://www.garmin.com/xmlschemas/GpxExtensionsv3.xsd http://www.garmin.com/xmlschemas/TrackPointExtension/v1 http://www.garmin.com/xmlschemas/TrackPointExtensionv1.xsd" xmlns:gpxtpx="http://www.garmin.com/xmlschemas/TrackPointExtension/v1" xmlns:gpxx="http://www.garmin.com/xmlschemas/GpxExtensions/v3" xmlns:xsi="http://www.w3.org/2001/XMLSchema-instance">
  <metadata>
    <link href="https://www.youtrack.es">
      <text>YouTrack.es</text>
    </link>
    <time>2026-05-08T08:48:44Z</time>
  </metadata>
  <trk>
    <src>https://www.youtrack.es</src>
    <link href="https://www.youtrack.es/ruta/17370-vuelta-valde">
      <text>YouTrack.es</text>
    </link>
    <trkseg>
      <trkpt lat="40.470660000" lon="-4.072130000">
        <ele>766.0</ele>
        <time>2020-11-13T10:13:18Z</time>
      </trkpt>
      <trkpt lat="40.470603000" lon="-4.072101000">
        <ele>765.6</ele>
        <time>2020-11-13T10:13:36Z</time>
      </trkpt>
      <trkpt lat="40.470613000" lon="-4.071971000">
        <ele>765.1</ele>
        <time>2020-11-13T10:13:43Z</time>
      </trkpt>
      <trkpt lat="40.470450000" lon="-4.071834000">
        <ele>764.7</ele>
        <time>2020-11-13T10:14:07Z</time>
      </trkpt>
      <trkpt lat="40.470330000" lon="-4.071880000">
        <ele>764.2</ele>
        <time>2020-11-13T10:14:10Z</time>
      </trkpt>
      <trkpt lat="40.470224000" lon="-4.071922000">
        <ele>763.8</ele>
        <time>2020-11-13T10:14:12Z</time>
      </trkpt>
      <trkpt lat="40.470094000" lon="-4.071965000">
        <ele>763.1</ele>
        <time>2020-11-13T10:14:14Z</time>
      </trkpt>
      <trkpt lat="40.469960000" lon="-4.072015000">
        <ele>762.3</ele>
        <time>2020-11-13T10:14:16Z</time>
      </trkpt>
      <trkpt lat="40.469838000" lon="-4.072060000">
        <ele>761.5</ele>
        <time>2020-11-13T10:14:18Z</time>
      </trkpt>
      <trkpt lat="40.469722000" lon="-4.072080000">
        <ele>760.6</ele>
        <time>2020-11-13T10:14:21Z</time>
      </trkpt>
      <trkpt lat="40.469643000" lon="-4.071973000">
        <ele>759.9</ele>
        <time>2020-11-13T10:14:24Z</time>
      </trkpt>
      <trkpt lat="40.469571000" lon="-4.071847000">
        <ele>759.2</ele>
        <time>2020-11-13T10:14:27Z</time>
      </trkpt>
      <trkpt lat="40.469499000" lon="-4.071673000">
        <ele>758.5</ele>
        <time>2020-11-13T10:14:30Z</time>
      </trkpt>
      <trkpt lat="40.469434000" lon="-4.071531000">
        <ele>757.7</ele>
        <time>2020-11-13T10:14:32Z</time>
      </trkpt>
      <trkpt lat="40.469376000" lon="-4.071382000">
        <ele>757.0</ele>
        <time>2020-11-13T10:14:34Z</time>
      </trkpt>
      <trkpt lat="40.469304000" lon="-4.071225000">
        <ele>756.2</ele>
        <time>2020-11-13T10:14:36Z</time>
      </trkpt>
      <trkpt lat="40.469241000" lon="-4.071074000">
        <ele>755.3</ele>
        <time>2020-11-13T10:14:38Z</time>
      </trkpt>
      <trkpt lat="40.469162000" lon="-4.070902000">
        <ele>754.5</ele>
        <time>2020-11-13T10:14:40Z</time>
      </trkpt>
      <trkpt lat="40.469100000" lon="-4.070743000">
        <ele>753.7</ele>
        <time>2020-11-13T10:14:42Z</time>
      </trkpt>
      <trkpt lat="40.469039000" lon="-4.070580000">
        <ele>753.0</ele>
        <time>2020-11-13T10:14:44Z</time>
      </trkpt>
      <trkpt lat="40.468964000" lon="-4.070413000">
        <ele>752.4</ele>
        <time>2020-11-13T10:14:46Z</time>
      </trkpt>
      <trkpt lat="40.468885000" lon="-4.070234000">
        <ele>751.7</ele>
        <time>2020-11-13T10:14:48Z</time>
      </trkpt>
      <trkpt lat="40.468839000" lon="-4.070084000">
        <ele>751.2</ele>
        <time>2020-11-13T10:14:50Z</time>
      </trkpt>
      <trkpt lat="40.468775000" lon="-4.069933000">
        <ele>750.8</ele>
        <time>2020-11-13T10:14:52Z</time>
      </trkpt>
      <trkpt lat="40.468729000" lon="-4.069789000">
        <ele>750.5</ele>
        <time>2020-11-13T10:14:54Z</time>
      </trkpt>
      <trkpt lat="40.468697000" lon="-4.069632000">
        <ele>750.5</ele>
        <time>2020-11-13T10:14:56Z</time>
      </trkpt>
      <trkpt lat="40.468658000" lon="-4.069512000">
        <ele>750.6</ele>
        <time>2020-11-13T10:14:58Z</time>
      </trkpt>
      <trkpt lat="40.468615000" lon="-4.069384000">
        <ele>751.0</ele>
        <time>2020-11-13T10:15:02Z</time>
      </trkpt>
      <trkpt lat="40.468553000" lon="-4.069283000">
        <ele>751.5</ele>
        <time>2020-11-13T10:15:06Z</time>
      </trkpt>
      <trkpt lat="40.468483000" lon="-4.069189000">
        <ele>752.3</ele>
        <time>2020-11-13T10:15:12Z</time>
      </trkpt>
      <trkpt lat="40.468429000" lon="-4.069088000">
        <ele>753.1</ele>
        <time>2020-11-13T10:15:16Z</time>
      </trkpt>
      <trkpt lat="40.468396000" lon="-4.068974000">
        <ele>753.9</ele>
        <time>2020-11-13T10:15:20Z</time>
      </trkpt>
      <trkpt lat="40.468358000" lon="-4.068866000">
        <ele>754.8</ele>
        <time>2020-11-13T10:15:24Z</time>
      </trkpt>
      <trkpt lat="40.468315000" lon="-4.068752000">
        <ele>755.7</ele>
        <time>2020-11-13T10:15:29Z</time>
      </trkpt>
      <trkpt lat="40.468280000" lon="-4.068618000">
        <ele>756.6</ele>
        <time>2020-11-13T10:15:34Z</time>
      </trkpt>
      <trkpt lat="40.468223000" lon="-4.068496000">
        <ele>757.5</ele>
        <time>2020-11-13T10:15:40Z</time>
      </trkpt>
      <trkpt lat="40.468157000" lon="-4.068386000">
        <ele>758.2</ele>
        <time>2020-11-13T10:15:45Z</time>
      </trkpt>
      <trkpt lat="40.468106000" lon="-4.068275000">
        <ele>758.7</ele>
        <time>2020-11-13T10:15:50Z</time>
      </trkpt>
      <trkpt lat="40.468069000" lon="-4.068145000">
        <ele>759.1</ele>
        <time>2020-11-13T10:15:55Z</time>
      </trkpt>
      <trkpt lat="40.468017000" lon="-4.068031000">
        <ele>759.2</ele>
        <time>2020-11-13T10:16:00Z</time>
      </trkpt>
      <trkpt lat="40.467965000" lon="-4.067911000">
        <ele>759.0</ele>
        <time>2020-11-13T10:16:05Z</time>
      </trkpt>
      <trkpt lat="40.467929000" lon="-4.067791000">
        <ele>758.6</ele>
        <time>2020-11-13T10:16:10Z</time>
      </trkpt>
      <trkpt lat="40.467837000" lon="-4.067736000">
        <ele>758.3</ele>
        <time>2020-11-13T10:16:15Z</time>
      </trkpt>
      <trkpt lat="40.467744000" lon="-4.067792000">
        <ele>757.8</ele>
        <time>2020-11-13T10:16:18Z</time>
      </trkpt>
      <trkpt lat="40.467669000" lon="-4.067930000">
        <ele>757.4</ele>
        <time>2020-11-13T10:16:21Z</time>
      </trkpt>
      <trkpt lat="40.467588000" lon="-4.067998000">
        <ele>756.8</ele>
        <time>2020-11-13T10:16:24Z</time>
      </trkpt>
      <trkpt lat="40.467515000" lon="-4.067909000">
        <ele>756.4</ele>
        <time>2020-11-13T10:16:27Z</time>
      </trkpt>
      <trkpt lat="40.467497000" lon="-4.067775000">
        <ele>755.7</ele>
        <time>2020-11-13T10:16:30Z</time>
      </trkpt>
      <trkpt lat="40.467485000" lon="-4.067649000">
        <ele>755.1</ele>
        <time>2020-11-13T10:16:33Z</time>
      </trkpt>
      <trkpt lat="40.467474000" lon="-4.067522000">
        <ele>754.5</ele>
        <time>2020-11-13T10:16:36Z</time>
      </trkpt>
      <trkpt lat="40.467470000" lon="-4.067383000">
        <ele>754.1</ele>
        <time>2020-11-13T10:16:39Z</time>
      </trkpt>
      <trkpt lat="40.467484000" lon="-4.067223000">
        <ele>753.7</ele>
        <time>2020-11-13T10:16:41Z</time>
      </trkpt>
      <trkpt lat="40.467468000" lon="-4.067034000">
        <ele>753.4</ele>
        <time>2020-11-13T10:16:43Z</time>
      </trkpt>
      <trkpt lat="40.467438000" lon="-4.066832000">
        <ele>753.0</ele>
        <time>2020-11-13T10:16:45Z</time>
      </trkpt>
      <trkpt lat="40.467444000" lon="-4.066679000">
        <ele>752.5</ele>
        <time>2020-11-13T10:16:47Z</time>
      </trkpt>
      <trkpt lat="40.467465000" lon="-4.066523000">
        <ele>752.0</ele>
        <time>2020-11-13T10:16:49Z</time>
      </trkpt>
      <trkpt lat="40.467492000" lon="-4.066351000">
        <ele>751.5</ele>
        <time>2020-11-13T10:16:51Z</time>
      </trkpt>
      <trkpt lat="40.467494000" lon="-4.066164000">
        <ele>750.9</ele>
        <time>2020-11-13T10:16:53Z</time>
      </trkpt>
      <trkpt lat="40.467526000" lon="-4.065990000">
        <ele>750.5</ele>
        <time>2020-11-13T10:16:55Z</time>
      </trkpt>
      <trkpt lat="40.467536000" lon="-4.065807000">
        <ele>750.3</ele>
        <time>2020-11-13T10:16:57Z</time>
      </trkpt>
      <trkpt lat="40.467564000" lon="-4.065632000">
        <ele>750.0</ele>
        <time>2020-11-13T10:16:59Z</time>
      </trkpt>
      <trkpt lat="40.467576000" lon="-4.065460000">
        <ele>749.7</ele>
        <time>2020-11-13T10:17:01Z</time>
      </trkpt>
      <trkpt lat="40.467594000" lon="-4.065333000">
        <ele>749.6</ele>
        <time>2020-11-13T10:17:03Z</time>
      </trkpt>
      <trkpt lat="40.467608000" lon="-4.065171000">
        <ele>749.7</ele>
        <time>2020-11-13T10:17:06Z</time>
      </trkpt>
      <trkpt lat="40.467626000" lon="-4.065042000">
        <ele>749.8</ele>
        <time>2020-11-13T10:17:08Z</time>
      </trkpt>
      <trkpt lat="40.467655000" lon="-4.064892000">
        <ele>750.1</ele>
        <time>2020-11-13T10:17:10Z</time>
      </trkpt>
      <trkpt lat="40.467683000" lon="-4.064727000">
        <ele>750.5</ele>
        <time>2020-11-13T10:17:12Z</time>
      </trkpt>
      <trkpt lat="40.467727000" lon="-4.064587000">
        <ele>751.0</ele>
        <time>2020-11-13T10:17:14Z</time>
      </trkpt>
      <trkpt lat="40.467745000" lon="-4.064448000">
        <ele>751.5</ele>
        <time>2020-11-13T10:17:16Z</time>
      </trkpt>
      <trkpt lat="40.467748000" lon="-4.064299000">
        <ele>752.1</ele>
        <time>2020-11-13T10:17:20Z</time>
      </trkpt>
      <trkpt lat="40.467766000" lon="-4.064176000">
        <ele>752.6</ele>
        <time>2020-11-13T10:17:25Z</time>
      </trkpt>
      <trkpt lat="40.467805000" lon="-4.064064000">
        <ele>753.3</ele>
        <time>2020-11-13T10:17:30Z</time>
      </trkpt>
      <trkpt lat="40.467831000" lon="-4.063933000">
        <ele>753.9</ele>
        <time>2020-11-13T10:17:35Z</time>
      </trkpt>
      <trkpt lat="40.467855000" lon="-4.063805000">
        <ele>754.4</ele>
        <time>2020-11-13T10:17:40Z</time>
      </trkpt>
      <trkpt lat="40.467885000" lon="-4.063670000">
        <ele>754.7</ele>
        <time>2020-11-13T10:17:44Z</time>
      </trkpt>
      <trkpt lat="40.467918000" lon="-4.063529000">
        <ele>755.0</ele>
        <time>2020-11-13T10:17:48Z</time>
      </trkpt>
      <trkpt lat="40.467956000" lon="-4.063401000">
        <ele>755.2</ele>
        <time>2020-11-13T10:17:52Z</time>
      </trkpt>
      <trkpt lat="40.468002000" lon="-4.063264000">
        <ele>755.2</ele>
        <time>2020-11-13T10:17:56Z</time>
      </trkpt>
      <trkpt lat="40.468052000" lon="-4.063127000">
        <ele>755.0</ele>
        <time>2020-11-13T10:17:59Z</time>
      </trkpt>
      <trkpt lat="40.468109000" lon="-4.062977000">
        <ele>754.6</ele>
        <time>2020-11-13T10:18:02Z</time>
      </trkpt>
      <trkpt lat="40.468160000" lon="-4.062851000">
        <ele>754.3</ele>
        <time>2020-11-13T10:18:04Z</time>
      </trkpt>
      <trkpt lat="40.468211000" lon="-4.062746000">
        <ele>753.9</ele>
        <time>2020-11-13T10:18:06Z</time>
      </trkpt>
      <trkpt lat="40.468270000" lon="-4.062625000">
        <ele>753.4</ele>
        <time>2020-11-13T10:18:08Z</time>
      </trkpt>
      <trkpt lat="40.468344000" lon="-4.062474000">
        <ele>752.9</ele>
        <time>2020-11-13T10:18:10Z</time>
      </trkpt>
      <trkpt lat="40.468455000" lon="-4.062292000">
        <ele>752.5</ele>
        <time>2020-11-13T10:18:12Z</time>
      </trkpt>
      <trkpt lat="40.468559000" lon="-4.062125000">
        <ele>752.2</ele>
        <time>2020-11-13T10:18:14Z</time>
      </trkpt>
      <trkpt lat="40.468647000" lon="-4.061951000">
        <ele>751.9</ele>
        <time>2020-11-13T10:18:16Z</time>
      </trkpt>
      <trkpt lat="40.468735000" lon="-4.061786000">
        <ele>751.6</ele>
        <time>2020-11-13T10:18:18Z</time>
      </trkpt>
      <trkpt lat="40.468824000" lon="-4.061653000">
        <ele>751.4</ele>
        <time>2020-11-13T10:18:20Z</time>
      </trkpt>
      <trkpt lat="40.468934000" lon="-4.061513000">
        <ele>751.3</ele>
        <time>2020-11-13T10:18:22Z</time>
      </trkpt>
      <trkpt lat="40.469011000" lon="-4.061419000">
        <ele>751.3</ele>
        <time>2020-11-13T10:18:24Z</time>
      </trkpt>
      <trkpt lat="40.469047000" lon="-4.061289000">
        <ele>751.2</ele>
        <time>2020-11-13T10:18:26Z</time>
      </trkpt>
      <trkpt lat="40.469093000" lon="-4.061163000">
        <ele>751.0</ele>
        <time>2020-11-13T10:18:29Z</time>
      </trkpt>
      <trkpt lat="40.469165000" lon="-4.061016000">
        <ele>750.8</ele>
        <time>2020-11-13T10:18:32Z</time>
      </trkpt>
      <trkpt lat="40.469214000" lon="-4.060888000">
        <ele>750.5</ele>
        <time>2020-11-13T10:18:34Z</time>
      </trkpt>
      <trkpt lat="40.469241000" lon="-4.060754000">
        <ele>749.9</ele>
        <time>2020-11-13T10:18:36Z</time>
      </trkpt>
      <trkpt lat="40.469276000" lon="-4.060612000">
        <ele>749.3</ele>
        <time>2020-11-13T10:18:38Z</time>
      </trkpt>
      <trkpt lat="40.469298000" lon="-4.060470000">
        <ele>748.7</ele>
        <time>2020-11-13T10:18:40Z</time>
      </trkpt>
      <trkpt lat="40.469307000" lon="-4.060297000">
        <ele>748.2</ele>
        <time>2020-11-13T10:18:42Z</time>
      </trkpt>
      <trkpt lat="40.469321000" lon="-4.060169000">
        <ele>747.7</ele>
        <time>2020-11-13T10:18:43Z</time>
      </trkpt>
      <trkpt lat="40.469375000" lon="-4.059953000">
        <ele>747.3</ele>
        <time>2020-11-13T10:18:45Z</time>
      </trkpt>
      <trkpt lat="40.469455000" lon="-4.059751000">
        <ele>746.8</ele>
        <time>2020-11-13T10:18:47Z</time>
      </trkpt>
      <trkpt lat="40.469499000" lon="-4.059626000">
        <ele>746.5</ele>
        <time>2020-11-13T10:18:48Z</time>
      </trkpt>
      <trkpt lat="40.469521000" lon="-4.059503000">
        <ele>746.2</ele>
        <time>2020-11-13T10:18:49Z</time>
      </trkpt>
      <trkpt lat="40.469539000" lon="-4.059332000">
        <ele>745.9</ele>
        <time>2020-11-13T10:18:51Z</time>
      </trkpt>
      <trkpt lat="40.469578000" lon="-4.059176000">
        <ele>745.5</ele>
        <time>2020-11-13T10:18:53Z</time>
      </trkpt>
      <trkpt lat="40.469567000" lon="-4.059016000">
        <ele>745.1</ele>
        <time>2020-11-13T10:18:56Z</time>
      </trkpt>
      <trkpt lat="40.469596000" lon="-4.058886000">
        <ele>744.6</ele>
        <time>2020-11-13T10:18:58Z</time>
      </trkpt>
      <trkpt lat="40.469639000" lon="-4.058722000">
        <ele>744.0</ele>
        <time>2020-11-13T10:19:00Z</time>
      </trkpt>
      <trkpt lat="40.469672000" lon="-4.058568000">
        <ele>743.4</ele>
        <time>2020-11-13T10:19:02Z</time>
      </trkpt>
      <trkpt lat="40.469716000" lon="-4.058362000">
        <ele>742.7</ele>
        <time>2020-11-13T10:19:04Z</time>
      </trkpt>
      <trkpt lat="40.469767000" lon="-4.058136000">
        <ele>742.1</ele>
        <time>2020-11-13T10:19:06Z</time>
      </trkpt>
      <trkpt lat="40.469775000" lon="-4.058017000">
        <ele>741.5</ele>
        <time>2020-11-13T10:19:07Z</time>
      </trkpt>
      <trkpt lat="40.469783000" lon="-4.057887000">
        <ele>740.7</ele>
        <time>2020-11-13T10:19:08Z</time>
      </trkpt>
      <trkpt lat="40.469852000" lon="-4.057725000">
        <ele>740.1</ele>
        <time>2020-11-13T10:19:10Z</time>
      </trkpt>
      <trkpt lat="40.469905000" lon="-4.057571000">
        <ele>739.5</ele>
        <time>2020-11-13T10:19:12Z</time>
      </trkpt>
      <trkpt lat="40.469973000" lon="-4.057435000">
        <ele>739.2</ele>
        <time>2020-11-13T10:19:15Z</time>
      </trkpt>
      <trkpt lat="40.470044000" lon="-4.057327000">
        <ele>739.0</ele>
        <time>2020-11-13T10:19:17Z</time>
      </trkpt>
      <trkpt lat="40.470132000" lon="-4.057176000">
        <ele>739.2</ele>
        <time>2020-11-13T10:19:19Z</time>
      </trkpt>
      <trkpt lat="40.470237000" lon="-4.057033000">
        <ele>739.5</ele>
        <time>2020-11-13T10:19:22Z</time>
      </trkpt>
      <trkpt lat="40.470313000" lon="-4.056944000">
        <ele>739.8</ele>
        <time>2020-11-13T10:19:24Z</time>
      </trkpt>
      <trkpt lat="40.470374000" lon="-4.056811000">
        <ele>740.3</ele>
        <time>2020-11-13T10:19:26Z</time>
      </trkpt>
      <trkpt lat="40.470449000" lon="-4.056706000">
        <ele>740.5</ele>
        <time>2020-11-13T10:19:28Z</time>
      </trkpt>
      <trkpt lat="40.470556000" lon="-4.056631000">
        <ele>740.8</ele>
        <time>2020-11-13T10:19:30Z</time>
      </trkpt>
      <trkpt lat="40.470628000" lon="-4.056518000">
        <ele>741.2</ele>
        <time>2020-11-13T10:19:32Z</time>
      </trkpt>
      <trkpt lat="40.470700000" lon="-4.056389000">
        <ele>741.5</ele>
        <time>2020-11-13T10:19:35Z</time>
      </trkpt>
      <trkpt lat="40.470726000" lon="-4.056268000">
        <ele>741.7</ele>
        <time>2020-11-13T10:19:39Z</time>
      </trkpt>
      <trkpt lat="40.470640000" lon="-4.056186000">
        <ele>742.1</ele>
        <time>2020-11-13T10:19:42Z</time>
      </trkpt>
      <trkpt lat="40.470579000" lon="-4.056086000">
        <ele>742.5</ele>
        <time>2020-11-13T10:19:45Z</time>
      </trkpt>
      <trkpt lat="40.470490000" lon="-4.055995000">
        <ele>742.7</ele>
        <time>2020-11-13T10:19:48Z</time>
      </trkpt>
      <trkpt lat="40.470405000" lon="-4.055903000">
        <ele>743.1</ele>
        <time>2020-11-13T10:19:51Z</time>
      </trkpt>
      <trkpt lat="40.470342000" lon="-4.055800000">
        <ele>743.4</ele>
        <time>2020-11-13T10:19:54Z</time>
      </trkpt>
      <trkpt lat="40.470305000" lon="-4.055671000">
        <ele>743.7</ele>
        <time>2020-11-13T10:19:58Z</time>
      </trkpt>
      <trkpt lat="40.470280000" lon="-4.055524000">
        <ele>744.4</ele>
        <time>2020-11-13T10:20:02Z</time>
      </trkpt>
      <trkpt lat="40.470296000" lon="-4.055388000">
        <ele>745.0</ele>
        <time>2020-11-13T10:20:08Z</time>
      </trkpt>
      <trkpt lat="40.470339000" lon="-4.055262000">
        <ele>745.7</ele>
        <time>2020-11-13T10:20:13Z</time>
      </trkpt>
      <trkpt lat="40.470333000" lon="-4.055131000">
        <ele>746.4</ele>
        <time>2020-11-13T10:20:18Z</time>
      </trkpt>
      <trkpt lat="40.470400000" lon="-4.055022000">
        <ele>747.0</ele>
        <time>2020-11-13T10:20:24Z</time>
      </trkpt>
      <trkpt lat="40.470431000" lon="-4.054896000">
        <ele>747.5</ele>
        <time>2020-11-13T10:20:29Z</time>
      </trkpt>
      <trkpt lat="40.470466000" lon="-4.054781000">
        <ele>748.0</ele>
        <time>2020-11-13T10:20:34Z</time>
      </trkpt>
      <trkpt lat="40.470492000" lon="-4.054648000">
        <ele>748.2</ele>
        <time>2020-11-13T10:20:39Z</time>
      </trkpt>
      <trkpt lat="40.470508000" lon="-4.054526000">
        <ele>748.1</ele>
        <time>2020-11-13T10:20:43Z</time>
      </trkpt>
      <trkpt lat="40.470539000" lon="-4.054405000">
        <ele>747.8</ele>
        <time>2020-11-13T10:20:47Z</time>
      </trkpt>
      <trkpt lat="40.470571000" lon="-4.054247000">
        <ele>747.4</ele>
        <time>2020-11-13T10:20:51Z</time>
      </trkpt>
      <trkpt lat="40.470586000" lon="-4.054127000">
        <ele>746.8</ele>
        <time>2020-11-13T10:20:53Z</time>
      </trkpt>
      <trkpt lat="40.470598000" lon="-4.054006000">
        <ele>746.3</ele>
        <time>2020-11-13T10:20:55Z</time>
      </trkpt>
      <trkpt lat="40.470610000" lon="-4.053834000">
        <ele>745.5</ele>
        <time>2020-11-13T10:20:57Z</time>
      </trkpt>
      <trkpt lat="40.470635000" lon="-4.053682000">
        <ele>744.9</ele>
        <time>2020-11-13T10:20:59Z</time>
      </trkpt>
      <trkpt lat="40.470690000" lon="-4.053478000">
        <ele>744.3</ele>
        <time>2020-11-13T10:21:01Z</time>
      </trkpt>
      <trkpt lat="40.470719000" lon="-4.053358000">
        <ele>743.6</ele>
        <time>2020-11-13T10:21:02Z</time>
      </trkpt>
      <trkpt lat="40.470783000" lon="-4.053181000">
        <ele>743.1</ele>
        <time>2020-11-13T10:21:04Z</time>
      </trkpt>
      <trkpt lat="40.470800000" lon="-4.052979000">
        <ele>742.7</ele>
        <time>2020-11-13T10:21:06Z</time>
      </trkpt>
      <trkpt lat="40.470842000" lon="-4.052823000">
        <ele>742.5</ele>
        <time>2020-11-13T10:21:08Z</time>
      </trkpt>
      <trkpt lat="40.470870000" lon="-4.052656000">
        <ele>742.7</ele>
        <time>2020-11-13T10:21:11Z</time>
      </trkpt>
      <trkpt lat="40.470895000" lon="-4.052533000">
        <ele>743.1</ele>
        <time>2020-11-13T10:21:14Z</time>
      </trkpt>
      <trkpt lat="40.470906000" lon="-4.052408000">
        <ele>743.5</ele>
        <time>2020-11-13T10:21:19Z</time>
      </trkpt>
      <trkpt lat="40.470907000" lon="-4.052278000">
        <ele>743.9</ele>
        <time>2020-11-13T10:21:25Z</time>
      </trkpt>
      <trkpt lat="40.470856000" lon="-4.052169000">
        <ele>744.4</ele>
        <time>2020-11-13T10:21:31Z</time>
      </trkpt>
      <trkpt lat="40.470838000" lon="-4.052032000">
        <ele>744.9</ele>
        <time>2020-11-13T10:21:38Z</time>
      </trkpt>
      <trkpt lat="40.470853000" lon="-4.051903000">
        <ele>745.6</ele>
        <time>2020-11-13T10:21:46Z</time>
      </trkpt>
      <trkpt lat="40.470810000" lon="-4.051794000">
        <ele>746.5</ele>
        <time>2020-11-13T10:21:52Z</time>
      </trkpt>
      <trkpt lat="40.470731000" lon="-4.051705000">
        <ele>747.5</ele>
        <time>2020-11-13T10:21:58Z</time>
      </trkpt>
      <trkpt lat="40.470694000" lon="-4.051583000">
        <ele>748.5</ele>
        <time>2020-11-13T10:22:04Z</time>
      </trkpt>
      <trkpt lat="40.470677000" lon="-4.051463000">
        <ele>749.5</ele>
        <time>2020-11-13T10:22:09Z</time>
      </trkpt>
      <trkpt lat="40.470708000" lon="-4.051341000">
        <ele>750.3</ele>
        <time>2020-11-13T10:22:15Z</time>
      </trkpt>
      <trkpt lat="40.470731000" lon="-4.051215000">
        <ele>750.9</ele>
        <time>2020-11-13T10:22:21Z</time>
      </trkpt>
      <trkpt lat="40.470779000" lon="-4.051105000">
        <ele>751.5</ele>
        <time>2020-11-13T10:22:26Z</time>
      </trkpt>
      <trkpt lat="40.470811000" lon="-4.050983000">
        <ele>751.9</ele>
        <time>2020-11-13T10:22:33Z</time>
      </trkpt>
      <trkpt lat="40.470827000" lon="-4.050839000">
        <ele>752.3</ele>
        <time>2020-11-13T10:22:38Z</time>
      </trkpt>
      <trkpt lat="40.470838000" lon="-4.050703000">
        <ele>752.5</ele>
        <time>2020-11-13T10:22:43Z</time>
      </trkpt>
      <trkpt lat="40.470848000" lon="-4.050585000">
        <ele>752.6</ele>
        <time>2020-11-13T10:22:46Z</time>
      </trkpt>
      <trkpt lat="40.470852000" lon="-4.050466000">
        <ele>752.6</ele>
        <time>2020-11-13T10:22:49Z</time>
      </trkpt>
      <trkpt lat="40.470818000" lon="-4.050292000">
        <ele>752.5</ele>
        <time>2020-11-13T10:22:52Z</time>
      </trkpt>
      <trkpt lat="40.470794000" lon="-4.050156000">
        <ele>752.3</ele>
        <time>2020-11-13T10:22:54Z</time>
      </trkpt>
      <trkpt lat="40.470763000" lon="-4.050011000">
        <ele>752.2</ele>
        <time>2020-11-13T10:22:56Z</time>
      </trkpt>
      <trkpt lat="40.470756000" lon="-4.049868000">
        <ele>752.2</ele>
        <time>2020-11-13T10:22:58Z</time>
      </trkpt>
      <trkpt lat="40.470824000" lon="-4.049760000">
        <ele>752.2</ele>
        <time>2020-11-13T10:23:00Z</time>
      </trkpt>
      <trkpt lat="40.470814000" lon="-4.049618000">
        <ele>752.3</ele>
        <time>2020-11-13T10:23:02Z</time>
      </trkpt>
      <trkpt lat="40.470811000" lon="-4.049483000">
        <ele>752.6</ele>
        <time>2020-11-13T10:23:04Z</time>
      </trkpt>
      <trkpt lat="40.470820000" lon="-4.049349000">
        <ele>753.2</ele>
        <time>2020-11-13T10:23:07Z</time>
      </trkpt>
      <trkpt lat="40.470738000" lon="-4.049268000">
        <ele>753.7</ele>
        <time>2020-11-13T10:23:10Z</time>
      </trkpt>
      <trkpt lat="40.470641000" lon="-4.049221000">
        <ele>754.4</ele>
        <time>2020-11-13T10:23:15Z</time>
      </trkpt>
      <trkpt lat="40.470545000" lon="-4.049170000">
        <ele>755.1</ele>
        <time>2020-11-13T10:23:19Z</time>
      </trkpt>
      <trkpt lat="40.470448000" lon="-4.049130000">
        <ele>755.8</ele>
        <time>2020-11-13T10:23:24Z</time>
      </trkpt>
      <trkpt lat="40.470362000" lon="-4.049094000">
        <ele>756.4</ele>
        <time>2020-11-13T10:23:28Z</time>
      </trkpt>
      <trkpt lat="40.470251000" lon="-4.049128000">
        <ele>756.7</ele>
        <time>2020-11-13T10:23:32Z</time>
      </trkpt>
      <trkpt lat="40.470158000" lon="-4.049201000">
        <ele>757.0</ele>
        <time>2020-11-13T10:23:36Z</time>
      </trkpt>
      <trkpt lat="40.470079000" lon="-4.049305000">
        <ele>757.4</ele>
        <time>2020-11-13T10:23:41Z</time>
      </trkpt>
      <trkpt lat="40.470029000" lon="-4.049430000">
        <ele>757.5</ele>
        <time>2020-11-13T10:23:45Z</time>
      </trkpt>
      <trkpt lat="40.469974000" lon="-4.049572000">
        <ele>757.5</ele>
        <time>2020-11-13T10:23:49Z</time>
      </trkpt>
      <trkpt lat="40.469931000" lon="-4.049683000">
        <ele>757.4</ele>
        <time>2020-11-13T10:23:52Z</time>
      </trkpt>
      <trkpt lat="40.469850000" lon="-4.049798000">
        <ele>757.1</ele>
        <time>2020-11-13T10:23:55Z</time>
      </trkpt>
      <trkpt lat="40.469772000" lon="-4.049921000">
        <ele>756.6</ele>
        <time>2020-11-13T10:23:58Z</time>
      </trkpt>
      <trkpt lat="40.469716000" lon="-4.050058000">
        <ele>756.1</ele>
        <time>2020-11-13T10:24:01Z</time>
      </trkpt>
      <trkpt lat="40.469671000" lon="-4.050185000">
        <ele>755.7</ele>
        <time>2020-11-13T10:24:04Z</time>
      </trkpt>
      <trkpt lat="40.469633000" lon="-4.050307000">
        <ele>755.5</ele>
        <time>2020-11-13T10:24:07Z</time>
      </trkpt>
      <trkpt lat="40.469582000" lon="-4.050417000">
        <ele>755.3</ele>
        <time>2020-11-13T10:24:10Z</time>
      </trkpt>
      <trkpt lat="40.469531000" lon="-4.050530000">
        <ele>755.2</ele>
        <time>2020-11-13T10:24:13Z</time>
      </trkpt>
      <trkpt lat="40.469464000" lon="-4.050636000">
        <ele>754.9</ele>
        <time>2020-11-13T10:24:16Z</time>
      </trkpt>
      <trkpt lat="40.469385000" lon="-4.050740000">
        <ele>754.7</ele>
        <time>2020-11-13T10:24:19Z</time>
      </trkpt>
      <trkpt lat="40.469327000" lon="-4.050840000">
        <ele>754.7</ele>
        <time>2020-11-13T10:24:21Z</time>
      </trkpt>
      <trkpt lat="40.469250000" lon="-4.050962000">
        <ele>754.8</ele>
        <time>2020-11-13T10:24:24Z</time>
      </trkpt>
      <trkpt lat="40.469177000" lon="-4.051042000">
        <ele>755.0</ele>
        <time>2020-11-13T10:24:26Z</time>
      </trkpt>
      <trkpt lat="40.469108000" lon="-4.051121000">
        <ele>755.3</ele>
        <time>2020-11-13T10:24:28Z</time>
      </trkpt>
      <trkpt lat="40.469017000" lon="-4.051145000">
        <ele>755.5</ele>
        <time>2020-11-13T10:24:30Z</time>
      </trkpt>
      <trkpt lat="40.468936000" lon="-4.051198000">
        <ele>755.6</ele>
        <time>2020-11-13T10:24:32Z</time>
      </trkpt>
      <trkpt lat="40.468849000" lon="-4.051246000">
        <ele>755.6</ele>
        <time>2020-11-13T10:24:34Z</time>
      </trkpt>
      <trkpt lat="40.468728000" lon="-4.051328000">
        <ele>755.6</ele>
        <time>2020-11-13T10:24:37Z</time>
      </trkpt>
      <trkpt lat="40.468645000" lon="-4.051376000">
        <ele>755.5</ele>
        <time>2020-11-13T10:24:39Z</time>
      </trkpt>
      <trkpt lat="40.468526000" lon="-4.051446000">
        <ele>755.5</ele>
        <time>2020-11-13T10:24:42Z</time>
      </trkpt>
      <trkpt lat="40.468433000" lon="-4.051539000">
        <ele>755.5</ele>
        <time>2020-11-13T10:24:45Z</time>
      </trkpt>
      <trkpt lat="40.468341000" lon="-4.051489000">
        <ele>755.6</ele>
        <time>2020-11-13T10:24:48Z</time>
      </trkpt>
      <trkpt lat="40.468335000" lon="-4.051339000">
        <ele>755.9</ele>
        <time>2020-11-13T10:24:52Z</time>
      </trkpt>
      <trkpt lat="40.468347000" lon="-4.051190000">
        <ele>756.3</ele>
        <time>2020-11-13T10:24:56Z</time>
      </trkpt>
      <trkpt lat="40.468335000" lon="-4.051042000">
        <ele>756.6</ele>
        <time>2020-11-13T10:25:00Z</time>
      </trkpt>
      <trkpt lat="40.468302000" lon="-4.050900000">
        <ele>757.1</ele>
        <time>2020-11-13T10:25:05Z</time>
      </trkpt>
      <trkpt lat="40.468239000" lon="-4.050800000">
        <ele>757.5</ele>
        <time>2020-11-13T10:25:08Z</time>
      </trkpt>
      <trkpt lat="40.468183000" lon="-4.050680000">
        <ele>758.2</ele>
        <time>2020-11-13T10:25:12Z</time>
      </trkpt>
      <trkpt lat="40.468127000" lon="-4.050569000">
        <ele>758.9</ele>
        <time>2020-11-13T10:25:16Z</time>
      </trkpt>
      <trkpt lat="40.468103000" lon="-4.050441000">
        <ele>759.9</ele>
        <time>2020-11-13T10:25:21Z</time>
      </trkpt>
      <trkpt lat="40.468085000" lon="-4.050309000">
        <ele>760.9</ele>
        <time>2020-11-13T10:25:26Z</time>
      </trkpt>
      <trkpt lat="40.468083000" lon="-4.050191000">
        <ele>761.8</ele>
        <time>2020-11-13T10:25:29Z</time>
      </trkpt>
      <trkpt lat="40.468109000" lon="-4.050050000">
        <ele>762.6</ele>
        <time>2020-11-13T10:25:33Z</time>
      </trkpt>
      <trkpt lat="40.468169000" lon="-4.049941000">
        <ele>763.2</ele>
        <time>2020-11-13T10:25:38Z</time>
      </trkpt>
      <trkpt lat="40.468242000" lon="-4.049847000">
        <ele>763.6</ele>
        <time>2020-11-13T10:25:43Z</time>
      </trkpt>
      <trkpt lat="40.468314000" lon="-4.049745000">
        <ele>764.1</ele>
        <time>2020-11-13T10:25:48Z</time>
      </trkpt>
      <trkpt lat="40.468358000" lon="-4.049624000">
        <ele>764.5</ele>
        <time>2020-11-13T10:25:53Z</time>
      </trkpt>
      <trkpt lat="40.468414000" lon="-4.049512000">
        <ele>765.0</ele>
        <time>2020-11-13T10:25:58Z</time>
      </trkpt>
      <trkpt lat="40.468456000" lon="-4.049405000">
        <ele>765.4</ele>
        <time>2020-11-13T10:26:03Z</time>
      </trkpt>
      <trkpt lat="40.468531000" lon="-4.049324000">
        <ele>765.7</ele>
        <time>2020-11-13T10:26:08Z</time>
      </trkpt>
      <trkpt lat="40.468639000" lon="-4.049291000">
        <ele>766.1</ele>
        <time>2020-11-13T10:26:14Z</time>
      </trkpt>
      <trkpt lat="40.468733000" lon="-4.049217000">
        <ele>766.5</ele>
        <time>2020-11-13T10:26:18Z</time>
      </trkpt>
      <trkpt lat="40.468810000" lon="-4.049153000">
        <ele>767.0</ele>
        <time>2020-11-13T10:26:21Z</time>
      </trkpt>
      <trkpt lat="40.468895000" lon="-4.049102000">
        <ele>767.5</ele>
        <time>2020-11-13T10:26:24Z</time>
      </trkpt>
      <trkpt lat="40.468990000" lon="-4.049034000">
        <ele>768.0</ele>
        <time>2020-11-13T10:26:29Z</time>
      </trkpt>
      <trkpt lat="40.469075000" lon="-4.048992000">
        <ele>768.5</ele>
        <time>2020-11-13T10:26:34Z</time>
      </trkpt>
      <trkpt lat="40.469193000" lon="-4.048971000">
        <ele>768.8</ele>
        <time>2020-11-13T10:26:39Z</time>
      </trkpt>
      <trkpt lat="40.469288000" lon="-4.048935000">
        <ele>769.1</ele>
        <time>2020-11-13T10:26:42Z</time>
      </trkpt>
      <trkpt lat="40.469384000" lon="-4.048887000">
        <ele>769.5</ele>
        <time>2020-11-13T10:26:45Z</time>
      </trkpt>
      <trkpt lat="40.469477000" lon="-4.048827000">
        <ele>769.8</ele>
        <time>2020-11-13T10:26:48Z</time>
      </trkpt>
      <trkpt lat="40.469556000" lon="-4.048732000">
        <ele>770.2</ele>
        <time>2020-11-13T10:26:51Z</time>
      </trkpt>
      <trkpt lat="40.469626000" lon="-4.048651000">
        <ele>770.5</ele>
        <time>2020-11-13T10:26:54Z</time>
      </trkpt>
      <trkpt lat="40.469697000" lon="-4.048548000">
        <ele>770.5</ele>
        <time>2020-11-13T10:26:57Z</time>
      </trkpt>
      <trkpt lat="40.469749000" lon="-4.048418000">
        <ele>770.7</ele>
        <time>2020-11-13T10:27:00Z</time>
      </trkpt>
      <trkpt lat="40.469810000" lon="-4.048277000">
        <ele>770.8</ele>
        <time>2020-11-13T10:27:03Z</time>
      </trkpt>
      <trkpt lat="40.469855000" lon="-4.048146000">
        <ele>770.9</ele>
        <time>2020-11-13T10:27:06Z</time>
      </trkpt>
      <trkpt lat="40.469892000" lon="-4.048032000">
        <ele>771.1</ele>
        <time>2020-11-13T10:27:09Z</time>
      </trkpt>
      <trkpt lat="40.469956000" lon="-4.047918000">
        <ele>771.4</ele>
        <time>2020-11-13T10:27:12Z</time>
      </trkpt>
      <trkpt lat="40.470038000" lon="-4.047831000">
        <ele>771.7</ele>
        <time>2020-11-13T10:27:15Z</time>
      </trkpt>
      <trkpt lat="40.470139000" lon="-4.047781000">
        <ele>772.1</ele>
        <time>2020-11-13T10:27:18Z</time>
      </trkpt>
      <trkpt lat="40.470245000" lon="-4.047747000">
        <ele>772.5</ele>
        <time>2020-11-13T10:27:21Z</time>
      </trkpt>
      <trkpt lat="40.470348000" lon="-4.047698000">
        <ele>772.9</ele>
        <time>2020-11-13T10:27:24Z</time>
      </trkpt>
      <trkpt lat="40.470443000" lon="-4.047645000">
        <ele>773.2</ele>
        <time>2020-11-13T10:27:27Z</time>
      </trkpt>
      <trkpt lat="40.470538000" lon="-4.047592000">
        <ele>773.3</ele>
        <time>2020-11-13T10:27:30Z</time>
      </trkpt>
      <trkpt lat="40.470648000" lon="-4.047553000">
        <ele>773.3</ele>
        <time>2020-11-13T10:27:33Z</time>
      </trkpt>
      <trkpt lat="40.470753000" lon="-4.047493000">
        <ele>773.5</ele>
        <time>2020-11-13T10:27:36Z</time>
      </trkpt>
      <trkpt lat="40.470855000" lon="-4.047439000">
        <ele>773.7</ele>
        <time>2020-11-13T10:27:39Z</time>
      </trkpt>
      <trkpt lat="40.470951000" lon="-4.047391000">
        <ele>774.1</ele>
        <time>2020-11-13T10:27:42Z</time>
      </trkpt>
      <trkpt lat="40.471053000" lon="-4.047342000">
        <ele>774.5</ele>
        <time>2020-11-13T10:27:45Z</time>
      </trkpt>
      <trkpt lat="40.471157000" lon="-4.047304000">
        <ele>774.8</ele>
        <time>2020-11-13T10:27:48Z</time>
      </trkpt>
      <trkpt lat="40.471279000" lon="-4.047304000">
        <ele>775.0</ele>
        <time>2020-11-13T10:27:52Z</time>
      </trkpt>
      <trkpt lat="40.471394000" lon="-4.047322000">
        <ele>775.1</ele>
        <time>2020-11-13T10:27:55Z</time>
      </trkpt>
      <trkpt lat="40.471491000" lon="-4.047347000">
        <ele>775.2</ele>
        <time>2020-11-13T10:27:58Z</time>
      </trkpt>
      <trkpt lat="40.471585000" lon="-4.047399000">
        <ele>775.3</ele>
        <time>2020-11-13T10:28:01Z</time>
      </trkpt>
      <trkpt lat="40.471701000" lon="-4.047457000">
        <ele>775.5</ele>
        <time>2020-11-13T10:28:04Z</time>
      </trkpt>
      <trkpt lat="40.471806000" lon="-4.047513000">
        <ele>775.9</ele>
        <time>2020-11-13T10:28:07Z</time>
      </trkpt>
      <trkpt lat="40.471893000" lon="-4.047546000">
        <ele>776.2</ele>
        <time>2020-11-13T10:28:10Z</time>
      </trkpt>
      <trkpt lat="40.471997000" lon="-4.047537000">
        <ele>776.5</ele>
        <time>2020-11-13T10:28:13Z</time>
      </trkpt>
      <trkpt lat="40.472108000" lon="-4.047544000">
        <ele>776.9</ele>
        <time>2020-11-13T10:28:16Z</time>
      </trkpt>
      <trkpt lat="40.472227000" lon="-4.047565000">
        <ele>777.5</ele>
        <time>2020-11-13T10:28:19Z</time>
      </trkpt>
      <trkpt lat="40.472334000" lon="-4.047595000">
        <ele>777.9</ele>
        <time>2020-11-13T10:28:22Z</time>
      </trkpt>
      <trkpt lat="40.472435000" lon="-4.047619000">
        <ele>778.5</ele>
        <time>2020-11-13T10:28:25Z</time>
      </trkpt>
      <trkpt lat="40.472542000" lon="-4.047638000">
        <ele>779.0</ele>
        <time>2020-11-13T10:28:28Z</time>
      </trkpt>
      <trkpt lat="40.472652000" lon="-4.047651000">
        <ele>779.5</ele>
        <time>2020-11-13T10:28:31Z</time>
      </trkpt>
      <trkpt lat="40.472744000" lon="-4.047668000">
        <ele>779.9</ele>
        <time>2020-11-13T10:28:34Z</time>
      </trkpt>
      <trkpt lat="40.472834000" lon="-4.047685000">
        <ele>780.3</ele>
        <time>2020-11-13T10:28:37Z</time>
      </trkpt>
      <trkpt lat="40.472942000" lon="-4.047687000">
        <ele>780.5</ele>
        <time>2020-11-13T10:28:41Z</time>
      </trkpt>
      <trkpt lat="40.473051000" lon="-4.047667000">
        <ele>780.8</ele>
        <time>2020-11-13T10:28:45Z</time>
      </trkpt>
      <trkpt lat="40.473138000" lon="-4.047628000">
        <ele>780.8</ele>
        <time>2020-11-13T10:28:49Z</time>
      </trkpt>
      <trkpt lat="40.473249000" lon="-4.047571000">
        <ele>780.7</ele>
        <time>2020-11-13T10:28:53Z</time>
      </trkpt>
      <trkpt lat="40.473344000" lon="-4.047509000">
        <ele>780.4</ele>
        <time>2020-11-13T10:28:56Z</time>
      </trkpt>
      <trkpt lat="40.473462000" lon="-4.047421000">
        <ele>779.9</ele>
        <time>2020-11-13T10:28:59Z</time>
      </trkpt>
      <trkpt lat="40.473578000" lon="-4.047370000">
        <ele>779.5</ele>
        <time>2020-11-13T10:29:01Z</time>
      </trkpt>
      <trkpt lat="40.473703000" lon="-4.047350000">
        <ele>779.0</ele>
        <time>2020-11-13T10:29:03Z</time>
      </trkpt>
      <trkpt lat="40.473820000" lon="-4.047335000">
        <ele>778.5</ele>
        <time>2020-11-13T10:29:05Z</time>
      </trkpt>
      <trkpt lat="40.473949000" lon="-4.047325000">
        <ele>778.1</ele>
        <time>2020-11-13T10:29:07Z</time>
      </trkpt>
      <trkpt lat="40.474063000" lon="-4.047299000">
        <ele>777.8</ele>
        <time>2020-11-13T10:29:09Z</time>
      </trkpt>
      <trkpt lat="40.474176000" lon="-4.047292000">
        <ele>777.5</ele>
        <time>2020-11-13T10:29:11Z</time>
      </trkpt>
      <trkpt lat="40.474301000" lon="-4.047243000">
        <ele>777.3</ele>
        <time>2020-11-13T10:29:13Z</time>
      </trkpt>
      <trkpt lat="40.474422000" lon="-4.047244000">
        <ele>777.1</ele>
        <time>2020-11-13T10:29:17Z</time>
      </trkpt>
      <trkpt lat="40.474511000" lon="-4.047224000">
        <ele>777.0</ele>
        <time>2020-11-13T10:29:19Z</time>
      </trkpt>
      <trkpt lat="40.474617000" lon="-4.047233000">
        <ele>777.1</ele>
        <time>2020-11-13T10:29:22Z</time>
      </trkpt>
      <trkpt lat="40.474738000" lon="-4.047240000">
        <ele>777.3</ele>
        <time>2020-11-13T10:29:24Z</time>
      </trkpt>
      <trkpt lat="40.474839000" lon="-4.047241000">
        <ele>777.4</ele>
        <time>2020-11-13T10:29:27Z</time>
      </trkpt>
      <trkpt lat="40.474966000" lon="-4.047248000">
        <ele>777.4</ele>
        <time>2020-11-13T10:29:30Z</time>
      </trkpt>
      <trkpt lat="40.475087000" lon="-4.047301000">
        <ele>777.5</ele>
        <time>2020-11-13T10:29:33Z</time>
      </trkpt>
      <trkpt lat="40.475197000" lon="-4.047357000">
        <ele>777.7</ele>
        <time>2020-11-13T10:29:36Z</time>
      </trkpt>
      <trkpt lat="40.475319000" lon="-4.047363000">
        <ele>777.9</ele>
        <time>2020-11-13T10:29:39Z</time>
      </trkpt>
      <trkpt lat="40.475435000" lon="-4.047361000">
        <ele>778.2</ele>
        <time>2020-11-13T10:29:42Z</time>
      </trkpt>
      <trkpt lat="40.475540000" lon="-4.047385000">
        <ele>778.5</ele>
        <time>2020-11-13T10:29:45Z</time>
      </trkpt>
      <trkpt lat="40.475630000" lon="-4.047419000">
        <ele>778.9</ele>
        <time>2020-11-13T10:29:48Z</time>
      </trkpt>
      <trkpt lat="40.475715000" lon="-4.047462000">
        <ele>779.3</ele>
        <time>2020-11-13T10:29:51Z</time>
      </trkpt>
      <trkpt lat="40.475811000" lon="-4.047505000">
        <ele>779.5</ele>
        <time>2020-11-13T10:29:54Z</time>
      </trkpt>
      <trkpt lat="40.475921000" lon="-4.047547000">
        <ele>779.8</ele>
        <time>2020-11-13T10:29:57Z</time>
      </trkpt>
      <trkpt lat="40.476015000" lon="-4.047607000">
        <ele>780.2</ele>
        <time>2020-11-13T10:30:00Z</time>
      </trkpt>
      <trkpt lat="40.476103000" lon="-4.047684000">
        <ele>780.6</ele>
        <time>2020-11-13T10:30:03Z</time>
      </trkpt>
      <trkpt lat="40.476185000" lon="-4.047757000">
        <ele>781.0</ele>
        <time>2020-11-13T10:30:06Z</time>
      </trkpt>
      <trkpt lat="40.476273000" lon="-4.047837000">
        <ele>781.4</ele>
        <time>2020-11-13T10:30:09Z</time>
      </trkpt>
      <trkpt lat="40.476363000" lon="-4.047948000">
        <ele>781.7</ele>
        <time>2020-11-13T10:30:12Z</time>
      </trkpt>
      <trkpt lat="40.476456000" lon="-4.048037000">
        <ele>782.0</ele>
        <time>2020-11-13T10:30:15Z</time>
      </trkpt>
      <trkpt lat="40.476536000" lon="-4.048127000">
        <ele>782.3</ele>
        <time>2020-11-13T10:30:18Z</time>
      </trkpt>
      <trkpt lat="40.476610000" lon="-4.048244000">
        <ele>782.4</ele>
        <time>2020-11-13T10:30:21Z</time>
      </trkpt>
      <trkpt lat="40.476680000" lon="-4.048367000">
        <ele>782.5</ele>
        <time>2020-11-13T10:30:24Z</time>
      </trkpt>
      <trkpt lat="40.476734000" lon="-4.048493000">
        <ele>782.6</ele>
        <time>2020-11-13T10:30:27Z</time>
      </trkpt>
      <trkpt lat="40.476771000" lon="-4.048608000">
        <ele>782.8</ele>
        <time>2020-11-13T10:30:30Z</time>
      </trkpt>
      <trkpt lat="40.476814000" lon="-4.048715000">
        <ele>783.0</ele>
        <time>2020-11-13T10:30:33Z</time>
      </trkpt>
      <trkpt lat="40.476863000" lon="-4.048832000">
        <ele>783.2</ele>
        <time>2020-11-13T10:30:36Z</time>
      </trkpt>
      <trkpt lat="40.476919000" lon="-4.048945000">
        <ele>783.4</ele>
        <time>2020-11-13T10:30:39Z</time>
      </trkpt>
      <trkpt lat="40.476990000" lon="-4.049048000">
        <ele>783.5</ele>
        <time>2020-11-13T10:30:43Z</time>
      </trkpt>
      <trkpt lat="40.477077000" lon="-4.049108000">
        <ele>783.6</ele>
        <time>2020-11-13T10:30:47Z</time>
      </trkpt>
      <trkpt lat="40.477130000" lon="-4.049222000">
        <ele>783.8</ele>
        <time>2020-11-13T10:30:53Z</time>
      </trkpt>
      <trkpt lat="40.477188000" lon="-4.049312000">
        <ele>784.1</ele>
        <time>2020-11-13T10:30:59Z</time>
      </trkpt>
      <trkpt lat="40.477260000" lon="-4.049412000">
        <ele>784.5</ele>
        <time>2020-11-13T10:31:04Z</time>
      </trkpt>
      <trkpt lat="40.477339000" lon="-4.049496000">
        <ele>784.9</ele>
        <time>2020-11-13T10:31:07Z</time>
      </trkpt>
      <trkpt lat="40.477416000" lon="-4.049584000">
        <ele>785.4</ele>
        <time>2020-11-13T10:31:10Z</time>
      </trkpt>
      <trkpt lat="40.477503000" lon="-4.049694000">
        <ele>785.9</ele>
        <time>2020-11-13T10:31:14Z</time>
      </trkpt>
      <trkpt lat="40.477571000" lon="-4.049791000">
        <ele>786.5</ele>
        <time>2020-11-13T10:31:17Z</time>
      </trkpt>
      <trkpt lat="40.477643000" lon="-4.049867000">
        <ele>787.2</ele>
        <time>2020-11-13T10:31:20Z</time>
      </trkpt>
      <trkpt lat="40.477703000" lon="-4.049962000">
        <ele>787.9</ele>
        <time>2020-11-13T10:31:23Z</time>
      </trkpt>
      <trkpt lat="40.477764000" lon="-4.050082000">
        <ele>788.7</ele>
        <time>2020-11-13T10:31:27Z</time>
      </trkpt>
      <trkpt lat="40.477826000" lon="-4.050191000">
        <ele>789.6</ele>
        <time>2020-11-13T10:31:31Z</time>
      </trkpt>
      <trkpt lat="40.477903000" lon="-4.050261000">
        <ele>790.5</ele>
        <time>2020-11-13T10:31:35Z</time>
      </trkpt>
      <trkpt lat="40.477988000" lon="-4.050340000">
        <ele>791.2</ele>
        <time>2020-11-13T10:31:39Z</time>
      </trkpt>
      <trkpt lat="40.478083000" lon="-4.050437000">
        <ele>791.8</ele>
        <time>2020-11-13T10:31:43Z</time>
      </trkpt>
      <trkpt lat="40.478167000" lon="-4.050526000">
        <ele>792.5</ele>
        <time>2020-11-13T10:31:47Z</time>
      </trkpt>
      <trkpt lat="40.478247000" lon="-4.050622000">
        <ele>793.1</ele>
        <time>2020-11-13T10:31:51Z</time>
      </trkpt>
      <trkpt lat="40.478315000" lon="-4.050710000">
        <ele>793.6</ele>
        <time>2020-11-13T10:31:55Z</time>
      </trkpt>
      <trkpt lat="40.478380000" lon="-4.050811000">
        <ele>794.2</ele>
        <time>2020-11-13T10:31:59Z</time>
      </trkpt>
      <trkpt lat="40.478430000" lon="-4.050932000">
        <ele>794.7</ele>
        <time>2020-11-13T10:32:03Z</time>
      </trkpt>
      <trkpt lat="40.478498000" lon="-4.051047000">
        <ele>795.3</ele>
        <time>2020-11-13T10:32:07Z</time>
      </trkpt>
      <trkpt lat="40.478563000" lon="-4.051143000">
        <ele>795.8</ele>
        <time>2020-11-13T10:32:11Z</time>
      </trkpt>
      <trkpt lat="40.478626000" lon="-4.051254000">
        <ele>796.3</ele>
        <time>2020-11-13T10:32:15Z</time>
      </trkpt>
      <trkpt lat="40.478693000" lon="-4.051375000">
        <ele>796.8</ele>
        <time>2020-11-13T10:32:19Z</time>
      </trkpt>
      <trkpt lat="40.478769000" lon="-4.051460000">
        <ele>797.4</ele>
        <time>2020-11-13T10:32:23Z</time>
      </trkpt>
      <trkpt lat="40.478846000" lon="-4.051526000">
        <ele>798.0</ele>
        <time>2020-11-13T10:32:27Z</time>
      </trkpt>
      <trkpt lat="40.478946000" lon="-4.051599000">
        <ele>798.5</ele>
        <time>2020-11-13T10:32:31Z</time>
      </trkpt>
      <trkpt lat="40.479024000" lon="-4.051674000">
        <ele>799.1</ele>
        <time>2020-11-13T10:32:34Z</time>
      </trkpt>
      <trkpt lat="40.479094000" lon="-4.051770000">
        <ele>799.7</ele>
        <time>2020-11-13T10:32:37Z</time>
      </trkpt>
      <trkpt lat="40.479172000" lon="-4.051861000">
        <ele>800.3</ele>
        <time>2020-11-13T10:32:40Z</time>
      </trkpt>
      <trkpt lat="40.479256000" lon="-4.051923000">
        <ele>800.8</ele>
        <time>2020-11-13T10:32:43Z</time>
      </trkpt>
      <trkpt lat="40.479348000" lon="-4.051967000">
        <ele>801.3</ele>
        <time>2020-11-13T10:32:46Z</time>
      </trkpt>
      <trkpt lat="40.479443000" lon="-4.051997000">
        <ele>801.6</ele>
        <time>2020-11-13T10:32:49Z</time>
      </trkpt>
      <trkpt lat="40.479541000" lon="-4.052039000">
        <ele>801.9</ele>
        <time>2020-11-13T10:32:52Z</time>
      </trkpt>
      <trkpt lat="40.479631000" lon="-4.052094000">
        <ele>802.1</ele>
        <time>2020-11-13T10:32:55Z</time>
      </trkpt>
      <trkpt lat="40.479743000" lon="-4.052163000">
        <ele>802.2</ele>
        <time>2020-11-13T10:32:59Z</time>
      </trkpt>
      <trkpt lat="40.479845000" lon="-4.052197000">
        <ele>802.2</ele>
        <time>2020-11-13T10:33:02Z</time>
      </trkpt>
      <trkpt lat="40.479944000" lon="-4.052229000">
        <ele>802.2</ele>
        <time>2020-11-13T10:33:05Z</time>
      </trkpt>
      <trkpt lat="40.480046000" lon="-4.052273000">
        <ele>802.2</ele>
        <time>2020-11-13T10:33:09Z</time>
      </trkpt>
      <trkpt lat="40.480136000" lon="-4.052295000">
        <ele>802.1</ele>
        <time>2020-11-13T10:33:12Z</time>
      </trkpt>
      <trkpt lat="40.480246000" lon="-4.052349000">
        <ele>802.2</ele>
        <time>2020-11-13T10:33:16Z</time>
      </trkpt>
      <trkpt lat="40.480330000" lon="-4.052397000">
        <ele>802.5</ele>
        <time>2020-11-13T10:33:19Z</time>
      </trkpt>
      <trkpt lat="40.480425000" lon="-4.052464000">
        <ele>802.8</ele>
        <time>2020-11-13T10:33:23Z</time>
      </trkpt>
      <trkpt lat="40.480488000" lon="-4.052564000">
        <ele>803.2</ele>
        <time>2020-11-13T10:33:27Z</time>
      </trkpt>
      <trkpt lat="40.480578000" lon="-4.052624000">
        <ele>803.6</ele>
        <time>2020-11-13T10:33:31Z</time>
      </trkpt>
      <trkpt lat="40.480682000" lon="-4.052656000">
        <ele>804.1</ele>
        <time>2020-11-13T10:33:35Z</time>
      </trkpt>
      <trkpt lat="40.480783000" lon="-4.052678000">
        <ele>804.6</ele>
        <time>2020-11-13T10:33:39Z</time>
      </trkpt>
      <trkpt lat="40.480891000" lon="-4.052686000">
        <ele>805.2</ele>
        <time>2020-11-13T10:33:43Z</time>
      </trkpt>
      <trkpt lat="40.480986000" lon="-4.052686000">
        <ele>805.7</ele>
        <time>2020-11-13T10:33:46Z</time>
      </trkpt>
      <trkpt lat="40.481079000" lon="-4.052677000">
        <ele>806.2</ele>
        <time>2020-11-13T10:33:49Z</time>
      </trkpt>
      <trkpt lat="40.481193000" lon="-4.052658000">
        <ele>806.6</ele>
        <time>2020-11-13T10:33:53Z</time>
      </trkpt>
      <trkpt lat="40.481288000" lon="-4.052638000">
        <ele>807.0</ele>
        <time>2020-11-13T10:33:56Z</time>
      </trkpt>
      <trkpt lat="40.481378000" lon="-4.052579000">
        <ele>807.2</ele>
        <time>2020-11-13T10:34:01Z</time>
      </trkpt>
      <trkpt lat="40.481442000" lon="-4.052495000">
        <ele>807.3</ele>
        <time>2020-11-13T10:34:04Z</time>
      </trkpt>
      <trkpt lat="40.481523000" lon="-4.052428000">
        <ele>807.4</ele>
        <time>2020-11-13T10:34:07Z</time>
      </trkpt>
      <trkpt lat="40.481639000" lon="-4.052388000">
        <ele>807.5</ele>
        <time>2020-11-13T10:34:11Z</time>
      </trkpt>
      <trkpt lat="40.481741000" lon="-4.052370000">
        <ele>807.5</ele>
        <time>2020-11-13T10:34:14Z</time>
      </trkpt>
      <trkpt lat="40.481844000" lon="-4.052366000">
        <ele>807.6</ele>
        <time>2020-11-13T10:34:17Z</time>
      </trkpt>
      <trkpt lat="40.481966000" lon="-4.052355000">
        <ele>807.8</ele>
        <time>2020-11-13T10:34:20Z</time>
      </trkpt>
      <trkpt lat="40.482074000" lon="-4.052339000">
        <ele>808.0</ele>
        <time>2020-11-13T10:34:23Z</time>
      </trkpt>
      <trkpt lat="40.482188000" lon="-4.052317000">
        <ele>808.1</ele>
        <time>2020-11-13T10:34:27Z</time>
      </trkpt>
      <trkpt lat="40.482284000" lon="-4.052293000">
        <ele>808.2</ele>
        <time>2020-11-13T10:34:30Z</time>
      </trkpt>
      <trkpt lat="40.482401000" lon="-4.052266000">
        <ele>808.2</ele>
        <time>2020-11-13T10:34:34Z</time>
      </trkpt>
      <trkpt lat="40.482510000" lon="-4.052244000">
        <ele>808.3</ele>
        <time>2020-11-13T10:34:38Z</time>
      </trkpt>
      <trkpt lat="40.482616000" lon="-4.052223000">
        <ele>808.4</ele>
        <time>2020-11-13T10:34:42Z</time>
      </trkpt>
      <trkpt lat="40.482717000" lon="-4.052200000">
        <ele>808.5</ele>
        <time>2020-11-13T10:34:46Z</time>
      </trkpt>
      <trkpt lat="40.482809000" lon="-4.052179000">
        <ele>808.8</ele>
        <time>2020-11-13T10:34:51Z</time>
      </trkpt>
      <trkpt lat="40.482905000" lon="-4.052156000">
        <ele>809.1</ele>
        <time>2020-11-13T10:34:54Z</time>
      </trkpt>
      <trkpt lat="40.483014000" lon="-4.052137000">
        <ele>809.5</ele>
        <time>2020-11-13T10:34:57Z</time>
      </trkpt>
      <trkpt lat="40.483116000" lon="-4.052128000">
        <ele>809.7</ele>
        <time>2020-11-13T10:35:00Z</time>
      </trkpt>
      <trkpt lat="40.483224000" lon="-4.052127000">
        <ele>810.1</ele>
        <time>2020-11-13T10:35:03Z</time>
      </trkpt>
      <trkpt lat="40.483318000" lon="-4.052128000">
        <ele>810.7</ele>
        <time>2020-11-13T10:35:06Z</time>
      </trkpt>
      <trkpt lat="40.483410000" lon="-4.052141000">
        <ele>811.5</ele>
        <time>2020-11-13T10:35:09Z</time>
      </trkpt>
      <trkpt lat="40.483498000" lon="-4.052167000">
        <ele>812.3</ele>
        <time>2020-11-13T10:35:12Z</time>
      </trkpt>
      <trkpt lat="40.483597000" lon="-4.052180000">
        <ele>813.1</ele>
        <time>2020-11-13T10:35:15Z</time>
      </trkpt>
      <trkpt lat="40.483699000" lon="-4.052166000">
        <ele>813.9</ele>
        <time>2020-11-13T10:35:18Z</time>
      </trkpt>
      <trkpt lat="40.483796000" lon="-4.052168000">
        <ele>814.6</ele>
        <time>2020-11-13T10:35:21Z</time>
      </trkpt>
      <trkpt lat="40.483896000" lon="-4.052172000">
        <ele>815.2</ele>
        <time>2020-11-13T10:35:24Z</time>
      </trkpt>
      <trkpt lat="40.484000000" lon="-4.052174000">
        <ele>815.6</ele>
        <time>2020-11-13T10:35:27Z</time>
      </trkpt>
      <trkpt lat="40.484095000" lon="-4.052183000">
        <ele>815.9</ele>
        <time>2020-11-13T10:35:30Z</time>
      </trkpt>
      <trkpt lat="40.484200000" lon="-4.052200000">
        <ele>816.1</ele>
        <time>2020-11-13T10:35:34Z</time>
      </trkpt>
      <trkpt lat="40.484295000" lon="-4.052231000">
        <ele>816.2</ele>
        <time>2020-11-13T10:35:38Z</time>
      </trkpt>
      <trkpt lat="40.484399000" lon="-4.052273000">
        <ele>816.2</ele>
        <time>2020-11-13T10:35:43Z</time>
      </trkpt>
      <trkpt lat="40.484502000" lon="-4.052329000">
        <ele>816.2</ele>
        <time>2020-11-13T10:35:47Z</time>
      </trkpt>
      <trkpt lat="40.484601000" lon="-4.052365000">
        <ele>816.3</ele>
        <time>2020-11-13T10:35:51Z</time>
      </trkpt>
      <trkpt lat="40.484720000" lon="-4.052388000">
        <ele>816.4</ele>
        <time>2020-11-13T10:35:55Z</time>
      </trkpt>
      <trkpt lat="40.484829000" lon="-4.052403000">
        <ele>816.5</ele>
        <time>2020-11-13T10:35:59Z</time>
      </trkpt>
      <trkpt lat="40.484936000" lon="-4.052444000">
        <ele>816.7</ele>
        <time>2020-11-13T10:36:04Z</time>
      </trkpt>
      <trkpt lat="40.485048000" lon="-4.052476000">
        <ele>817.1</ele>
        <time>2020-11-13T10:36:08Z</time>
      </trkpt>
      <trkpt lat="40.485153000" lon="-4.052519000">
        <ele>817.5</ele>
        <time>2020-11-13T10:36:12Z</time>
      </trkpt>
      <trkpt lat="40.485262000" lon="-4.052547000">
        <ele>818.1</ele>
        <time>2020-11-13T10:36:16Z</time>
      </trkpt>
      <trkpt lat="40.485360000" lon="-4.052552000">
        <ele>818.7</ele>
        <time>2020-11-13T10:36:19Z</time>
      </trkpt>
      <trkpt lat="40.485460000" lon="-4.052592000">
        <ele>819.5</ele>
        <time>2020-11-13T10:36:23Z</time>
      </trkpt>
      <trkpt lat="40.485554000" lon="-4.052624000">
        <ele>820.1</ele>
        <time>2020-11-13T10:36:28Z</time>
      </trkpt>
      <trkpt lat="40.485645000" lon="-4.052616000">
        <ele>820.6</ele>
        <time>2020-11-13T10:36:32Z</time>
      </trkpt>
      <trkpt lat="40.485753000" lon="-4.052564000">
        <ele>821.1</ele>
        <time>2020-11-13T10:36:36Z</time>
      </trkpt>
      <trkpt lat="40.485858000" lon="-4.052526000">
        <ele>821.5</ele>
        <time>2020-11-13T10:36:40Z</time>
      </trkpt>
      <trkpt lat="40.485971000" lon="-4.052531000">
        <ele>821.7</ele>
        <time>2020-11-13T10:36:44Z</time>
      </trkpt>
      <trkpt lat="40.486108000" lon="-4.052534000">
        <ele>822.0</ele>
        <time>2020-11-13T10:36:47Z</time>
      </trkpt>
      <trkpt lat="40.486219000" lon="-4.052527000">
        <ele>822.1</ele>
        <time>2020-11-13T10:36:49Z</time>
      </trkpt>
      <trkpt lat="40.486343000" lon="-4.052509000">
        <ele>822.2</ele>
        <time>2020-11-13T10:36:51Z</time>
      </trkpt>
      <trkpt lat="40.486442000" lon="-4.052480000">
        <ele>822.3</ele>
        <time>2020-11-13T10:36:53Z</time>
      </trkpt>
      <trkpt lat="40.486554000" lon="-4.052426000">
        <ele>822.3</ele>
        <time>2020-11-13T10:36:55Z</time>
      </trkpt>
      <trkpt lat="40.486687000" lon="-4.052371000">
        <ele>822.1</ele>
        <time>2020-11-13T10:36:58Z</time>
      </trkpt>
      <trkpt lat="40.486790000" lon="-4.052311000">
        <ele>821.9</ele>
        <time>2020-11-13T10:37:00Z</time>
      </trkpt>
      <trkpt lat="40.486887000" lon="-4.052253000">
        <ele>821.7</ele>
        <time>2020-11-13T10:37:02Z</time>
      </trkpt>
      <trkpt lat="40.486998000" lon="-4.052188000">
        <ele>821.5</ele>
        <time>2020-11-13T10:37:04Z</time>
      </trkpt>
      <trkpt lat="40.487079000" lon="-4.052128000">
        <ele>821.2</ele>
        <time>2020-11-13T10:37:06Z</time>
      </trkpt>
      <trkpt lat="40.487180000" lon="-4.052061000">
        <ele>821.0</ele>
        <time>2020-11-13T10:37:08Z</time>
      </trkpt>
      <trkpt lat="40.487295000" lon="-4.051992000">
        <ele>820.8</ele>
        <time>2020-11-13T10:37:11Z</time>
      </trkpt>
      <trkpt lat="40.487388000" lon="-4.051944000">
        <ele>820.7</ele>
        <time>2020-11-13T10:37:13Z</time>
      </trkpt>
      <trkpt lat="40.487474000" lon="-4.051885000">
        <ele>820.6</ele>
        <time>2020-11-13T10:37:15Z</time>
      </trkpt>
      <trkpt lat="40.487559000" lon="-4.051805000">
        <ele>820.5</ele>
        <time>2020-11-13T10:37:17Z</time>
      </trkpt>
      <trkpt lat="40.487643000" lon="-4.051716000">
        <ele>820.5</ele>
        <time>2020-11-13T10:37:19Z</time>
      </trkpt>
      <trkpt lat="40.487717000" lon="-4.051632000">
        <ele>820.6</ele>
        <time>2020-11-13T10:37:21Z</time>
      </trkpt>
      <trkpt lat="40.487799000" lon="-4.051558000">
        <ele>820.8</ele>
        <time>2020-11-13T10:37:23Z</time>
      </trkpt>
      <trkpt lat="40.487879000" lon="-4.051487000">
        <ele>821.0</ele>
        <time>2020-11-13T10:37:25Z</time>
      </trkpt>
      <trkpt lat="40.487976000" lon="-4.051402000">
        <ele>821.3</ele>
        <time>2020-11-13T10:37:28Z</time>
      </trkpt>
      <trkpt lat="40.488068000" lon="-4.051335000">
        <ele>821.5</ele>
        <time>2020-11-13T10:37:30Z</time>
      </trkpt>
      <trkpt lat="40.488176000" lon="-4.051252000">
        <ele>821.5</ele>
        <time>2020-11-13T10:37:33Z</time>
      </trkpt>
      <trkpt lat="40.488309000" lon="-4.051170000">
        <ele>821.5</ele>
        <time>2020-11-13T10:37:36Z</time>
      </trkpt>
      <trkpt lat="40.488431000" lon="-4.051130000">
        <ele>821.4</ele>
        <time>2020-11-13T10:37:39Z</time>
      </trkpt>
      <trkpt lat="40.488519000" lon="-4.051075000">
        <ele>821.2</ele>
        <time>2020-11-13T10:37:42Z</time>
      </trkpt>
      <trkpt lat="40.488592000" lon="-4.050978000">
        <ele>820.8</ele>
        <time>2020-11-13T10:37:45Z</time>
      </trkpt>
      <trkpt lat="40.488662000" lon="-4.050838000">
        <ele>820.4</ele>
        <time>2020-11-13T10:37:48Z</time>
      </trkpt>
      <trkpt lat="40.488582000" lon="-4.050710000">
        <ele>819.9</ele>
        <time>2020-11-13T10:37:50Z</time>
      </trkpt>
      <trkpt lat="40.488505000" lon="-4.050613000">
        <ele>819.4</ele>
        <time>2020-11-13T10:37:52Z</time>
      </trkpt>
      <trkpt lat="40.488432000" lon="-4.050516000">
        <ele>818.9</ele>
        <time>2020-11-13T10:37:54Z</time>
      </trkpt>
      <trkpt lat="40.488358000" lon="-4.050402000">
        <ele>818.4</ele>
        <time>2020-11-13T10:37:56Z</time>
      </trkpt>
      <trkpt lat="40.488264000" lon="-4.050267000">
        <ele>818.0</ele>
        <time>2020-11-13T10:37:58Z</time>
      </trkpt>
      <trkpt lat="40.488203000" lon="-4.050152000">
        <ele>817.6</ele>
        <time>2020-11-13T10:38:00Z</time>
      </trkpt>
      <trkpt lat="40.488142000" lon="-4.050039000">
        <ele>817.3</ele>
        <time>2020-11-13T10:38:02Z</time>
      </trkpt>
      <trkpt lat="40.488080000" lon="-4.049913000">
        <ele>816.9</ele>
        <time>2020-11-13T10:38:04Z</time>
      </trkpt>
      <trkpt lat="40.488022000" lon="-4.049811000">
        <ele>816.5</ele>
        <time>2020-11-13T10:38:06Z</time>
      </trkpt>
      <trkpt lat="40.487953000" lon="-4.049693000">
        <ele>816.3</ele>
        <time>2020-11-13T10:38:08Z</time>
      </trkpt>
      <trkpt lat="40.487890000" lon="-4.049557000">
        <ele>816.0</ele>
        <time>2020-11-13T10:38:10Z</time>
      </trkpt>
      <trkpt lat="40.487829000" lon="-4.049450000">
        <ele>815.6</ele>
        <time>2020-11-13T10:38:12Z</time>
      </trkpt>
      <trkpt lat="40.487763000" lon="-4.049347000">
        <ele>815.2</ele>
        <time>2020-11-13T10:38:14Z</time>
      </trkpt>
      <trkpt lat="40.487695000" lon="-4.049207000">
        <ele>814.5</ele>
        <time>2020-11-13T10:38:16Z</time>
      </trkpt>
      <trkpt lat="40.487643000" lon="-4.049089000">
        <ele>813.6</ele>
        <time>2020-11-13T10:38:18Z</time>
      </trkpt>
      <trkpt lat="40.487590000" lon="-4.048967000">
        <ele>812.7</ele>
        <time>2020-11-13T10:38:20Z</time>
      </trkpt>
      <trkpt lat="40.487543000" lon="-4.048840000">
        <ele>811.8</ele>
        <time>2020-11-13T10:38:22Z</time>
      </trkpt>
      <trkpt lat="40.487495000" lon="-4.048705000">
        <ele>810.9</ele>
        <time>2020-11-13T10:38:24Z</time>
      </trkpt>
      <trkpt lat="40.487438000" lon="-4.048549000">
        <ele>810.0</ele>
        <time>2020-11-13T10:38:26Z</time>
      </trkpt>
      <trkpt lat="40.487379000" lon="-4.048400000">
        <ele>809.3</ele>
        <time>2020-11-13T10:38:28Z</time>
      </trkpt>
      <trkpt lat="40.487315000" lon="-4.048245000">
        <ele>808.6</ele>
        <time>2020-11-13T10:38:30Z</time>
      </trkpt>
      <trkpt lat="40.487246000" lon="-4.048093000">
        <ele>808.0</ele>
        <time>2020-11-13T10:38:32Z</time>
      </trkpt>
      <trkpt lat="40.487184000" lon="-4.047944000">
        <ele>807.5</ele>
        <time>2020-11-13T10:38:34Z</time>
      </trkpt>
      <trkpt lat="40.487131000" lon="-4.047800000">
        <ele>807.0</ele>
        <time>2020-11-13T10:38:36Z</time>
      </trkpt>
      <trkpt lat="40.487075000" lon="-4.047637000">
        <ele>806.6</ele>
        <time>2020-11-13T10:38:38Z</time>
      </trkpt>
      <trkpt lat="40.487007000" lon="-4.047488000">
        <ele>806.4</ele>
        <time>2020-11-13T10:38:40Z</time>
      </trkpt>
      <trkpt lat="40.486965000" lon="-4.047344000">
        <ele>806.0</ele>
        <time>2020-11-13T10:38:42Z</time>
      </trkpt>
      <trkpt lat="40.486929000" lon="-4.047198000">
        <ele>805.6</ele>
        <time>2020-11-13T10:38:44Z</time>
      </trkpt>
      <trkpt lat="40.486884000" lon="-4.047066000">
        <ele>805.3</ele>
        <time>2020-11-13T10:38:46Z</time>
      </trkpt>
      <trkpt lat="40.486825000" lon="-4.046884000">
        <ele>804.9</ele>
        <time>2020-11-13T10:38:48Z</time>
      </trkpt>
      <trkpt lat="40.486790000" lon="-4.046695000">
        <ele>804.5</ele>
        <time>2020-11-13T10:38:50Z</time>
      </trkpt>
      <trkpt lat="40.486779000" lon="-4.046521000">
        <ele>804.0</ele>
        <time>2020-11-13T10:38:52Z</time>
      </trkpt>
      <trkpt lat="40.486779000" lon="-4.046344000">
        <ele>803.6</ele>
        <time>2020-11-13T10:38:54Z</time>
      </trkpt>
      <trkpt lat="40.486766000" lon="-4.046133000">
        <ele>803.4</ele>
        <time>2020-11-13T10:38:56Z</time>
      </trkpt>
      <trkpt lat="40.486755000" lon="-4.045934000">
        <ele>803.2</ele>
        <time>2020-11-13T10:38:58Z</time>
      </trkpt>
      <trkpt lat="40.486768000" lon="-4.045731000">
        <ele>803.1</ele>
        <time>2020-11-13T10:39:00Z</time>
      </trkpt>
      <trkpt lat="40.486756000" lon="-4.045534000">
        <ele>803.0</ele>
        <time>2020-11-13T10:39:02Z</time>
      </trkpt>
      <trkpt lat="40.486724000" lon="-4.045333000">
        <ele>803.0</ele>
        <time>2020-11-13T10:39:04Z</time>
      </trkpt>
      <trkpt lat="40.486716000" lon="-4.045168000">
        <ele>803.0</ele>
        <time>2020-11-13T10:39:06Z</time>
      </trkpt>
      <trkpt lat="40.486719000" lon="-4.045028000">
        <ele>802.8</ele>
        <time>2020-11-13T10:39:08Z</time>
      </trkpt>
      <trkpt lat="40.486707000" lon="-4.044886000">
        <ele>802.6</ele>
        <time>2020-11-13T10:39:11Z</time>
      </trkpt>
      <trkpt lat="40.486753000" lon="-4.044641000">
        <ele>802.4</ele>
        <time>2020-11-13T10:39:33Z</time>
      </trkpt>
      <trkpt lat="40.486727000" lon="-4.044485000">
        <ele>802.1</ele>
        <time>2020-11-13T10:39:38Z</time>
      </trkpt>
      <trkpt lat="40.486723000" lon="-4.044326000">
        <ele>801.8</ele>
        <time>2020-11-13T10:39:41Z</time>
      </trkpt>
      <trkpt lat="40.486738000" lon="-4.044154000">
        <ele>801.5</ele>
        <time>2020-11-13T10:39:44Z</time>
      </trkpt>
      <trkpt lat="40.486741000" lon="-4.044036000">
        <ele>801.1</ele>
        <time>2020-11-13T10:39:46Z</time>
      </trkpt>
      <trkpt lat="40.486693000" lon="-4.043904000">
        <ele>800.7</ele>
        <time>2020-11-13T10:39:48Z</time>
      </trkpt>
      <trkpt lat="40.486655000" lon="-4.043782000">
        <ele>800.4</ele>
        <time>2020-11-13T10:39:50Z</time>
      </trkpt>
      <trkpt lat="40.486652000" lon="-4.043635000">
        <ele>800.0</ele>
        <time>2020-11-13T10:39:52Z</time>
      </trkpt>
      <trkpt lat="40.486656000" lon="-4.043475000">
        <ele>799.7</ele>
        <time>2020-11-13T10:39:54Z</time>
      </trkpt>
      <trkpt lat="40.486639000" lon="-4.043333000">
        <ele>799.5</ele>
        <time>2020-11-13T10:39:56Z</time>
      </trkpt>
      <trkpt lat="40.486595000" lon="-4.043214000">
        <ele>799.2</ele>
        <time>2020-11-13T10:39:58Z</time>
      </trkpt>
      <trkpt lat="40.486558000" lon="-4.043076000">
        <ele>798.9</ele>
        <time>2020-11-13T10:40:00Z</time>
      </trkpt>
      <trkpt lat="40.486483000" lon="-4.042947000">
        <ele>798.5</ele>
        <time>2020-11-13T10:40:02Z</time>
      </trkpt>
      <trkpt lat="40.486451000" lon="-4.042808000">
        <ele>798.1</ele>
        <time>2020-11-13T10:40:04Z</time>
      </trkpt>
      <trkpt lat="40.486414000" lon="-4.042654000">
        <ele>797.6</ele>
        <time>2020-11-13T10:40:06Z</time>
      </trkpt>
      <trkpt lat="40.486402000" lon="-4.042511000">
        <ele>797.1</ele>
        <time>2020-11-13T10:40:08Z</time>
      </trkpt>
      <trkpt lat="40.486375000" lon="-4.042376000">
        <ele>796.5</ele>
        <time>2020-11-13T10:40:10Z</time>
      </trkpt>
      <trkpt lat="40.486337000" lon="-4.042262000">
        <ele>795.8</ele>
        <time>2020-11-13T10:40:12Z</time>
      </trkpt>
      <trkpt lat="40.486308000" lon="-4.042109000">
        <ele>795.1</ele>
        <time>2020-11-13T10:40:15Z</time>
      </trkpt>
      <trkpt lat="40.486318000" lon="-4.041934000">
        <ele>794.1</ele>
        <time>2020-11-13T10:40:18Z</time>
      </trkpt>
      <trkpt lat="40.486316000" lon="-4.041799000">
        <ele>793.0</ele>
        <time>2020-11-13T10:40:20Z</time>
      </trkpt>
      <trkpt lat="40.486271000" lon="-4.041648000">
        <ele>791.8</ele>
        <time>2020-11-13T10:40:23Z</time>
      </trkpt>
      <trkpt lat="40.486315000" lon="-4.041537000">
        <ele>790.6</ele>
        <time>2020-11-13T10:40:26Z</time>
      </trkpt>
      <trkpt lat="40.486320000" lon="-4.041387000">
        <ele>789.5</ele>
        <time>2020-11-13T10:40:29Z</time>
      </trkpt>
      <trkpt lat="40.486302000" lon="-4.041222000">
        <ele>788.3</ele>
        <time>2020-11-13T10:40:31Z</time>
      </trkpt>
      <trkpt lat="40.486293000" lon="-4.041063000">
        <ele>787.0</ele>
        <time>2020-11-13T10:40:33Z</time>
      </trkpt>
      <trkpt lat="40.486274000" lon="-4.040904000">
        <ele>785.6</ele>
        <time>2020-11-13T10:40:35Z</time>
      </trkpt>
      <trkpt lat="40.486250000" lon="-4.040724000">
        <ele>784.4</ele>
        <time>2020-11-13T10:40:37Z</time>
      </trkpt>
      <trkpt lat="40.486261000" lon="-4.040558000">
        <ele>783.1</ele>
        <time>2020-11-13T10:40:39Z</time>
      </trkpt>
      <trkpt lat="40.486285000" lon="-4.040376000">
        <ele>781.9</ele>
        <time>2020-11-13T10:40:41Z</time>
      </trkpt>
      <trkpt lat="40.486262000" lon="-4.040192000">
        <ele>781.0</ele>
        <time>2020-11-13T10:40:43Z</time>
      </trkpt>
      <trkpt lat="40.486246000" lon="-4.040052000">
        <ele>780.4</ele>
        <time>2020-11-13T10:40:45Z</time>
      </trkpt>
      <trkpt lat="40.486264000" lon="-4.039870000">
        <ele>779.9</ele>
        <time>2020-11-13T10:40:48Z</time>
      </trkpt>
      <trkpt lat="40.486277000" lon="-4.039729000">
        <ele>779.5</ele>
        <time>2020-11-13T10:40:50Z</time>
      </trkpt>
      <trkpt lat="40.486279000" lon="-4.039583000">
        <ele>779.3</ele>
        <time>2020-11-13T10:40:52Z</time>
      </trkpt>
      <trkpt lat="40.486278000" lon="-4.039420000">
        <ele>779.0</ele>
        <time>2020-11-13T10:40:54Z</time>
      </trkpt>
      <trkpt lat="40.486295000" lon="-4.039235000">
        <ele>778.8</ele>
        <time>2020-11-13T10:40:56Z</time>
      </trkpt>
      <trkpt lat="40.486284000" lon="-4.039105000">
        <ele>778.6</ele>
        <time>2020-11-13T10:40:57Z</time>
      </trkpt>
      <trkpt lat="40.486320000" lon="-4.038950000">
        <ele>778.4</ele>
        <time>2020-11-13T10:40:59Z</time>
      </trkpt>
      <trkpt lat="40.486341000" lon="-4.038835000">
        <ele>778.0</ele>
        <time>2020-11-13T10:41:01Z</time>
      </trkpt>
      <trkpt lat="40.486346000" lon="-4.038691000">
        <ele>777.5</ele>
        <time>2020-11-13T10:41:03Z</time>
      </trkpt>
      <trkpt lat="40.486369000" lon="-4.038576000">
        <ele>777.1</ele>
        <time>2020-11-13T10:41:05Z</time>
      </trkpt>
      <trkpt lat="40.486405000" lon="-4.038445000">
        <ele>776.6</ele>
        <time>2020-11-13T10:41:07Z</time>
      </trkpt>
      <trkpt lat="40.486410000" lon="-4.038262000">
        <ele>776.3</ele>
        <time>2020-11-13T10:41:09Z</time>
      </trkpt>
      <trkpt lat="40.486423000" lon="-4.038132000">
        <ele>775.9</ele>
        <time>2020-11-13T10:41:11Z</time>
      </trkpt>
      <trkpt lat="40.486463000" lon="-4.038001000">
        <ele>775.6</ele>
        <time>2020-11-13T10:41:14Z</time>
      </trkpt>
      <trkpt lat="40.486490000" lon="-4.037873000">
        <ele>775.5</ele>
        <time>2020-11-13T10:41:16Z</time>
      </trkpt>
      <trkpt lat="40.486529000" lon="-4.037718000">
        <ele>775.4</ele>
        <time>2020-11-13T10:41:19Z</time>
      </trkpt>
      <trkpt lat="40.486557000" lon="-4.037591000">
        <ele>775.4</ele>
        <time>2020-11-13T10:41:22Z</time>
      </trkpt>
      <trkpt lat="40.486571000" lon="-4.037465000">
        <ele>775.5</ele>
        <time>2020-11-13T10:41:25Z</time>
      </trkpt>
      <trkpt lat="40.486619000" lon="-4.037326000">
        <ele>775.8</ele>
        <time>2020-11-13T10:41:29Z</time>
      </trkpt>
      <trkpt lat="40.486630000" lon="-4.037198000">
        <ele>776.2</ele>
        <time>2020-11-13T10:41:32Z</time>
      </trkpt>
      <trkpt lat="40.486636000" lon="-4.037060000">
        <ele>776.5</ele>
        <time>2020-11-13T10:41:36Z</time>
      </trkpt>
      <trkpt lat="40.486668000" lon="-4.036911000">
        <ele>776.8</ele>
        <time>2020-11-13T10:41:40Z</time>
      </trkpt>
      <trkpt lat="40.486679000" lon="-4.036776000">
        <ele>777.0</ele>
        <time>2020-11-13T10:41:43Z</time>
      </trkpt>
      <trkpt lat="40.486679000" lon="-4.036625000">
        <ele>777.1</ele>
        <time>2020-11-13T10:41:46Z</time>
      </trkpt>
      <trkpt lat="40.486698000" lon="-4.036478000">
        <ele>777.0</ele>
        <time>2020-11-13T10:41:49Z</time>
      </trkpt>
      <trkpt lat="40.486737000" lon="-4.036325000">
        <ele>776.7</ele>
        <time>2020-11-13T10:41:52Z</time>
      </trkpt>
      <trkpt lat="40.486787000" lon="-4.036176000">
        <ele>776.3</ele>
        <time>2020-11-13T10:41:55Z</time>
      </trkpt>
      <trkpt lat="40.486875000" lon="-4.036056000">
        <ele>775.7</ele>
        <time>2020-11-13T10:41:58Z</time>
      </trkpt>
      <trkpt lat="40.486903000" lon="-4.035923000">
        <ele>775.1</ele>
        <time>2020-11-13T10:42:00Z</time>
      </trkpt>
      <trkpt lat="40.486954000" lon="-4.035768000">
        <ele>774.4</ele>
        <time>2020-11-13T10:42:02Z</time>
      </trkpt>
      <trkpt lat="40.486982000" lon="-4.035538000">
        <ele>773.5</ele>
        <time>2020-11-13T10:42:04Z</time>
      </trkpt>
      <trkpt lat="40.487037000" lon="-4.035378000">
        <ele>772.5</ele>
        <time>2020-11-13T10:42:06Z</time>
      </trkpt>
      <trkpt lat="40.487083000" lon="-4.035238000">
        <ele>771.5</ele>
        <time>2020-11-13T10:42:08Z</time>
      </trkpt>
      <trkpt lat="40.487151000" lon="-4.035099000">
        <ele>770.6</ele>
        <time>2020-11-13T10:42:11Z</time>
      </trkpt>
      <trkpt lat="40.487185000" lon="-4.034970000">
        <ele>769.7</ele>
        <time>2020-11-13T10:42:14Z</time>
      </trkpt>
      <trkpt lat="40.487203000" lon="-4.034835000">
        <ele>768.9</ele>
        <time>2020-11-13T10:42:17Z</time>
      </trkpt>
      <trkpt lat="40.487170000" lon="-4.034717000">
        <ele>768.3</ele>
        <time>2020-11-13T10:42:20Z</time>
      </trkpt>
      <trkpt lat="40.487178000" lon="-4.034564000">
        <ele>767.7</ele>
        <time>2020-11-13T10:42:23Z</time>
      </trkpt>
      <trkpt lat="40.487193000" lon="-4.034406000">
        <ele>767.2</ele>
        <time>2020-11-13T10:42:26Z</time>
      </trkpt>
      <trkpt lat="40.487221000" lon="-4.034258000">
        <ele>766.5</ele>
        <time>2020-11-13T10:42:29Z</time>
      </trkpt>
      <trkpt lat="40.487264000" lon="-4.034108000">
        <ele>765.9</ele>
        <time>2020-11-13T10:42:32Z</time>
      </trkpt>
      <trkpt lat="40.487276000" lon="-4.033982000">
        <ele>765.4</ele>
        <time>2020-11-13T10:42:34Z</time>
      </trkpt>
      <trkpt lat="40.487347000" lon="-4.033875000">
        <ele>764.9</ele>
        <time>2020-11-13T10:42:37Z</time>
      </trkpt>
      <trkpt lat="40.487359000" lon="-4.033708000">
        <ele>764.4</ele>
        <time>2020-11-13T10:42:41Z</time>
      </trkpt>
      <trkpt lat="40.487409000" lon="-4.033604000">
        <ele>763.9</ele>
        <time>2020-11-13T10:42:44Z</time>
      </trkpt>
      <trkpt lat="40.487483000" lon="-4.033463000">
        <ele>763.5</ele>
        <time>2020-11-13T10:42:47Z</time>
      </trkpt>
      <trkpt lat="40.487532000" lon="-4.033323000">
        <ele>763.3</ele>
        <time>2020-11-13T10:42:49Z</time>
      </trkpt>
      <trkpt lat="40.487543000" lon="-4.033195000">
        <ele>763.0</ele>
        <time>2020-11-13T10:42:51Z</time>
      </trkpt>
      <trkpt lat="40.487582000" lon="-4.033081000">
        <ele>762.7</ele>
        <time>2020-11-13T10:42:53Z</time>
      </trkpt>
      <trkpt lat="40.487677000" lon="-4.033006000">
        <ele>762.5</ele>
        <time>2020-11-13T10:42:55Z</time>
      </trkpt>
      <trkpt lat="40.487748000" lon="-4.032917000">
        <ele>762.1</ele>
        <time>2020-11-13T10:42:57Z</time>
      </trkpt>
      <trkpt lat="40.487841000" lon="-4.032885000">
        <ele>761.8</ele>
        <time>2020-11-13T10:42:59Z</time>
      </trkpt>
      <trkpt lat="40.487959000" lon="-4.032789000">
        <ele>761.5</ele>
        <time>2020-11-13T10:43:02Z</time>
      </trkpt>
      <trkpt lat="40.488087000" lon="-4.032713000">
        <ele>761.2</ele>
        <time>2020-11-13T10:43:04Z</time>
      </trkpt>
      <trkpt lat="40.488197000" lon="-4.032660000">
        <ele>760.8</ele>
        <time>2020-11-13T10:43:06Z</time>
      </trkpt>
      <trkpt lat="40.488331000" lon="-4.032644000">
        <ele>760.3</ele>
        <time>2020-11-13T10:43:08Z</time>
      </trkpt>
      <trkpt lat="40.488444000" lon="-4.032590000">
        <ele>759.6</ele>
        <time>2020-11-13T10:43:11Z</time>
      </trkpt>
      <trkpt lat="40.488537000" lon="-4.032556000">
        <ele>758.7</ele>
        <time>2020-11-13T10:43:14Z</time>
      </trkpt>
      <trkpt lat="40.488649000" lon="-4.032549000">
        <ele>757.6</ele>
        <time>2020-11-13T10:43:17Z</time>
      </trkpt>
      <trkpt lat="40.488743000" lon="-4.032523000">
        <ele>756.5</ele>
        <time>2020-11-13T10:43:20Z</time>
      </trkpt>
      <trkpt lat="40.488831000" lon="-4.032420000">
        <ele>755.3</ele>
        <time>2020-11-13T10:43:23Z</time>
      </trkpt>
      <trkpt lat="40.488891000" lon="-4.032277000">
        <ele>754.3</ele>
        <time>2020-11-13T10:43:26Z</time>
      </trkpt>
      <trkpt lat="40.488956000" lon="-4.032151000">
        <ele>753.3</ele>
        <time>2020-11-13T10:43:29Z</time>
      </trkpt>
      <trkpt lat="40.488959000" lon="-4.031957000">
        <ele>752.3</ele>
        <time>2020-11-13T10:43:32Z</time>
      </trkpt>
      <trkpt lat="40.488928000" lon="-4.031817000">
        <ele>751.5</ele>
        <time>2020-11-13T10:43:34Z</time>
      </trkpt>
      <trkpt lat="40.488882000" lon="-4.031677000">
        <ele>750.8</ele>
        <time>2020-11-13T10:43:35Z</time>
      </trkpt>
      <trkpt lat="40.488831000" lon="-4.031569000">
        <ele>750.3</ele>
        <time>2020-11-13T10:43:37Z</time>
      </trkpt>
      <trkpt lat="40.488790000" lon="-4.031450000">
        <ele>749.8</ele>
        <time>2020-11-13T10:43:39Z</time>
      </trkpt>
      <trkpt lat="40.488744000" lon="-4.031317000">
        <ele>749.5</ele>
        <time>2020-11-13T10:43:41Z</time>
      </trkpt>
      <trkpt lat="40.488698000" lon="-4.031192000">
        <ele>749.5</ele>
        <time>2020-11-13T10:43:43Z</time>
      </trkpt>
      <trkpt lat="40.488637000" lon="-4.031091000">
        <ele>749.7</ele>
        <time>2020-11-13T10:43:45Z</time>
      </trkpt>
      <trkpt lat="40.488582000" lon="-4.030967000">
        <ele>749.9</ele>
        <time>2020-11-13T10:43:49Z</time>
      </trkpt>
      <trkpt lat="40.488495000" lon="-4.030831000">
        <ele>750.2</ele>
        <time>2020-11-13T10:43:52Z</time>
      </trkpt>
      <trkpt lat="40.488434000" lon="-4.030735000">
        <ele>750.4</ele>
        <time>2020-11-13T10:43:55Z</time>
      </trkpt>
      <trkpt lat="40.488342000" lon="-4.030689000">
        <ele>750.5</ele>
        <time>2020-11-13T10:43:58Z</time>
      </trkpt>
      <trkpt lat="40.488236000" lon="-4.030651000">
        <ele>750.6</ele>
        <time>2020-11-13T10:44:03Z</time>
      </trkpt>
      <trkpt lat="40.488174000" lon="-4.030564000">
        <ele>750.5</ele>
        <time>2020-11-13T10:44:06Z</time>
      </trkpt>
      <trkpt lat="40.488074000" lon="-4.030480000">
        <ele>750.5</ele>
        <time>2020-11-13T10:44:10Z</time>
      </trkpt>
      <trkpt lat="40.487988000" lon="-4.030401000">
        <ele>750.3</ele>
        <time>2020-11-13T10:44:13Z</time>
      </trkpt>
      <trkpt lat="40.487865000" lon="-4.030339000">
        <ele>750.0</ele>
        <time>2020-11-13T10:44:16Z</time>
      </trkpt>
      <trkpt lat="40.487760000" lon="-4.030272000">
        <ele>749.4</ele>
        <time>2020-11-13T10:44:19Z</time>
      </trkpt>
      <trkpt lat="40.487687000" lon="-4.030198000">
        <ele>748.5</ele>
        <time>2020-11-13T10:44:21Z</time>
      </trkpt>
      <trkpt lat="40.487610000" lon="-4.030130000">
        <ele>747.6</ele>
        <time>2020-11-13T10:44:22Z</time>
      </trkpt>
      <trkpt lat="40.487481000" lon="-4.030084000">
        <ele>746.5</ele>
        <time>2020-11-13T10:44:25Z</time>
      </trkpt>
      <trkpt lat="40.487404000" lon="-4.030008000">
        <ele>745.3</ele>
        <time>2020-11-13T10:44:27Z</time>
      </trkpt>
      <trkpt lat="40.487277000" lon="-4.029950000">
        <ele>744.1</ele>
        <time>2020-11-13T10:44:30Z</time>
      </trkpt>
      <trkpt lat="40.487187000" lon="-4.029907000">
        <ele>742.9</ele>
        <time>2020-11-13T10:44:31Z</time>
      </trkpt>
      <trkpt lat="40.487069000" lon="-4.029867000">
        <ele>741.7</ele>
        <time>2020-11-13T10:44:33Z</time>
      </trkpt>
      <trkpt lat="40.486966000" lon="-4.029802000">
        <ele>740.5</ele>
        <time>2020-11-13T10:44:35Z</time>
      </trkpt>
      <trkpt lat="40.486884000" lon="-4.029699000">
        <ele>739.2</ele>
        <time>2020-11-13T10:44:37Z</time>
      </trkpt>
      <trkpt lat="40.486808000" lon="-4.029588000">
        <ele>737.9</ele>
        <time>2020-11-13T10:44:39Z</time>
      </trkpt>
      <trkpt lat="40.486780000" lon="-4.029444000">
        <ele>736.8</ele>
        <time>2020-11-13T10:44:41Z</time>
      </trkpt>
      <trkpt lat="40.486760000" lon="-4.029308000">
        <ele>735.7</ele>
        <time>2020-11-13T10:44:43Z</time>
      </trkpt>
      <trkpt lat="40.486724000" lon="-4.029189000">
        <ele>734.6</ele>
        <time>2020-11-13T10:44:52Z</time>
      </trkpt>
      <trkpt lat="40.486676000" lon="-4.029071000">
        <ele>733.6</ele>
        <time>2020-11-13T10:44:58Z</time>
      </trkpt>
      <trkpt lat="40.486624000" lon="-4.028962000">
        <ele>732.5</ele>
        <time>2020-11-13T10:45:01Z</time>
      </trkpt>
      <trkpt lat="40.486565000" lon="-4.028866000">
        <ele>731.5</ele>
        <time>2020-11-13T10:45:03Z</time>
      </trkpt>
      <trkpt lat="40.486514000" lon="-4.028743000">
        <ele>730.2</ele>
        <time>2020-11-13T10:45:05Z</time>
      </trkpt>
      <trkpt lat="40.486454000" lon="-4.028597000">
        <ele>728.9</ele>
        <time>2020-11-13T10:45:07Z</time>
      </trkpt>
      <trkpt lat="40.486375000" lon="-4.028439000">
        <ele>727.6</ele>
        <time>2020-11-13T10:45:09Z</time>
      </trkpt>
      <trkpt lat="40.486295000" lon="-4.028347000">
        <ele>726.5</ele>
        <time>2020-11-13T10:45:11Z</time>
      </trkpt>
      <trkpt lat="40.486235000" lon="-4.028215000">
        <ele>725.4</ele>
        <time>2020-11-13T10:45:13Z</time>
      </trkpt>
      <trkpt lat="40.486170000" lon="-4.028050000">
        <ele>724.3</ele>
        <time>2020-11-13T10:45:15Z</time>
      </trkpt>
      <trkpt lat="40.486114000" lon="-4.027889000">
        <ele>723.3</ele>
        <time>2020-11-13T10:45:17Z</time>
      </trkpt>
      <trkpt lat="40.486048000" lon="-4.027756000">
        <ele>722.5</ele>
        <time>2020-11-13T10:45:19Z</time>
      </trkpt>
      <trkpt lat="40.486008000" lon="-4.027647000">
        <ele>721.7</ele>
        <time>2020-11-13T10:45:21Z</time>
      </trkpt>
      <trkpt lat="40.485969000" lon="-4.027514000">
        <ele>721.2</ele>
        <time>2020-11-13T10:45:24Z</time>
      </trkpt>
      <trkpt lat="40.485917000" lon="-4.027359000">
        <ele>720.6</ele>
        <time>2020-11-13T10:45:27Z</time>
      </trkpt>
      <trkpt lat="40.485960000" lon="-4.027204000">
        <ele>720.3</ele>
        <time>2020-11-13T10:45:31Z</time>
      </trkpt>
      <trkpt lat="40.486012000" lon="-4.027057000">
        <ele>720.0</ele>
        <time>2020-11-13T10:45:34Z</time>
      </trkpt>
      <trkpt lat="40.486057000" lon="-4.026939000">
        <ele>719.8</ele>
        <time>2020-11-13T10:45:36Z</time>
      </trkpt>
      <trkpt lat="40.486079000" lon="-4.026809000">
        <ele>719.6</ele>
        <time>2020-11-13T10:45:38Z</time>
      </trkpt>
      <trkpt lat="40.486109000" lon="-4.026645000">
        <ele>719.5</ele>
        <time>2020-11-13T10:45:40Z</time>
      </trkpt>
      <trkpt lat="40.486140000" lon="-4.026514000">
        <ele>719.4</ele>
        <time>2020-11-13T10:45:42Z</time>
      </trkpt>
      <trkpt lat="40.486201000" lon="-4.026350000">
        <ele>719.3</ele>
        <time>2020-11-13T10:45:45Z</time>
      </trkpt>
      <trkpt lat="40.486236000" lon="-4.026219000">
        <ele>719.1</ele>
        <time>2020-11-13T10:45:47Z</time>
      </trkpt>
      <trkpt lat="40.486294000" lon="-4.026062000">
        <ele>718.8</ele>
        <time>2020-11-13T10:45:49Z</time>
      </trkpt>
      <trkpt lat="40.486336000" lon="-4.025906000">
        <ele>718.5</ele>
        <time>2020-11-13T10:45:51Z</time>
      </trkpt>
      <trkpt lat="40.486380000" lon="-4.025792000">
        <ele>718.3</ele>
        <time>2020-11-13T10:45:53Z</time>
      </trkpt>
      <trkpt lat="40.486360000" lon="-4.025626000">
        <ele>718.1</ele>
        <time>2020-11-13T10:45:56Z</time>
      </trkpt>
      <trkpt lat="40.486320000" lon="-4.025503000">
        <ele>717.9</ele>
        <time>2020-11-13T10:45:58Z</time>
      </trkpt>
      <trkpt lat="40.486297000" lon="-4.025344000">
        <ele>717.7</ele>
        <time>2020-11-13T10:46:01Z</time>
      </trkpt>
      <trkpt lat="40.486294000" lon="-4.025226000">
        <ele>717.5</ele>
        <time>2020-11-13T10:46:03Z</time>
      </trkpt>
      <trkpt lat="40.486330000" lon="-4.025113000">
        <ele>717.4</ele>
        <time>2020-11-13T10:46:05Z</time>
      </trkpt>
      <trkpt lat="40.486359000" lon="-4.024971000">
        <ele>717.2</ele>
        <time>2020-11-13T10:46:07Z</time>
      </trkpt>
      <trkpt lat="40.486364000" lon="-4.024808000">
        <ele>717.0</ele>
        <time>2020-11-13T10:46:09Z</time>
      </trkpt>
      <trkpt lat="40.486343000" lon="-4.024623000">
        <ele>716.9</ele>
        <time>2020-11-13T10:46:13Z</time>
      </trkpt>
      <trkpt lat="40.486290000" lon="-4.024503000">
        <ele>716.9</ele>
        <time>2020-11-13T10:46:16Z</time>
      </trkpt>
      <trkpt lat="40.486222000" lon="-4.024421000">
        <ele>717.0</ele>
        <time>2020-11-13T10:46:20Z</time>
      </trkpt>
      <trkpt lat="40.486103000" lon="-4.024398000">
        <ele>717.0</ele>
        <time>2020-11-13T10:46:23Z</time>
      </trkpt>
      <trkpt lat="40.485993000" lon="-4.024355000">
        <ele>717.0</ele>
        <time>2020-11-13T10:46:27Z</time>
      </trkpt>
      <trkpt lat="40.485910000" lon="-4.024308000">
        <ele>716.9</ele>
        <time>2020-11-13T10:46:30Z</time>
      </trkpt>
      <trkpt lat="40.485789000" lon="-4.024277000">
        <ele>716.8</ele>
        <time>2020-11-13T10:46:34Z</time>
      </trkpt>
      <trkpt lat="40.485697000" lon="-4.024270000">
        <ele>716.6</ele>
        <time>2020-11-13T10:46:37Z</time>
      </trkpt>
      <trkpt lat="40.485590000" lon="-4.024231000">
        <ele>716.5</ele>
        <time>2020-11-13T10:46:41Z</time>
      </trkpt>
      <trkpt lat="40.485504000" lon="-4.024191000">
        <ele>716.2</ele>
        <time>2020-11-13T10:46:44Z</time>
      </trkpt>
      <trkpt lat="40.485419000" lon="-4.024121000">
        <ele>715.8</ele>
        <time>2020-11-13T10:46:47Z</time>
      </trkpt>
      <trkpt lat="40.485339000" lon="-4.023989000">
        <ele>715.4</ele>
        <time>2020-11-13T10:46:50Z</time>
      </trkpt>
      <trkpt lat="40.485234000" lon="-4.023934000">
        <ele>714.8</ele>
        <time>2020-11-13T10:46:53Z</time>
      </trkpt>
      <trkpt lat="40.485123000" lon="-4.023880000">
        <ele>714.2</ele>
        <time>2020-11-13T10:46:56Z</time>
      </trkpt>
      <trkpt lat="40.485034000" lon="-4.023818000">
        <ele>713.4</ele>
        <time>2020-11-13T10:46:59Z</time>
      </trkpt>
      <trkpt lat="40.484955000" lon="-4.023696000">
        <ele>712.5</ele>
        <time>2020-11-13T10:47:02Z</time>
      </trkpt>
      <trkpt lat="40.484896000" lon="-4.023564000">
        <ele>711.6</ele>
        <time>2020-11-13T10:47:04Z</time>
      </trkpt>
      <trkpt lat="40.484816000" lon="-4.023426000">
        <ele>710.6</ele>
        <time>2020-11-13T10:47:06Z</time>
      </trkpt>
      <trkpt lat="40.484730000" lon="-4.023275000">
        <ele>709.5</ele>
        <time>2020-11-13T10:47:08Z</time>
      </trkpt>
      <trkpt lat="40.484635000" lon="-4.023227000">
        <ele>708.3</ele>
        <time>2020-11-13T10:47:10Z</time>
      </trkpt>
      <trkpt lat="40.484509000" lon="-4.023172000">
        <ele>706.9</ele>
        <time>2020-11-13T10:47:12Z</time>
      </trkpt>
      <trkpt lat="40.484440000" lon="-4.023092000">
        <ele>705.5</ele>
        <time>2020-11-13T10:47:14Z</time>
      </trkpt>
      <trkpt lat="40.484366000" lon="-4.022981000">
        <ele>704.0</ele>
        <time>2020-11-13T10:47:17Z</time>
      </trkpt>
      <trkpt lat="40.484317000" lon="-4.022860000">
        <ele>702.5</ele>
        <time>2020-11-13T10:47:20Z</time>
      </trkpt>
      <trkpt lat="40.484320000" lon="-4.022710000">
        <ele>701.2</ele>
        <time>2020-11-13T10:47:23Z</time>
      </trkpt>
      <trkpt lat="40.484290000" lon="-4.022576000">
        <ele>699.8</ele>
        <time>2020-11-13T10:47:25Z</time>
      </trkpt>
      <trkpt lat="40.484198000" lon="-4.022431000">
        <ele>698.5</ele>
        <time>2020-11-13T10:47:27Z</time>
      </trkpt>
      <trkpt lat="40.484082000" lon="-4.022369000">
        <ele>696.9</ele>
        <time>2020-11-13T10:47:29Z</time>
      </trkpt>
      <trkpt lat="40.483950000" lon="-4.022272000">
        <ele>695.5</ele>
        <time>2020-11-13T10:47:31Z</time>
      </trkpt>
      <trkpt lat="40.483855000" lon="-4.022240000">
        <ele>694.0</ele>
        <time>2020-11-13T10:47:33Z</time>
      </trkpt>
      <trkpt lat="40.483755000" lon="-4.022168000">
        <ele>692.6</ele>
        <time>2020-11-13T10:47:38Z</time>
      </trkpt>
      <trkpt lat="40.483677000" lon="-4.022102000">
        <ele>691.3</ele>
        <time>2020-11-13T10:47:42Z</time>
      </trkpt>
      <trkpt lat="40.483584000" lon="-4.022026000">
        <ele>690.1</ele>
        <time>2020-11-13T10:47:45Z</time>
      </trkpt>
      <trkpt lat="40.483496000" lon="-4.021942000">
        <ele>688.9</ele>
        <time>2020-11-13T10:47:48Z</time>
      </trkpt>
      <trkpt lat="40.483397000" lon="-4.021841000">
        <ele>687.7</ele>
        <time>2020-11-13T10:47:51Z</time>
      </trkpt>
      <trkpt lat="40.483316000" lon="-4.021768000">
        <ele>686.4</ele>
        <time>2020-11-13T10:47:55Z</time>
      </trkpt>
      <trkpt lat="40.483243000" lon="-4.021662000">
        <ele>685.1</ele>
        <time>2020-11-13T10:47:58Z</time>
      </trkpt>
      <trkpt lat="40.483255000" lon="-4.021520000">
        <ele>683.8</ele>
        <time>2020-11-13T10:48:00Z</time>
      </trkpt>
      <trkpt lat="40.483223000" lon="-4.021358000">
        <ele>682.6</ele>
        <time>2020-11-13T10:48:02Z</time>
      </trkpt>
      <trkpt lat="40.483193000" lon="-4.021194000">
        <ele>681.5</ele>
        <time>2020-11-13T10:48:05Z</time>
      </trkpt>
      <trkpt lat="40.483165000" lon="-4.021036000">
        <ele>680.4</ele>
        <time>2020-11-13T10:48:07Z</time>
      </trkpt>
      <trkpt lat="40.483142000" lon="-4.020874000">
        <ele>679.4</ele>
        <time>2020-11-13T10:48:09Z</time>
      </trkpt>
      <trkpt lat="40.483189000" lon="-4.020732000">
        <ele>678.5</ele>
        <time>2020-11-13T10:48:11Z</time>
      </trkpt>
      <trkpt lat="40.483187000" lon="-4.020582000">
        <ele>677.7</ele>
        <time>2020-11-13T10:48:13Z</time>
      </trkpt>
      <trkpt lat="40.483176000" lon="-4.020397000">
        <ele>676.9</ele>
        <time>2020-11-13T10:48:15Z</time>
      </trkpt>
      <trkpt lat="40.483172000" lon="-4.020236000">
        <ele>676.0</ele>
        <time>2020-11-13T10:48:16Z</time>
      </trkpt>
      <trkpt lat="40.483178000" lon="-4.020084000">
        <ele>675.2</ele>
        <time>2020-11-13T10:48:18Z</time>
      </trkpt>
      <trkpt lat="40.483180000" lon="-4.019960000">
        <ele>674.3</ele>
        <time>2020-11-13T10:48:19Z</time>
      </trkpt>
      <trkpt lat="40.483181000" lon="-4.019794000">
        <ele>673.5</ele>
        <time>2020-11-13T10:48:21Z</time>
      </trkpt>
      <trkpt lat="40.483189000" lon="-4.019607000">
        <ele>672.5</ele>
        <time>2020-11-13T10:48:23Z</time>
      </trkpt>
      <trkpt lat="40.483185000" lon="-4.019370000">
        <ele>671.5</ele>
        <time>2020-11-13T10:48:25Z</time>
      </trkpt>
      <trkpt lat="40.483192000" lon="-4.019250000">
        <ele>670.4</ele>
        <time>2020-11-13T10:48:26Z</time>
      </trkpt>
      <trkpt lat="40.483192000" lon="-4.019023000">
        <ele>669.2</ele>
        <time>2020-11-13T10:48:28Z</time>
      </trkpt>
      <trkpt lat="40.483197000" lon="-4.018898000">
        <ele>667.9</ele>
        <time>2020-11-13T10:48:29Z</time>
      </trkpt>
      <trkpt lat="40.483200000" lon="-4.018698000">
        <ele>666.6</ele>
        <time>2020-11-13T10:48:31Z</time>
      </trkpt>
      <trkpt lat="40.483225000" lon="-4.018483000">
        <ele>665.4</ele>
        <time>2020-11-13T10:48:33Z</time>
      </trkpt>
      <trkpt lat="40.483241000" lon="-4.018363000">
        <ele>664.2</ele>
        <time>2020-11-13T10:48:34Z</time>
      </trkpt>
      <trkpt lat="40.483240000" lon="-4.018167000">
        <ele>663.1</ele>
        <time>2020-11-13T10:48:36Z</time>
      </trkpt>
      <trkpt lat="40.483240000" lon="-4.017930000">
        <ele>662.1</ele>
        <time>2020-11-13T10:48:38Z</time>
      </trkpt>
      <trkpt lat="40.483286000" lon="-4.017769000">
        <ele>661.1</ele>
        <time>2020-11-13T10:48:40Z</time>
      </trkpt>
      <trkpt lat="40.483292000" lon="-4.017546000">
        <ele>660.2</ele>
        <time>2020-11-13T10:48:42Z</time>
      </trkpt>
      <trkpt lat="40.483294000" lon="-4.017328000">
        <ele>659.5</ele>
        <time>2020-11-13T10:48:44Z</time>
      </trkpt>
      <trkpt lat="40.483326000" lon="-4.017156000">
        <ele>658.8</ele>
        <time>2020-11-13T10:48:46Z</time>
      </trkpt>
      <trkpt lat="40.483337000" lon="-4.016929000">
        <ele>658.2</ele>
        <time>2020-11-13T10:48:48Z</time>
      </trkpt>
      <trkpt lat="40.483338000" lon="-4.016804000">
        <ele>657.6</ele>
        <time>2020-11-13T10:48:49Z</time>
      </trkpt>
      <trkpt lat="40.483337000" lon="-4.016610000">
        <ele>657.0</ele>
        <time>2020-11-13T10:48:51Z</time>
      </trkpt>
      <trkpt lat="40.483320000" lon="-4.016405000">
        <ele>656.5</ele>
        <time>2020-11-13T10:48:53Z</time>
      </trkpt>
      <trkpt lat="40.483340000" lon="-4.016234000">
        <ele>656.0</ele>
        <time>2020-11-13T10:48:55Z</time>
      </trkpt>
      <trkpt lat="40.483357000" lon="-4.016054000">
        <ele>655.6</ele>
        <time>2020-11-13T10:48:57Z</time>
      </trkpt>
      <trkpt lat="40.483386000" lon="-4.015896000">
        <ele>655.4</ele>
        <time>2020-11-13T10:48:59Z</time>
      </trkpt>
      <trkpt lat="40.483376000" lon="-4.015755000">
        <ele>655.1</ele>
        <time>2020-11-13T10:49:01Z</time>
      </trkpt>
      <trkpt lat="40.483367000" lon="-4.015576000">
        <ele>654.9</ele>
        <time>2020-11-13T10:49:03Z</time>
      </trkpt>
      <trkpt lat="40.483325000" lon="-4.015438000">
        <ele>654.8</ele>
        <time>2020-11-13T10:49:05Z</time>
      </trkpt>
      <trkpt lat="40.483317000" lon="-4.015288000">
        <ele>654.7</ele>
        <time>2020-11-13T10:49:07Z</time>
      </trkpt>
      <trkpt lat="40.483322000" lon="-4.015149000">
        <ele>654.7</ele>
        <time>2020-11-13T10:49:09Z</time>
      </trkpt>
      <trkpt lat="40.483328000" lon="-4.014998000">
        <ele>654.7</ele>
        <time>2020-11-13T10:49:11Z</time>
      </trkpt>
      <trkpt lat="40.483334000" lon="-4.014874000">
        <ele>654.8</ele>
        <time>2020-11-13T10:49:13Z</time>
      </trkpt>
      <trkpt lat="40.483346000" lon="-4.014754000">
        <ele>654.9</ele>
        <time>2020-11-13T10:49:15Z</time>
      </trkpt>
      <trkpt lat="40.483352000" lon="-4.014622000">
        <ele>655.0</ele>
        <time>2020-11-13T10:49:17Z</time>
      </trkpt>
      <trkpt lat="40.483355000" lon="-4.014489000">
        <ele>654.9</ele>
        <time>2020-11-13T10:49:19Z</time>
      </trkpt>
      <trkpt lat="40.483359000" lon="-4.014359000">
        <ele>654.7</ele>
        <time>2020-11-13T10:49:21Z</time>
      </trkpt>
      <trkpt lat="40.483373000" lon="-4.014238000">
        <ele>654.4</ele>
        <time>2020-11-13T10:49:23Z</time>
      </trkpt>
      <trkpt lat="40.483389000" lon="-4.014119000">
        <ele>653.9</ele>
        <time>2020-11-13T10:49:25Z</time>
      </trkpt>
      <trkpt lat="40.483390000" lon="-4.013996000">
        <ele>653.3</ele>
        <time>2020-11-13T10:49:27Z</time>
      </trkpt>
      <trkpt lat="40.483403000" lon="-4.013869000">
        <ele>652.5</ele>
        <time>2020-11-13T10:49:29Z</time>
      </trkpt>
      <trkpt lat="40.483405000" lon="-4.013726000">
        <ele>651.8</ele>
        <time>2020-11-13T10:49:31Z</time>
      </trkpt>
      <trkpt lat="40.483399000" lon="-4.013572000">
        <ele>651.0</ele>
        <time>2020-11-13T10:49:33Z</time>
      </trkpt>
      <trkpt lat="40.483404000" lon="-4.013431000">
        <ele>650.3</ele>
        <time>2020-11-13T10:49:35Z</time>
      </trkpt>
      <trkpt lat="40.483411000" lon="-4.013268000">
        <ele>649.5</ele>
        <time>2020-11-13T10:49:37Z</time>
      </trkpt>
      <trkpt lat="40.483418000" lon="-4.013112000">
        <ele>648.8</ele>
        <time>2020-11-13T10:49:39Z</time>
      </trkpt>
      <trkpt lat="40.483435000" lon="-4.012956000">
        <ele>648.1</ele>
        <time>2020-11-13T10:49:41Z</time>
      </trkpt>
      <trkpt lat="40.483449000" lon="-4.012796000">
        <ele>647.4</ele>
        <time>2020-11-13T10:49:43Z</time>
      </trkpt>
      <trkpt lat="40.483458000" lon="-4.012606000">
        <ele>646.7</ele>
        <time>2020-11-13T10:49:45Z</time>
      </trkpt>
      <trkpt lat="40.483492000" lon="-4.012432000">
        <ele>646.1</ele>
        <time>2020-11-13T10:49:47Z</time>
      </trkpt>
      <trkpt lat="40.483479000" lon="-4.012240000">
        <ele>645.5</ele>
        <time>2020-11-13T10:49:49Z</time>
      </trkpt>
      <trkpt lat="40.483487000" lon="-4.012035000">
        <ele>645.0</ele>
        <time>2020-11-13T10:49:51Z</time>
      </trkpt>
      <trkpt lat="40.483483000" lon="-4.011915000">
        <ele>644.4</ele>
        <time>2020-11-13T10:49:52Z</time>
      </trkpt>
      <trkpt lat="40.483492000" lon="-4.011713000">
        <ele>643.7</ele>
        <time>2020-11-13T10:49:54Z</time>
      </trkpt>
      <trkpt lat="40.483501000" lon="-4.011516000">
        <ele>643.0</ele>
        <time>2020-11-13T10:49:56Z</time>
      </trkpt>
      <trkpt lat="40.483496000" lon="-4.011366000">
        <ele>642.2</ele>
        <time>2020-11-13T10:49:58Z</time>
      </trkpt>
      <trkpt lat="40.483508000" lon="-4.011175000">
        <ele>641.3</ele>
        <time>2020-11-13T10:50:00Z</time>
      </trkpt>
      <trkpt lat="40.483519000" lon="-4.010993000">
        <ele>640.4</ele>
        <time>2020-11-13T10:50:02Z</time>
      </trkpt>
      <trkpt lat="40.483524000" lon="-4.010853000">
        <ele>639.4</ele>
        <time>2020-11-13T10:50:04Z</time>
      </trkpt>
      <trkpt lat="40.483558000" lon="-4.010661000">
        <ele>638.4</ele>
        <time>2020-11-13T10:50:06Z</time>
      </trkpt>
      <trkpt lat="40.483573000" lon="-4.010464000">
        <ele>637.4</ele>
        <time>2020-11-13T10:50:08Z</time>
      </trkpt>
      <trkpt lat="40.483566000" lon="-4.010332000">
        <ele>636.5</ele>
        <time>2020-11-13T10:50:09Z</time>
      </trkpt>
      <trkpt lat="40.483556000" lon="-4.010177000">
        <ele>635.6</ele>
        <time>2020-11-13T10:50:11Z</time>
      </trkpt>
      <trkpt lat="40.483561000" lon="-4.009998000">
        <ele>634.9</ele>
        <time>2020-11-13T10:50:13Z</time>
      </trkpt>
      <trkpt lat="40.483572000" lon="-4.009810000">
        <ele>634.3</ele>
        <time>2020-11-13T10:50:15Z</time>
      </trkpt>
      <trkpt lat="40.483573000" lon="-4.009679000">
        <ele>633.6</ele>
        <time>2020-11-13T10:50:17Z</time>
      </trkpt>
      <trkpt lat="40.483566000" lon="-4.009522000">
        <ele>633.1</ele>
        <time>2020-11-13T10:50:19Z</time>
      </trkpt>
      <trkpt lat="40.483575000" lon="-4.009371000">
        <ele>632.6</ele>
        <time>2020-11-13T10:50:21Z</time>
      </trkpt>
      <trkpt lat="40.483580000" lon="-4.009205000">
        <ele>632.2</ele>
        <time>2020-11-13T10:50:23Z</time>
      </trkpt>
      <trkpt lat="40.483591000" lon="-4.009060000">
        <ele>631.9</ele>
        <time>2020-11-13T10:50:25Z</time>
      </trkpt>
      <trkpt lat="40.483601000" lon="-4.008910000">
        <ele>631.7</ele>
        <time>2020-11-13T10:50:27Z</time>
      </trkpt>
      <trkpt lat="40.483609000" lon="-4.008757000">
        <ele>631.6</ele>
        <time>2020-11-13T10:50:29Z</time>
      </trkpt>
      <trkpt lat="40.483605000" lon="-4.008582000">
        <ele>631.5</ele>
        <time>2020-11-13T10:50:31Z</time>
      </trkpt>
      <trkpt lat="40.483625000" lon="-4.008443000">
        <ele>631.5</ele>
        <time>2020-11-13T10:50:33Z</time>
      </trkpt>
      <trkpt lat="40.483628000" lon="-4.008280000">
        <ele>631.4</ele>
        <time>2020-11-13T10:50:35Z</time>
      </trkpt>
      <trkpt lat="40.483644000" lon="-4.008116000">
        <ele>631.3</ele>
        <time>2020-11-13T10:50:37Z</time>
      </trkpt>
      <trkpt lat="40.483647000" lon="-4.007955000">
        <ele>631.2</ele>
        <time>2020-11-13T10:50:39Z</time>
      </trkpt>
      <trkpt lat="40.483658000" lon="-4.007783000">
        <ele>631.0</ele>
        <time>2020-11-13T10:50:41Z</time>
      </trkpt>
      <trkpt lat="40.483650000" lon="-4.007635000">
        <ele>630.8</ele>
        <time>2020-11-13T10:50:43Z</time>
      </trkpt>
      <trkpt lat="40.483651000" lon="-4.007487000">
        <ele>630.6</ele>
        <time>2020-11-13T10:50:45Z</time>
      </trkpt>
      <trkpt lat="40.483664000" lon="-4.007319000">
        <ele>630.4</ele>
        <time>2020-11-13T10:50:47Z</time>
      </trkpt>
      <trkpt lat="40.483674000" lon="-4.007146000">
        <ele>630.1</ele>
        <time>2020-11-13T10:50:49Z</time>
      </trkpt>
      <trkpt lat="40.483678000" lon="-4.006989000">
        <ele>629.7</ele>
        <time>2020-11-13T10:50:51Z</time>
      </trkpt>
      <trkpt lat="40.483682000" lon="-4.006816000">
        <ele>629.3</ele>
        <time>2020-11-13T10:50:53Z</time>
      </trkpt>
      <trkpt lat="40.483693000" lon="-4.006646000">
        <ele>628.8</ele>
        <time>2020-11-13T10:50:55Z</time>
      </trkpt>
      <trkpt lat="40.483694000" lon="-4.006465000">
        <ele>628.3</ele>
        <time>2020-11-13T10:50:57Z</time>
      </trkpt>
      <trkpt lat="40.483706000" lon="-4.006303000">
        <ele>627.7</ele>
        <time>2020-11-13T10:50:59Z</time>
      </trkpt>
      <trkpt lat="40.483695000" lon="-4.006153000">
        <ele>627.3</ele>
        <time>2020-11-13T10:51:01Z</time>
      </trkpt>
      <trkpt lat="40.483704000" lon="-4.005992000">
        <ele>626.9</ele>
        <time>2020-11-13T10:51:03Z</time>
      </trkpt>
      <trkpt lat="40.483726000" lon="-4.005838000">
        <ele>626.5</ele>
        <time>2020-11-13T10:51:05Z</time>
      </trkpt>
      <trkpt lat="40.483723000" lon="-4.005679000">
        <ele>626.3</ele>
        <time>2020-11-13T10:51:07Z</time>
      </trkpt>
      <trkpt lat="40.483730000" lon="-4.005528000">
        <ele>626.1</ele>
        <time>2020-11-13T10:51:09Z</time>
      </trkpt>
      <trkpt lat="40.483738000" lon="-4.005385000">
        <ele>625.9</ele>
        <time>2020-11-13T10:51:11Z</time>
      </trkpt>
      <trkpt lat="40.483742000" lon="-4.005226000">
        <ele>625.8</ele>
        <time>2020-11-13T10:51:13Z</time>
      </trkpt>
      <trkpt lat="40.483753000" lon="-4.005086000">
        <ele>625.8</ele>
        <time>2020-11-13T10:51:15Z</time>
      </trkpt>
      <trkpt lat="40.483771000" lon="-4.004951000">
        <ele>625.8</ele>
        <time>2020-11-13T10:51:17Z</time>
      </trkpt>
      <trkpt lat="40.483777000" lon="-4.004806000">
        <ele>625.8</ele>
        <time>2020-11-13T10:51:19Z</time>
      </trkpt>
      <trkpt lat="40.483780000" lon="-4.004667000">
        <ele>625.8</ele>
        <time>2020-11-13T10:51:21Z</time>
      </trkpt>
      <trkpt lat="40.483777000" lon="-4.004518000">
        <ele>625.6</ele>
        <time>2020-11-13T10:51:23Z</time>
      </trkpt>
      <trkpt lat="40.483784000" lon="-4.004381000">
        <ele>625.5</ele>
        <time>2020-11-13T10:51:25Z</time>
      </trkpt>
      <trkpt lat="40.483794000" lon="-4.004236000">
        <ele>625.3</ele>
        <time>2020-11-13T10:51:27Z</time>
      </trkpt>
      <trkpt lat="40.483792000" lon="-4.004097000">
        <ele>625.1</ele>
        <time>2020-11-13T10:51:29Z</time>
      </trkpt>
      <trkpt lat="40.483795000" lon="-4.003939000">
        <ele>624.8</ele>
        <time>2020-11-13T10:51:31Z</time>
      </trkpt>
      <trkpt lat="40.483811000" lon="-4.003799000">
        <ele>624.5</ele>
        <time>2020-11-13T10:51:33Z</time>
      </trkpt>
      <trkpt lat="40.483812000" lon="-4.003645000">
        <ele>624.3</ele>
        <time>2020-11-13T10:51:35Z</time>
      </trkpt>
      <trkpt lat="40.483823000" lon="-4.003512000">
        <ele>624.1</ele>
        <time>2020-11-13T10:51:37Z</time>
      </trkpt>
      <trkpt lat="40.483830000" lon="-4.003376000">
        <ele>623.9</ele>
        <time>2020-11-13T10:51:39Z</time>
      </trkpt>
      <trkpt lat="40.483819000" lon="-4.003222000">
        <ele>623.8</ele>
        <time>2020-11-13T10:51:41Z</time>
      </trkpt>
      <trkpt lat="40.483820000" lon="-4.003089000">
        <ele>623.7</ele>
        <time>2020-11-13T10:51:43Z</time>
      </trkpt>
      <trkpt lat="40.483814000" lon="-4.002944000">
        <ele>623.7</ele>
        <time>2020-11-13T10:51:45Z</time>
      </trkpt>
      <trkpt lat="40.483828000" lon="-4.002810000">
        <ele>623.6</ele>
        <time>2020-11-13T10:51:47Z</time>
      </trkpt>
      <trkpt lat="40.483849000" lon="-4.002682000">
        <ele>623.5</ele>
        <time>2020-11-13T10:51:49Z</time>
      </trkpt>
      <trkpt lat="40.483863000" lon="-4.002557000">
        <ele>623.4</ele>
        <time>2020-11-13T10:51:51Z</time>
      </trkpt>
      <trkpt lat="40.483880000" lon="-4.002432000">
        <ele>623.2</ele>
        <time>2020-11-13T10:51:53Z</time>
      </trkpt>
      <trkpt lat="40.483949000" lon="-4.002293000">
        <ele>622.9</ele>
        <time>2020-11-13T10:51:56Z</time>
      </trkpt>
      <trkpt lat="40.483963000" lon="-4.002122000">
        <ele>622.5</ele>
        <time>2020-11-13T10:51:59Z</time>
      </trkpt>
      <trkpt lat="40.483953000" lon="-4.001996000">
        <ele>622.0</ele>
        <time>2020-11-13T10:52:01Z</time>
      </trkpt>
      <trkpt lat="40.483935000" lon="-4.001812000">
        <ele>621.5</ele>
        <time>2020-11-13T10:52:03Z</time>
      </trkpt>
      <trkpt lat="40.483927000" lon="-4.001678000">
        <ele>620.8</ele>
        <time>2020-11-13T10:52:05Z</time>
      </trkpt>
      <trkpt lat="40.483940000" lon="-4.001515000">
        <ele>620.2</ele>
        <time>2020-11-13T10:52:08Z</time>
      </trkpt>
      <trkpt lat="40.483948000" lon="-4.001356000">
        <ele>619.5</ele>
        <time>2020-11-13T10:52:11Z</time>
      </trkpt>
      <trkpt lat="40.483975000" lon="-4.001217000">
        <ele>619.0</ele>
        <time>2020-11-13T10:52:14Z</time>
      </trkpt>
      <trkpt lat="40.483990000" lon="-4.001079000">
        <ele>618.5</ele>
        <time>2020-11-13T10:52:17Z</time>
      </trkpt>
      <trkpt lat="40.483996000" lon="-4.000946000">
        <ele>618.1</ele>
        <time>2020-11-13T10:52:19Z</time>
      </trkpt>
      <trkpt lat="40.484017000" lon="-4.000758000">
        <ele>617.9</ele>
        <time>2020-11-13T10:52:22Z</time>
      </trkpt>
      <trkpt lat="40.484018000" lon="-4.000612000">
        <ele>617.9</ele>
        <time>2020-11-13T10:52:24Z</time>
      </trkpt>
      <trkpt lat="40.484046000" lon="-4.000462000">
        <ele>618.1</ele>
        <time>2020-11-13T10:52:27Z</time>
      </trkpt>
      <trkpt lat="40.484049000" lon="-4.000296000">
        <ele>618.5</ele>
        <time>2020-11-13T10:52:30Z</time>
      </trkpt>
      <trkpt lat="40.484050000" lon="-4.000143000">
        <ele>619.2</ele>
        <time>2020-11-13T10:52:32Z</time>
      </trkpt>
      <trkpt lat="40.484059000" lon="-4.000021000">
        <ele>619.4</ele>
        <time>2020-11-13T10:52:35Z</time>
      </trkpt>
      <trkpt lat="40.484058000" lon="-3.999895000">
        <ele>619.7</ele>
        <time>2020-11-13T10:52:37Z</time>
      </trkpt>
      <trkpt lat="40.484108000" lon="-3.999766000">
        <ele>620.0</ele>
        <time>2020-11-13T10:52:40Z</time>
      </trkpt>
      <trkpt lat="40.484157000" lon="-3.999643000">
        <ele>620.4</ele>
        <time>2020-11-13T10:52:45Z</time>
      </trkpt>
      <trkpt lat="40.484173000" lon="-3.999550000">
        <ele>621.0</ele>
        <time>2020-11-13T10:52:58Z</time>
      </trkpt>
      <trkpt lat="40.484110000" lon="-3.999467000">
        <ele>627.2</ele>
        <time>2020-11-13T10:53:21Z</time>
      </trkpt>
      <trkpt lat="40.484103000" lon="-3.999438000">
        <ele>627.4</ele>
        <time>2020-11-13T10:53:22Z</time>
      </trkpt>
      <trkpt lat="40.484133000" lon="-3.999296000">
        <ele>627.8</ele>
        <time>2020-11-13T10:53:27Z</time>
      </trkpt>
      <trkpt lat="40.484182000" lon="-3.999189000">
        <ele>628.1</ele>
        <time>2020-11-13T10:53:32Z</time>
      </trkpt>
      <trkpt lat="40.484210000" lon="-3.999054000">
        <ele>628.4</ele>
        <time>2020-11-13T10:53:38Z</time>
      </trkpt>
      <trkpt lat="40.484214000" lon="-3.998928000">
        <ele>628.7</ele>
        <time>2020-11-13T10:53:42Z</time>
      </trkpt>
      <trkpt lat="40.484233000" lon="-3.998793000">
        <ele>629.5</ele>
        <time>2020-11-13T10:53:47Z</time>
      </trkpt>
      <trkpt lat="40.484241000" lon="-3.998655000">
        <ele>630.5</ele>
        <time>2020-11-13T10:53:53Z</time>
      </trkpt>
      <trkpt lat="40.484241000" lon="-3.998523000">
        <ele>631.3</ele>
        <time>2020-11-13T10:53:58Z</time>
      </trkpt>
      <trkpt lat="40.484239000" lon="-3.998395000">
        <ele>632.0</ele>
        <time>2020-11-13T10:54:03Z</time>
      </trkpt>
      <trkpt lat="40.484244000" lon="-3.998274000">
        <ele>632.8</ele>
        <time>2020-11-13T10:54:08Z</time>
      </trkpt>
      <trkpt lat="40.484239000" lon="-3.998139000">
        <ele>633.7</ele>
        <time>2020-11-13T10:54:13Z</time>
      </trkpt>
      <trkpt lat="40.484238000" lon="-3.998011000">
        <ele>634.7</ele>
        <time>2020-11-13T10:54:18Z</time>
      </trkpt>
      <trkpt lat="40.484233000" lon="-3.997868000">
        <ele>635.8</ele>
        <time>2020-11-13T10:54:23Z</time>
      </trkpt>
      <trkpt lat="40.484230000" lon="-3.997743000">
        <ele>636.9</ele>
        <time>2020-11-13T10:54:28Z</time>
      </trkpt>
      <trkpt lat="40.484232000" lon="-3.997623000">
        <ele>638.0</ele>
        <time>2020-11-13T10:54:33Z</time>
      </trkpt>
      <trkpt lat="40.484234000" lon="-3.997492000">
        <ele>639.1</ele>
        <time>2020-11-13T10:54:38Z</time>
      </trkpt>
      <trkpt lat="40.484232000" lon="-3.997363000">
        <ele>640.0</ele>
        <time>2020-11-13T10:54:43Z</time>
      </trkpt>
      <trkpt lat="40.484238000" lon="-3.997233000">
        <ele>640.7</ele>
        <time>2020-11-13T10:54:49Z</time>
      </trkpt>
      <trkpt lat="40.484258000" lon="-3.997106000">
        <ele>641.3</ele>
        <time>2020-11-13T10:54:54Z</time>
      </trkpt>
      <trkpt lat="40.484273000" lon="-3.996973000">
        <ele>641.9</ele>
        <time>2020-11-13T10:54:59Z</time>
      </trkpt>
      <trkpt lat="40.484280000" lon="-3.996850000">
        <ele>642.4</ele>
        <time>2020-11-13T10:55:03Z</time>
      </trkpt>
      <trkpt lat="40.484282000" lon="-3.996731000">
        <ele>642.7</ele>
        <time>2020-11-13T10:55:07Z</time>
      </trkpt>
      <trkpt lat="40.484279000" lon="-3.996593000">
        <ele>643.1</ele>
        <time>2020-11-13T10:55:12Z</time>
      </trkpt>
      <trkpt lat="40.484286000" lon="-3.996462000">
        <ele>643.4</ele>
        <time>2020-11-13T10:55:16Z</time>
      </trkpt>
      <trkpt lat="40.484307000" lon="-3.996345000">
        <ele>643.6</ele>
        <time>2020-11-13T10:55:20Z</time>
      </trkpt>
      <trkpt lat="40.484308000" lon="-3.996206000">
        <ele>644.0</ele>
        <time>2020-11-13T10:55:24Z</time>
      </trkpt>
      <trkpt lat="40.484311000" lon="-3.996058000">
        <ele>644.3</ele>
        <time>2020-11-13T10:55:29Z</time>
      </trkpt>
      <trkpt lat="40.484308000" lon="-3.995926000">
        <ele>644.5</ele>
        <time>2020-11-13T10:55:33Z</time>
      </trkpt>
      <trkpt lat="40.484314000" lon="-3.995781000">
        <ele>644.9</ele>
        <time>2020-11-13T10:55:38Z</time>
      </trkpt>
      <trkpt lat="40.484322000" lon="-3.995656000">
        <ele>645.4</ele>
        <time>2020-11-13T10:55:42Z</time>
      </trkpt>
      <trkpt lat="40.484314000" lon="-3.995513000">
        <ele>645.6</ele>
        <time>2020-11-13T10:55:47Z</time>
      </trkpt>
      <trkpt lat="40.484300000" lon="-3.995390000">
        <ele>645.9</ele>
        <time>2020-11-13T10:55:51Z</time>
      </trkpt>
      <trkpt lat="40.484285000" lon="-3.995244000">
        <ele>646.2</ele>
        <time>2020-11-13T10:55:56Z</time>
      </trkpt>
      <trkpt lat="40.484286000" lon="-3.995122000">
        <ele>646.3</ele>
        <time>2020-11-13T10:56:00Z</time>
      </trkpt>
      <trkpt lat="40.484303000" lon="-3.994970000">
        <ele>646.3</ele>
        <time>2020-11-13T10:56:04Z</time>
      </trkpt>
      <trkpt lat="40.484308000" lon="-3.994829000">
        <ele>646.2</ele>
        <time>2020-11-13T10:56:07Z</time>
      </trkpt>
      <trkpt lat="40.484291000" lon="-3.994650000">
        <ele>645.9</ele>
        <time>2020-11-13T10:56:10Z</time>
      </trkpt>
      <trkpt lat="40.484286000" lon="-3.994521000">
        <ele>645.6</ele>
        <time>2020-11-13T10:56:12Z</time>
      </trkpt>
      <trkpt lat="40.484292000" lon="-3.994374000">
        <ele>645.3</ele>
        <time>2020-11-13T10:56:14Z</time>
      </trkpt>
      <trkpt lat="40.484299000" lon="-3.994232000">
        <ele>644.9</ele>
        <time>2020-11-13T10:56:16Z</time>
      </trkpt>
      <trkpt lat="40.484304000" lon="-3.994112000">
        <ele>644.5</ele>
        <time>2020-11-13T10:56:18Z</time>
      </trkpt>
      <trkpt lat="40.484308000" lon="-3.993968000">
        <ele>644.4</ele>
        <time>2020-11-13T10:56:20Z</time>
      </trkpt>
      <trkpt lat="40.484319000" lon="-3.993814000">
        <ele>644.2</ele>
        <time>2020-11-13T10:56:22Z</time>
      </trkpt>
      <trkpt lat="40.484321000" lon="-3.993645000">
        <ele>644.0</ele>
        <time>2020-11-13T10:56:24Z</time>
      </trkpt>
      <trkpt lat="40.484324000" lon="-3.993484000">
        <ele>643.9</ele>
        <time>2020-11-13T10:56:26Z</time>
      </trkpt>
      <trkpt lat="40.484330000" lon="-3.993345000">
        <ele>643.8</ele>
        <time>2020-11-13T10:56:28Z</time>
      </trkpt>
      <trkpt lat="40.484343000" lon="-3.993215000">
        <ele>643.7</ele>
        <time>2020-11-13T10:56:30Z</time>
      </trkpt>
      <trkpt lat="40.484349000" lon="-3.993076000">
        <ele>643.6</ele>
        <time>2020-11-13T10:56:32Z</time>
      </trkpt>
      <trkpt lat="40.484359000" lon="-3.992931000">
        <ele>643.5</ele>
        <time>2020-11-13T10:56:34Z</time>
      </trkpt>
      <trkpt lat="40.484359000" lon="-3.992759000">
        <ele>643.3</ele>
        <time>2020-11-13T10:56:37Z</time>
      </trkpt>
      <trkpt lat="40.484372000" lon="-3.992580000">
        <ele>643.0</ele>
        <time>2020-11-13T10:56:40Z</time>
      </trkpt>
      <trkpt lat="40.484380000" lon="-3.992460000">
        <ele>642.7</ele>
        <time>2020-11-13T10:56:42Z</time>
      </trkpt>
      <trkpt lat="40.484389000" lon="-3.992336000">
        <ele>642.3</ele>
        <time>2020-11-13T10:56:44Z</time>
      </trkpt>
      <trkpt lat="40.484396000" lon="-3.992196000">
        <ele>641.8</ele>
        <time>2020-11-13T10:56:46Z</time>
      </trkpt>
      <trkpt lat="40.484406000" lon="-3.992040000">
        <ele>641.5</ele>
        <time>2020-11-13T10:56:48Z</time>
      </trkpt>
      <trkpt lat="40.484408000" lon="-3.991875000">
        <ele>641.2</ele>
        <time>2020-11-13T10:56:50Z</time>
      </trkpt>
      <trkpt lat="40.484395000" lon="-3.991686000">
        <ele>641.0</ele>
        <time>2020-11-13T10:56:52Z</time>
      </trkpt>
      <trkpt lat="40.484364000" lon="-3.991507000">
        <ele>640.9</ele>
        <time>2020-11-13T10:56:54Z</time>
      </trkpt>
      <trkpt lat="40.484321000" lon="-3.991306000">
        <ele>641.0</ele>
        <time>2020-11-13T10:56:56Z</time>
      </trkpt>
      <trkpt lat="40.484291000" lon="-3.991126000">
        <ele>641.2</ele>
        <time>2020-11-13T10:56:58Z</time>
      </trkpt>
      <trkpt lat="40.484296000" lon="-3.990958000">
        <ele>641.5</ele>
        <time>2020-11-13T10:57:00Z</time>
      </trkpt>
      <trkpt lat="40.484306000" lon="-3.990798000">
        <ele>642.1</ele>
        <time>2020-11-13T10:57:02Z</time>
      </trkpt>
      <trkpt lat="40.484315000" lon="-3.990672000">
        <ele>642.7</ele>
        <time>2020-11-13T10:57:04Z</time>
      </trkpt>
      <trkpt lat="40.484322000" lon="-3.990527000">
        <ele>643.5</ele>
        <time>2020-11-13T10:57:08Z</time>
      </trkpt>
      <trkpt lat="40.484298000" lon="-3.990385000">
        <ele>644.5</ele>
        <time>2020-11-13T10:57:12Z</time>
      </trkpt>
      <trkpt lat="40.484296000" lon="-3.990260000">
        <ele>645.5</ele>
        <time>2020-11-13T10:57:17Z</time>
      </trkpt>
      <trkpt lat="40.484310000" lon="-3.990135000">
        <ele>646.3</ele>
        <time>2020-11-13T10:57:23Z</time>
      </trkpt>
      <trkpt lat="40.484317000" lon="-3.989995000">
        <ele>647.0</ele>
        <time>2020-11-13T10:57:28Z</time>
      </trkpt>
      <trkpt lat="40.484320000" lon="-3.989856000">
        <ele>647.7</ele>
        <time>2020-11-13T10:57:33Z</time>
      </trkpt>
      <trkpt lat="40.484326000" lon="-3.989721000">
        <ele>648.4</ele>
        <time>2020-11-13T10:57:38Z</time>
      </trkpt>
      <trkpt lat="40.484335000" lon="-3.989589000">
        <ele>649.1</ele>
        <time>2020-11-13T10:57:43Z</time>
      </trkpt>
      <trkpt lat="40.484342000" lon="-3.989465000">
        <ele>649.7</ele>
        <time>2020-11-13T10:57:48Z</time>
      </trkpt>
      <trkpt lat="40.484347000" lon="-3.989335000">
        <ele>650.4</ele>
        <time>2020-11-13T10:57:53Z</time>
      </trkpt>
      <trkpt lat="40.484344000" lon="-3.989191000">
        <ele>650.9</ele>
        <time>2020-11-13T10:57:57Z</time>
      </trkpt>
      <trkpt lat="40.484352000" lon="-3.989049000">
        <ele>651.4</ele>
        <time>2020-11-13T10:58:01Z</time>
      </trkpt>
      <trkpt lat="40.484360000" lon="-3.988908000">
        <ele>651.6</ele>
        <time>2020-11-13T10:58:05Z</time>
      </trkpt>
      <trkpt lat="40.484362000" lon="-3.988765000">
        <ele>651.9</ele>
        <time>2020-11-13T10:58:09Z</time>
      </trkpt>
      <trkpt lat="40.484370000" lon="-3.988632000">
        <ele>652.1</ele>
        <time>2020-11-13T10:58:13Z</time>
      </trkpt>
      <trkpt lat="40.484384000" lon="-3.988496000">
        <ele>652.3</ele>
        <time>2020-11-13T10:58:17Z</time>
      </trkpt>
      <trkpt lat="40.484397000" lon="-3.988358000">
        <ele>652.5</ele>
        <time>2020-11-13T10:58:21Z</time>
      </trkpt>
      <trkpt lat="40.484380000" lon="-3.988233000">
        <ele>652.7</ele>
        <time>2020-11-13T10:58:26Z</time>
      </trkpt>
      <trkpt lat="40.484376000" lon="-3.988237000">
        <ele>652.8</ele>
        <time>2020-11-13T10:58:36Z</time>
      </trkpt>
      <trkpt lat="40.484399000" lon="-3.988129000">
        <ele>653.8</ele>
        <time>2020-11-13T10:59:10Z</time>
      </trkpt>
      <trkpt lat="40.484398000" lon="-3.988103000">
        <ele>653.7</ele>
        <time>2020-11-13T10:59:11Z</time>
      </trkpt>
      <trkpt lat="40.484392000" lon="-3.987955000">
        <ele>653.5</ele>
        <time>2020-11-13T10:59:15Z</time>
      </trkpt>
      <trkpt lat="40.484401000" lon="-3.987809000">
        <ele>653.3</ele>
        <time>2020-11-13T10:59:19Z</time>
      </trkpt>
      <trkpt lat="40.484408000" lon="-3.987662000">
        <ele>653.3</ele>
        <time>2020-11-13T10:59:23Z</time>
      </trkpt>
      <trkpt lat="40.484425000" lon="-3.987528000">
        <ele>653.3</ele>
        <time>2020-11-13T10:59:27Z</time>
      </trkpt>
      <trkpt lat="40.484426000" lon="-3.987394000">
        <ele>653.3</ele>
        <time>2020-11-13T10:59:31Z</time>
      </trkpt>
      <trkpt lat="40.484430000" lon="-3.987276000">
        <ele>653.3</ele>
        <time>2020-11-13T10:59:34Z</time>
      </trkpt>
      <trkpt lat="40.484430000" lon="-3.987149000">
        <ele>653.4</ele>
        <time>2020-11-13T10:59:37Z</time>
      </trkpt>
      <trkpt lat="40.484433000" lon="-3.987021000">
        <ele>653.5</ele>
        <time>2020-11-13T10:59:40Z</time>
      </trkpt>
      <trkpt lat="40.484434000" lon="-3.986884000">
        <ele>653.6</ele>
        <time>2020-11-13T10:59:43Z</time>
      </trkpt>
      <trkpt lat="40.484443000" lon="-3.986746000">
        <ele>653.9</ele>
        <time>2020-11-13T10:59:46Z</time>
      </trkpt>
      <trkpt lat="40.484456000" lon="-3.986610000">
        <ele>654.0</ele>
        <time>2020-11-13T10:59:49Z</time>
      </trkpt>
      <trkpt lat="40.484467000" lon="-3.986483000">
        <ele>654.2</ele>
        <time>2020-11-13T10:59:52Z</time>
      </trkpt>
      <trkpt lat="40.484472000" lon="-3.986344000">
        <ele>654.5</ele>
        <time>2020-11-13T10:59:55Z</time>
      </trkpt>
      <trkpt lat="40.484477000" lon="-3.986192000">
        <ele>654.7</ele>
        <time>2020-11-13T10:59:58Z</time>
      </trkpt>
      <trkpt lat="40.484495000" lon="-3.986128000">
        <ele>655.0</ele>
        <time>2020-11-13T11:00:09Z</time>
      </trkpt>
      <trkpt lat="40.484503000" lon="-3.986008000">
        <ele>656.8</ele>
        <time>2020-11-13T11:00:45Z</time>
      </trkpt>
      <trkpt lat="40.484491000" lon="-3.985920000">
        <ele>656.7</ele>
        <time>2020-11-13T11:00:47Z</time>
      </trkpt>
      <trkpt lat="40.484483000" lon="-3.985769000">
        <ele>656.5</ele>
        <time>2020-11-13T11:00:50Z</time>
      </trkpt>
      <trkpt lat="40.484492000" lon="-3.985610000">
        <ele>656.3</ele>
        <time>2020-11-13T11:00:53Z</time>
      </trkpt>
      <trkpt lat="40.484500000" lon="-3.985436000">
        <ele>656.2</ele>
        <time>2020-11-13T11:00:56Z</time>
      </trkpt>
      <trkpt lat="40.484503000" lon="-3.985317000">
        <ele>656.2</ele>
        <time>2020-11-13T11:00:58Z</time>
      </trkpt>
      <trkpt lat="40.484512000" lon="-3.985195000">
        <ele>656.1</ele>
        <time>2020-11-13T11:01:00Z</time>
      </trkpt>
      <trkpt lat="40.484526000" lon="-3.985022000">
        <ele>656.0</ele>
        <time>2020-11-13T11:01:03Z</time>
      </trkpt>
      <trkpt lat="40.484557000" lon="-3.984893000">
        <ele>656.0</ele>
        <time>2020-11-13T11:01:06Z</time>
      </trkpt>
      <trkpt lat="40.484572000" lon="-3.984727000">
        <ele>655.9</ele>
        <time>2020-11-13T11:01:09Z</time>
      </trkpt>
      <trkpt lat="40.484586000" lon="-3.984598000">
        <ele>655.8</ele>
        <time>2020-11-13T11:01:11Z</time>
      </trkpt>
      <trkpt lat="40.484581000" lon="-3.984443000">
        <ele>655.8</ele>
        <time>2020-11-13T11:01:14Z</time>
      </trkpt>
      <trkpt lat="40.484573000" lon="-3.984324000">
        <ele>655.8</ele>
        <time>2020-11-13T11:01:16Z</time>
      </trkpt>
      <trkpt lat="40.484570000" lon="-3.984185000">
        <ele>655.9</ele>
        <time>2020-11-13T11:01:18Z</time>
      </trkpt>
      <trkpt lat="40.484574000" lon="-3.984056000">
        <ele>656.0</ele>
        <time>2020-11-13T11:01:20Z</time>
      </trkpt>
      <trkpt lat="40.484583000" lon="-3.983895000">
        <ele>656.1</ele>
        <time>2020-11-13T11:01:23Z</time>
      </trkpt>
      <trkpt lat="40.484616000" lon="-3.983752000">
        <ele>656.1</ele>
        <time>2020-11-13T11:01:26Z</time>
      </trkpt>
      <trkpt lat="40.484623000" lon="-3.983600000">
        <ele>656.1</ele>
        <time>2020-11-13T11:01:29Z</time>
      </trkpt>
      <trkpt lat="40.484617000" lon="-3.983457000">
        <ele>656.1</ele>
        <time>2020-11-13T11:01:32Z</time>
      </trkpt>
      <trkpt lat="40.484609000" lon="-3.983327000">
        <ele>656.0</ele>
        <time>2020-11-13T11:01:36Z</time>
      </trkpt>
      <trkpt lat="40.484610000" lon="-3.983454000">
        <ele>656.0</ele>
        <time>2020-11-13T11:01:45Z</time>
      </trkpt>
      <trkpt lat="40.484606000" lon="-3.983606000">
        <ele>656.0</ele>
        <time>2020-11-13T11:01:48Z</time>
      </trkpt>
      <trkpt lat="40.484583000" lon="-3.983723000">
        <ele>656.1</ele>
        <time>2020-11-13T11:01:50Z</time>
      </trkpt>
      <trkpt lat="40.484590000" lon="-3.983848000">
        <ele>656.2</ele>
        <time>2020-11-13T11:01:52Z</time>
      </trkpt>
      <trkpt lat="40.484595000" lon="-3.983986000">
        <ele>656.2</ele>
        <time>2020-11-13T11:01:54Z</time>
      </trkpt>
      <trkpt lat="40.484581000" lon="-3.984140000">
        <ele>656.2</ele>
        <time>2020-11-13T11:01:57Z</time>
      </trkpt>
      <trkpt lat="40.484600000" lon="-3.984268000">
        <ele>656.2</ele>
        <time>2020-11-13T11:01:59Z</time>
      </trkpt>
      <trkpt lat="40.484647000" lon="-3.984370000">
        <ele>656.2</ele>
        <time>2020-11-13T11:02:01Z</time>
      </trkpt>
      <trkpt lat="40.484683000" lon="-3.984480000">
        <ele>656.2</ele>
        <time>2020-11-13T11:02:03Z</time>
      </trkpt>
      <trkpt lat="40.484701000" lon="-3.984617000">
        <ele>656.2</ele>
        <time>2020-11-13T11:02:05Z</time>
      </trkpt>
      <trkpt lat="40.484733000" lon="-3.984752000">
        <ele>656.2</ele>
        <time>2020-11-13T11:02:07Z</time>
      </trkpt>
      <trkpt lat="40.484775000" lon="-3.984876000">
        <ele>656.2</ele>
        <time>2020-11-13T11:02:09Z</time>
      </trkpt>
      <trkpt lat="40.484829000" lon="-3.985005000">
        <ele>656.2</ele>
        <time>2020-11-13T11:02:11Z</time>
      </trkpt>
      <trkpt lat="40.484917000" lon="-3.985067000">
        <ele>656.1</ele>
        <time>2020-11-13T11:02:13Z</time>
      </trkpt>
      <trkpt lat="40.485033000" lon="-3.985156000">
        <ele>656.0</ele>
        <time>2020-11-13T11:02:16Z</time>
      </trkpt>
      <trkpt lat="40.485126000" lon="-3.985214000">
        <ele>655.9</ele>
        <time>2020-11-13T11:02:18Z</time>
      </trkpt>
      <trkpt lat="40.485208000" lon="-3.985365000">
        <ele>655.8</ele>
        <time>2020-11-13T11:02:21Z</time>
      </trkpt>
      <trkpt lat="40.485334000" lon="-3.985417000">
        <ele>655.7</ele>
        <time>2020-11-13T11:02:23Z</time>
      </trkpt>
      <trkpt lat="40.485439000" lon="-3.985520000">
        <ele>655.5</ele>
        <time>2020-11-13T11:02:26Z</time>
      </trkpt>
      <trkpt lat="40.485543000" lon="-3.985590000">
        <ele>655.4</ele>
        <time>2020-11-13T11:02:29Z</time>
      </trkpt>
      <trkpt lat="40.485648000" lon="-3.985676000">
        <ele>655.2</ele>
        <time>2020-11-13T11:02:32Z</time>
      </trkpt>
      <trkpt lat="40.485732000" lon="-3.985745000">
        <ele>655.0</ele>
        <time>2020-11-13T11:02:34Z</time>
      </trkpt>
      <trkpt lat="40.485852000" lon="-3.985797000">
        <ele>654.7</ele>
        <time>2020-11-13T11:02:36Z</time>
      </trkpt>
      <trkpt lat="40.485945000" lon="-3.985855000">
        <ele>654.5</ele>
        <time>2020-11-13T11:02:38Z</time>
      </trkpt>
      <trkpt lat="40.486041000" lon="-3.985936000">
        <ele>654.3</ele>
        <time>2020-11-13T11:02:40Z</time>
      </trkpt>
      <trkpt lat="40.486119000" lon="-3.986010000">
        <ele>654.1</ele>
        <time>2020-11-13T11:02:42Z</time>
      </trkpt>
      <trkpt lat="40.486203000" lon="-3.986092000">
        <ele>654.0</ele>
        <time>2020-11-13T11:02:44Z</time>
      </trkpt>
      <trkpt lat="40.486292000" lon="-3.986163000">
        <ele>653.9</ele>
        <time>2020-11-13T11:02:46Z</time>
      </trkpt>
      <trkpt lat="40.486386000" lon="-3.986225000">
        <ele>653.8</ele>
        <time>2020-11-13T11:02:48Z</time>
      </trkpt>
      <trkpt lat="40.486466000" lon="-3.986305000">
        <ele>653.7</ele>
        <time>2020-11-13T11:02:50Z</time>
      </trkpt>
      <trkpt lat="40.486584000" lon="-3.986392000">
        <ele>653.6</ele>
        <time>2020-11-13T11:02:53Z</time>
      </trkpt>
      <trkpt lat="40.486662000" lon="-3.986459000">
        <ele>653.6</ele>
        <time>2020-11-13T11:02:55Z</time>
      </trkpt>
      <trkpt lat="40.486750000" lon="-3.986533000">
        <ele>653.6</ele>
        <time>2020-11-13T11:02:57Z</time>
      </trkpt>
      <trkpt lat="40.486836000" lon="-3.986605000">
        <ele>653.7</ele>
        <time>2020-11-13T11:02:59Z</time>
      </trkpt>
      <trkpt lat="40.486923000" lon="-3.986683000">
        <ele>653.8</ele>
        <time>2020-11-13T11:03:01Z</time>
      </trkpt>
      <trkpt lat="40.487040000" lon="-3.986716000">
        <ele>653.8</ele>
        <time>2020-11-13T11:03:03Z</time>
      </trkpt>
      <trkpt lat="40.487109000" lon="-3.986804000">
        <ele>653.8</ele>
        <time>2020-11-13T11:03:05Z</time>
      </trkpt>
      <trkpt lat="40.487194000" lon="-3.986847000">
        <ele>653.7</ele>
        <time>2020-11-13T11:03:07Z</time>
      </trkpt>
      <trkpt lat="40.487286000" lon="-3.986878000">
        <ele>653.6</ele>
        <time>2020-11-13T11:03:09Z</time>
      </trkpt>
      <trkpt lat="40.487389000" lon="-3.986930000">
        <ele>653.5</ele>
        <time>2020-11-13T11:03:11Z</time>
      </trkpt>
      <trkpt lat="40.487477000" lon="-3.986963000">
        <ele>653.6</ele>
        <time>2020-11-13T11:03:13Z</time>
      </trkpt>
      <trkpt lat="40.487569000" lon="-3.987022000">
        <ele>653.7</ele>
        <time>2020-11-13T11:03:15Z</time>
      </trkpt>
      <trkpt lat="40.487709000" lon="-3.987093000">
        <ele>653.8</ele>
        <time>2020-11-13T11:03:18Z</time>
      </trkpt>
      <trkpt lat="40.487809000" lon="-3.987143000">
        <ele>654.0</ele>
        <time>2020-11-13T11:03:20Z</time>
      </trkpt>
      <trkpt lat="40.487890000" lon="-3.987203000">
        <ele>654.2</ele>
        <time>2020-11-13T11:03:22Z</time>
      </trkpt>
      <trkpt lat="40.487981000" lon="-3.987256000">
        <ele>654.4</ele>
        <time>2020-11-13T11:03:24Z</time>
      </trkpt>
      <trkpt lat="40.488054000" lon="-3.987330000">
        <ele>654.6</ele>
        <time>2020-11-13T11:03:26Z</time>
      </trkpt>
      <trkpt lat="40.488165000" lon="-3.987425000">
        <ele>654.9</ele>
        <time>2020-11-13T11:03:29Z</time>
      </trkpt>
      <trkpt lat="40.488250000" lon="-3.987467000">
        <ele>655.3</ele>
        <time>2020-11-13T11:03:31Z</time>
      </trkpt>
      <trkpt lat="40.488347000" lon="-3.987519000">
        <ele>655.6</ele>
        <time>2020-11-13T11:03:33Z</time>
      </trkpt>
      <trkpt lat="40.488438000" lon="-3.987552000">
        <ele>656.0</ele>
        <time>2020-11-13T11:03:35Z</time>
      </trkpt>
      <trkpt lat="40.488572000" lon="-3.987594000">
        <ele>656.2</ele>
        <time>2020-11-13T11:03:38Z</time>
      </trkpt>
      <trkpt lat="40.488677000" lon="-3.987667000">
        <ele>656.4</ele>
        <time>2020-11-13T11:03:40Z</time>
      </trkpt>
      <trkpt lat="40.488773000" lon="-3.987687000">
        <ele>656.5</ele>
        <time>2020-11-13T11:03:42Z</time>
      </trkpt>
      <trkpt lat="40.488896000" lon="-3.987712000">
        <ele>656.6</ele>
        <time>2020-11-13T11:03:45Z</time>
      </trkpt>
      <trkpt lat="40.489008000" lon="-3.987751000">
        <ele>656.7</ele>
        <time>2020-11-13T11:03:48Z</time>
      </trkpt>
      <trkpt lat="40.489110000" lon="-3.987776000">
        <ele>656.9</ele>
        <time>2020-11-13T11:03:51Z</time>
      </trkpt>
      <trkpt lat="40.489217000" lon="-3.987792000">
        <ele>657.0</ele>
        <time>2020-11-13T11:03:54Z</time>
      </trkpt>
      <trkpt lat="40.489310000" lon="-3.987801000">
        <ele>657.1</ele>
        <time>2020-11-13T11:03:56Z</time>
      </trkpt>
      <trkpt lat="40.489403000" lon="-3.987825000">
        <ele>657.2</ele>
        <time>2020-11-13T11:03:58Z</time>
      </trkpt>
      <trkpt lat="40.489497000" lon="-3.987843000">
        <ele>657.3</ele>
        <time>2020-11-13T11:04:00Z</time>
      </trkpt>
      <trkpt lat="40.489599000" lon="-3.987874000">
        <ele>657.4</ele>
        <time>2020-11-13T11:04:02Z</time>
      </trkpt>
      <trkpt lat="40.489722000" lon="-3.987902000">
        <ele>657.6</ele>
        <time>2020-11-13T11:04:05Z</time>
      </trkpt>
      <trkpt lat="40.489811000" lon="-3.987957000">
        <ele>657.9</ele>
        <time>2020-11-13T11:04:08Z</time>
      </trkpt>
      <trkpt lat="40.489927000" lon="-3.987988000">
        <ele>658.1</ele>
        <time>2020-11-13T11:04:10Z</time>
      </trkpt>
      <trkpt lat="40.490024000" lon="-3.988043000">
        <ele>658.3</ele>
        <time>2020-11-13T11:04:13Z</time>
      </trkpt>
      <trkpt lat="40.490120000" lon="-3.988072000">
        <ele>658.5</ele>
        <time>2020-11-13T11:04:16Z</time>
      </trkpt>
      <trkpt lat="40.490215000" lon="-3.988108000">
        <ele>658.6</ele>
        <time>2020-11-13T11:04:18Z</time>
      </trkpt>
      <trkpt lat="40.490313000" lon="-3.988142000">
        <ele>658.8</ele>
        <time>2020-11-13T11:04:20Z</time>
      </trkpt>
      <trkpt lat="40.490433000" lon="-3.988206000">
        <ele>659.1</ele>
        <time>2020-11-13T11:04:23Z</time>
      </trkpt>
      <trkpt lat="40.490521000" lon="-3.988236000">
        <ele>659.4</ele>
        <time>2020-11-13T11:04:25Z</time>
      </trkpt>
      <trkpt lat="40.490653000" lon="-3.988279000">
        <ele>659.6</ele>
        <time>2020-11-13T11:04:28Z</time>
      </trkpt>
      <trkpt lat="40.490776000" lon="-3.988323000">
        <ele>659.8</ele>
        <time>2020-11-13T11:04:31Z</time>
      </trkpt>
      <trkpt lat="40.490881000" lon="-3.988319000">
        <ele>659.9</ele>
        <time>2020-11-13T11:04:34Z</time>
      </trkpt>
      <trkpt lat="40.491003000" lon="-3.988376000">
        <ele>660.0</ele>
        <time>2020-11-13T11:04:37Z</time>
      </trkpt>
      <trkpt lat="40.491129000" lon="-3.988414000">
        <ele>660.1</ele>
        <time>2020-11-13T11:04:40Z</time>
      </trkpt>
      <trkpt lat="40.491209000" lon="-3.988463000">
        <ele>660.3</ele>
        <time>2020-11-13T11:04:52Z</time>
      </trkpt>
      <trkpt lat="40.491291000" lon="-3.988542000">
        <ele>661.2</ele>
        <time>2020-11-13T11:05:17Z</time>
      </trkpt>
      <trkpt lat="40.491396000" lon="-3.988572000">
        <ele>661.3</ele>
        <time>2020-11-13T11:05:20Z</time>
      </trkpt>
      <trkpt lat="40.491500000" lon="-3.988597000">
        <ele>661.4</ele>
        <time>2020-11-13T11:05:23Z</time>
      </trkpt>
      <trkpt lat="40.491624000" lon="-3.988613000">
        <ele>661.4</ele>
        <time>2020-11-13T11:05:26Z</time>
      </trkpt>
      <trkpt lat="40.491752000" lon="-3.988630000">
        <ele>661.5</ele>
        <time>2020-11-13T11:05:29Z</time>
      </trkpt>
      <trkpt lat="40.491867000" lon="-3.988660000">
        <ele>661.6</ele>
        <time>2020-11-13T11:05:32Z</time>
      </trkpt>
      <trkpt lat="40.491986000" lon="-3.988690000">
        <ele>661.8</ele>
        <time>2020-11-13T11:05:35Z</time>
      </trkpt>
      <trkpt lat="40.492102000" lon="-3.988720000">
        <ele>661.9</ele>
        <time>2020-11-13T11:05:38Z</time>
      </trkpt>
      <trkpt lat="40.492211000" lon="-3.988739000">
        <ele>662.0</ele>
        <time>2020-11-13T11:05:41Z</time>
      </trkpt>
      <trkpt lat="40.492319000" lon="-3.988771000">
        <ele>662.1</ele>
        <time>2020-11-13T11:05:44Z</time>
      </trkpt>
      <trkpt lat="40.492426000" lon="-3.988812000">
        <ele>662.2</ele>
        <time>2020-11-13T11:05:47Z</time>
      </trkpt>
      <trkpt lat="40.492539000" lon="-3.988863000">
        <ele>662.2</ele>
        <time>2020-11-13T11:05:50Z</time>
      </trkpt>
      <trkpt lat="40.492662000" lon="-3.988917000">
        <ele>662.2</ele>
        <time>2020-11-13T11:05:53Z</time>
      </trkpt>
      <trkpt lat="40.492776000" lon="-3.988986000">
        <ele>662.2</ele>
        <time>2020-11-13T11:05:56Z</time>
      </trkpt>
      <trkpt lat="40.492883000" lon="-3.989057000">
        <ele>662.2</ele>
        <time>2020-11-13T11:05:59Z</time>
      </trkpt>
      <trkpt lat="40.492980000" lon="-3.989141000">
        <ele>662.3</ele>
        <time>2020-11-13T11:06:02Z</time>
      </trkpt>
      <trkpt lat="40.493072000" lon="-3.989241000">
        <ele>662.4</ele>
        <time>2020-11-13T11:06:05Z</time>
      </trkpt>
      <trkpt lat="40.493164000" lon="-3.989339000">
        <ele>662.5</ele>
        <time>2020-11-13T11:06:08Z</time>
      </trkpt>
      <trkpt lat="40.493255000" lon="-3.989432000">
        <ele>662.6</ele>
        <time>2020-11-13T11:06:11Z</time>
      </trkpt>
      <trkpt lat="40.493335000" lon="-3.989522000">
        <ele>662.8</ele>
        <time>2020-11-13T11:06:14Z</time>
      </trkpt>
      <trkpt lat="40.493428000" lon="-3.989613000">
        <ele>663.0</ele>
        <time>2020-11-13T11:06:17Z</time>
      </trkpt>
      <trkpt lat="40.493538000" lon="-3.989686000">
        <ele>663.1</ele>
        <time>2020-11-13T11:06:20Z</time>
      </trkpt>
      <trkpt lat="40.493647000" lon="-3.989753000">
        <ele>663.3</ele>
        <time>2020-11-13T11:06:23Z</time>
      </trkpt>
      <trkpt lat="40.493752000" lon="-3.989823000">
        <ele>663.5</ele>
        <time>2020-11-13T11:06:26Z</time>
      </trkpt>
      <trkpt lat="40.493858000" lon="-3.989892000">
        <ele>663.7</ele>
        <time>2020-11-13T11:06:29Z</time>
      </trkpt>
      <trkpt lat="40.493970000" lon="-3.989964000">
        <ele>664.0</ele>
        <time>2020-11-13T11:06:32Z</time>
      </trkpt>
      <trkpt lat="40.494079000" lon="-3.990030000">
        <ele>664.3</ele>
        <time>2020-11-13T11:06:35Z</time>
      </trkpt>
      <trkpt lat="40.494181000" lon="-3.990104000">
        <ele>664.5</ele>
        <time>2020-11-13T11:06:38Z</time>
      </trkpt>
      <trkpt lat="40.494282000" lon="-3.990178000">
        <ele>664.6</ele>
        <time>2020-11-13T11:06:41Z</time>
      </trkpt>
      <trkpt lat="40.494382000" lon="-3.990254000">
        <ele>664.9</ele>
        <time>2020-11-13T11:06:44Z</time>
      </trkpt>
      <trkpt lat="40.494482000" lon="-3.990337000">
        <ele>665.2</ele>
        <time>2020-11-13T11:06:47Z</time>
      </trkpt>
      <trkpt lat="40.494578000" lon="-3.990427000">
        <ele>665.5</ele>
        <time>2020-11-13T11:06:50Z</time>
      </trkpt>
      <trkpt lat="40.494671000" lon="-3.990518000">
        <ele>666.0</ele>
        <time>2020-11-13T11:06:53Z</time>
      </trkpt>
      <trkpt lat="40.494756000" lon="-3.990625000">
        <ele>666.4</ele>
        <time>2020-11-13T11:06:56Z</time>
      </trkpt>
      <trkpt lat="40.494839000" lon="-3.990733000">
        <ele>666.7</ele>
        <time>2020-11-13T11:06:59Z</time>
      </trkpt>
      <trkpt lat="40.494923000" lon="-3.990844000">
        <ele>667.0</ele>
        <time>2020-11-13T11:07:02Z</time>
      </trkpt>
      <trkpt lat="40.495009000" lon="-3.990954000">
        <ele>667.2</ele>
        <time>2020-11-13T11:07:05Z</time>
      </trkpt>
      <trkpt lat="40.495105000" lon="-3.991051000">
        <ele>667.3</ele>
        <time>2020-11-13T11:07:08Z</time>
      </trkpt>
      <trkpt lat="40.495202000" lon="-3.991144000">
        <ele>667.4</ele>
        <time>2020-11-13T11:07:11Z</time>
      </trkpt>
      <trkpt lat="40.495312000" lon="-3.991208000">
        <ele>667.4</ele>
        <time>2020-11-13T11:07:14Z</time>
      </trkpt>
      <trkpt lat="40.495420000" lon="-3.991274000">
        <ele>667.3</ele>
        <time>2020-11-13T11:07:17Z</time>
      </trkpt>
      <trkpt lat="40.495530000" lon="-3.991354000">
        <ele>667.3</ele>
        <time>2020-11-13T11:07:20Z</time>
      </trkpt>
      <trkpt lat="40.495613000" lon="-3.991415000">
        <ele>667.2</ele>
        <time>2020-11-13T11:07:22Z</time>
      </trkpt>
      <trkpt lat="40.495698000" lon="-3.991476000">
        <ele>667.1</ele>
        <time>2020-11-13T11:07:24Z</time>
      </trkpt>
      <trkpt lat="40.495817000" lon="-3.991564000">
        <ele>667.1</ele>
        <time>2020-11-13T11:07:27Z</time>
      </trkpt>
      <trkpt lat="40.495896000" lon="-3.991630000">
        <ele>667.2</ele>
        <time>2020-11-13T11:07:29Z</time>
      </trkpt>
      <trkpt lat="40.496016000" lon="-3.991704000">
        <ele>667.4</ele>
        <time>2020-11-13T11:07:32Z</time>
      </trkpt>
      <trkpt lat="40.496101000" lon="-3.991744000">
        <ele>667.7</ele>
        <time>2020-11-13T11:07:34Z</time>
      </trkpt>
      <trkpt lat="40.496185000" lon="-3.991796000">
        <ele>668.1</ele>
        <time>2020-11-13T11:07:36Z</time>
      </trkpt>
      <trkpt lat="40.496278000" lon="-3.991820000">
        <ele>668.5</ele>
        <time>2020-11-13T11:07:38Z</time>
      </trkpt>
      <trkpt lat="40.496370000" lon="-3.991850000">
        <ele>668.9</ele>
        <time>2020-11-13T11:07:40Z</time>
      </trkpt>
      <trkpt lat="40.496499000" lon="-3.991885000">
        <ele>669.3</ele>
        <time>2020-11-13T11:07:43Z</time>
      </trkpt>
      <trkpt lat="40.496626000" lon="-3.991937000">
        <ele>669.5</ele>
        <time>2020-11-13T11:07:46Z</time>
      </trkpt>
      <trkpt lat="40.496756000" lon="-3.991978000">
        <ele>669.5</ele>
        <time>2020-11-13T11:07:49Z</time>
      </trkpt>
      <trkpt lat="40.496853000" lon="-3.991990000">
        <ele>669.6</ele>
        <time>2020-11-13T11:07:51Z</time>
      </trkpt>
      <trkpt lat="40.496945000" lon="-3.992002000">
        <ele>669.6</ele>
        <time>2020-11-13T11:07:53Z</time>
      </trkpt>
      <trkpt lat="40.497034000" lon="-3.992036000">
        <ele>669.5</ele>
        <time>2020-11-13T11:07:55Z</time>
      </trkpt>
      <trkpt lat="40.497126000" lon="-3.992080000">
        <ele>669.4</ele>
        <time>2020-11-13T11:07:57Z</time>
      </trkpt>
      <trkpt lat="40.497226000" lon="-3.992111000">
        <ele>669.0</ele>
        <time>2020-11-13T11:07:59Z</time>
      </trkpt>
      <trkpt lat="40.497319000" lon="-3.992139000">
        <ele>668.6</ele>
        <time>2020-11-13T11:08:01Z</time>
      </trkpt>
      <trkpt lat="40.497457000" lon="-3.992194000">
        <ele>668.3</ele>
        <time>2020-11-13T11:08:04Z</time>
      </trkpt>
      <trkpt lat="40.497545000" lon="-3.992231000">
        <ele>667.9</ele>
        <time>2020-11-13T11:08:06Z</time>
      </trkpt>
      <trkpt lat="40.497651000" lon="-3.992281000">
        <ele>667.7</ele>
        <time>2020-11-13T11:08:09Z</time>
      </trkpt>
      <trkpt lat="40.497745000" lon="-3.992314000">
        <ele>667.7</ele>
        <time>2020-11-13T11:08:11Z</time>
      </trkpt>
      <trkpt lat="40.497866000" lon="-3.992369000">
        <ele>667.8</ele>
        <time>2020-11-13T11:08:14Z</time>
      </trkpt>
      <trkpt lat="40.497994000" lon="-3.992426000">
        <ele>668.0</ele>
        <time>2020-11-13T11:08:17Z</time>
      </trkpt>
      <trkpt lat="40.498112000" lon="-3.992493000">
        <ele>668.3</ele>
        <time>2020-11-13T11:08:20Z</time>
      </trkpt>
      <trkpt lat="40.498207000" lon="-3.992521000">
        <ele>668.6</ele>
        <time>2020-11-13T11:08:22Z</time>
      </trkpt>
      <trkpt lat="40.498302000" lon="-3.992549000">
        <ele>669.0</ele>
        <time>2020-11-13T11:08:24Z</time>
      </trkpt>
      <trkpt lat="40.498391000" lon="-3.992581000">
        <ele>669.5</ele>
        <time>2020-11-13T11:08:26Z</time>
      </trkpt>
      <trkpt lat="40.498510000" lon="-3.992624000">
        <ele>669.9</ele>
        <time>2020-11-13T11:08:29Z</time>
      </trkpt>
      <trkpt lat="40.498636000" lon="-3.992668000">
        <ele>670.4</ele>
        <time>2020-11-13T11:08:32Z</time>
      </trkpt>
      <trkpt lat="40.498757000" lon="-3.992713000">
        <ele>670.8</ele>
        <time>2020-11-13T11:08:35Z</time>
      </trkpt>
      <trkpt lat="40.498844000" lon="-3.992746000">
        <ele>671.2</ele>
        <time>2020-11-13T11:08:37Z</time>
      </trkpt>
      <trkpt lat="40.498975000" lon="-3.992790000">
        <ele>671.5</ele>
        <time>2020-11-13T11:08:40Z</time>
      </trkpt>
      <trkpt lat="40.499101000" lon="-3.992836000">
        <ele>671.7</ele>
        <time>2020-11-13T11:08:43Z</time>
      </trkpt>
      <trkpt lat="40.499230000" lon="-3.992878000">
        <ele>672.0</ele>
        <time>2020-11-13T11:08:46Z</time>
      </trkpt>
      <trkpt lat="40.499351000" lon="-3.992948000">
        <ele>672.2</ele>
        <time>2020-11-13T11:08:49Z</time>
      </trkpt>
      <trkpt lat="40.499469000" lon="-3.993022000">
        <ele>672.3</ele>
        <time>2020-11-13T11:08:52Z</time>
      </trkpt>
      <trkpt lat="40.499556000" lon="-3.993068000">
        <ele>672.4</ele>
        <time>2020-11-13T11:08:54Z</time>
      </trkpt>
      <trkpt lat="40.499669000" lon="-3.993149000">
        <ele>672.5</ele>
        <time>2020-11-13T11:08:57Z</time>
      </trkpt>
      <trkpt lat="40.499750000" lon="-3.993209000">
        <ele>672.8</ele>
        <time>2020-11-13T11:08:59Z</time>
      </trkpt>
      <trkpt lat="40.499863000" lon="-3.993298000">
        <ele>673.2</ele>
        <time>2020-11-13T11:09:02Z</time>
      </trkpt>
      <trkpt lat="40.499975000" lon="-3.993387000">
        <ele>673.7</ele>
        <time>2020-11-13T11:09:05Z</time>
      </trkpt>
      <trkpt lat="40.500077000" lon="-3.993475000">
        <ele>674.3</ele>
        <time>2020-11-13T11:09:08Z</time>
      </trkpt>
      <trkpt lat="40.500189000" lon="-3.993550000">
        <ele>674.7</ele>
        <time>2020-11-13T11:09:11Z</time>
      </trkpt>
      <trkpt lat="40.500299000" lon="-3.993623000">
        <ele>675.1</ele>
        <time>2020-11-13T11:09:14Z</time>
      </trkpt>
      <trkpt lat="40.500404000" lon="-3.993698000">
        <ele>675.2</ele>
        <time>2020-11-13T11:09:17Z</time>
      </trkpt>
      <trkpt lat="40.500518000" lon="-3.993770000">
        <ele>675.3</ele>
        <time>2020-11-13T11:09:20Z</time>
      </trkpt>
      <trkpt lat="40.500636000" lon="-3.993835000">
        <ele>675.4</ele>
        <time>2020-11-13T11:09:23Z</time>
      </trkpt>
      <trkpt lat="40.500761000" lon="-3.993890000">
        <ele>675.5</ele>
        <time>2020-11-13T11:09:26Z</time>
      </trkpt>
      <trkpt lat="40.500885000" lon="-3.993944000">
        <ele>675.6</ele>
        <time>2020-11-13T11:09:29Z</time>
      </trkpt>
      <trkpt lat="40.501007000" lon="-3.993987000">
        <ele>675.8</ele>
        <time>2020-11-13T11:09:32Z</time>
      </trkpt>
      <trkpt lat="40.501136000" lon="-3.994015000">
        <ele>676.0</ele>
        <time>2020-11-13T11:09:35Z</time>
      </trkpt>
      <trkpt lat="40.501264000" lon="-3.994037000">
        <ele>676.0</ele>
        <time>2020-11-13T11:09:38Z</time>
      </trkpt>
      <trkpt lat="40.501391000" lon="-3.994050000">
        <ele>676.0</ele>
        <time>2020-11-13T11:09:41Z</time>
      </trkpt>
      <trkpt lat="40.501513000" lon="-3.994063000">
        <ele>676.1</ele>
        <time>2020-11-13T11:09:44Z</time>
      </trkpt>
      <trkpt lat="40.501637000" lon="-3.994070000">
        <ele>676.3</ele>
        <time>2020-11-13T11:09:47Z</time>
      </trkpt>
      <trkpt lat="40.501750000" lon="-3.994070000">
        <ele>676.6</ele>
        <time>2020-11-13T11:09:50Z</time>
      </trkpt>
      <trkpt lat="40.501856000" lon="-3.994066000">
        <ele>677.0</ele>
        <time>2020-11-13T11:09:53Z</time>
      </trkpt>
      <trkpt lat="40.501969000" lon="-3.994058000">
        <ele>677.4</ele>
        <time>2020-11-13T11:09:56Z</time>
      </trkpt>
      <trkpt lat="40.502071000" lon="-3.994046000">
        <ele>677.7</ele>
        <time>2020-11-13T11:09:59Z</time>
      </trkpt>
      <trkpt lat="40.502180000" lon="-3.994034000">
        <ele>677.9</ele>
        <time>2020-11-13T11:10:02Z</time>
      </trkpt>
      <trkpt lat="40.502290000" lon="-3.994021000">
        <ele>678.0</ele>
        <time>2020-11-13T11:10:05Z</time>
      </trkpt>
      <trkpt lat="40.502408000" lon="-3.994009000">
        <ele>678.1</ele>
        <time>2020-11-13T11:10:08Z</time>
      </trkpt>
      <trkpt lat="40.502528000" lon="-3.994016000">
        <ele>678.2</ele>
        <time>2020-11-13T11:10:11Z</time>
      </trkpt>
      <trkpt lat="40.502651000" lon="-3.994051000">
        <ele>678.3</ele>
        <time>2020-11-13T11:10:14Z</time>
      </trkpt>
      <trkpt lat="40.502758000" lon="-3.994104000">
        <ele>678.4</ele>
        <time>2020-11-13T11:10:17Z</time>
      </trkpt>
      <trkpt lat="40.502852000" lon="-3.994173000">
        <ele>678.5</ele>
        <time>2020-11-13T11:10:20Z</time>
      </trkpt>
      <trkpt lat="40.502948000" lon="-3.994274000">
        <ele>678.5</ele>
        <time>2020-11-13T11:10:23Z</time>
      </trkpt>
      <trkpt lat="40.503041000" lon="-3.994370000">
        <ele>678.6</ele>
        <time>2020-11-13T11:10:26Z</time>
      </trkpt>
      <trkpt lat="40.503127000" lon="-3.994472000">
        <ele>678.7</ele>
        <time>2020-11-13T11:10:29Z</time>
      </trkpt>
      <trkpt lat="40.503211000" lon="-3.994577000">
        <ele>678.8</ele>
        <time>2020-11-13T11:10:32Z</time>
      </trkpt>
      <trkpt lat="40.503294000" lon="-3.994685000">
        <ele>678.9</ele>
        <time>2020-11-13T11:10:35Z</time>
      </trkpt>
      <trkpt lat="40.503368000" lon="-3.994790000">
        <ele>679.1</ele>
        <time>2020-11-13T11:10:38Z</time>
      </trkpt>
      <trkpt lat="40.503452000" lon="-3.994889000">
        <ele>679.2</ele>
        <time>2020-11-13T11:10:41Z</time>
      </trkpt>
      <trkpt lat="40.503527000" lon="-3.995001000">
        <ele>679.4</ele>
        <time>2020-11-13T11:10:44Z</time>
      </trkpt>
      <trkpt lat="40.503594000" lon="-3.995135000">
        <ele>679.6</ele>
        <time>2020-11-13T11:10:47Z</time>
      </trkpt>
      <trkpt lat="40.503663000" lon="-3.995263000">
        <ele>680.0</ele>
        <time>2020-11-13T11:10:50Z</time>
      </trkpt>
      <trkpt lat="40.503721000" lon="-3.995393000">
        <ele>680.4</ele>
        <time>2020-11-13T11:10:53Z</time>
      </trkpt>
      <trkpt lat="40.503773000" lon="-3.995521000">
        <ele>680.7</ele>
        <time>2020-11-13T11:10:56Z</time>
      </trkpt>
      <trkpt lat="40.503823000" lon="-3.995629000">
        <ele>681.1</ele>
        <time>2020-11-13T11:10:59Z</time>
      </trkpt>
      <trkpt lat="40.503882000" lon="-3.995745000">
        <ele>681.5</ele>
        <time>2020-11-13T11:11:02Z</time>
      </trkpt>
      <trkpt lat="40.503930000" lon="-3.995881000">
        <ele>681.8</ele>
        <time>2020-11-13T11:11:05Z</time>
      </trkpt>
      <trkpt lat="40.503980000" lon="-3.996012000">
        <ele>682.3</ele>
        <time>2020-11-13T11:11:08Z</time>
      </trkpt>
      <trkpt lat="40.504040000" lon="-3.996139000">
        <ele>682.6</ele>
        <time>2020-11-13T11:11:11Z</time>
      </trkpt>
      <trkpt lat="40.504105000" lon="-3.996274000">
        <ele>683.1</ele>
        <time>2020-11-13T11:11:14Z</time>
      </trkpt>
      <trkpt lat="40.504169000" lon="-3.996398000">
        <ele>683.5</ele>
        <time>2020-11-13T11:11:17Z</time>
      </trkpt>
      <trkpt lat="40.504236000" lon="-3.996509000">
        <ele>683.8</ele>
        <time>2020-11-13T11:11:20Z</time>
      </trkpt>
      <trkpt lat="40.504301000" lon="-3.996616000">
        <ele>684.2</ele>
        <time>2020-11-13T11:11:23Z</time>
      </trkpt>
      <trkpt lat="40.504363000" lon="-3.996720000">
        <ele>684.5</ele>
        <time>2020-11-13T11:11:26Z</time>
      </trkpt>
      <trkpt lat="40.504429000" lon="-3.996817000">
        <ele>685.0</ele>
        <time>2020-11-13T11:11:29Z</time>
      </trkpt>
      <trkpt lat="40.504498000" lon="-3.996905000">
        <ele>685.5</ele>
        <time>2020-11-13T11:11:32Z</time>
      </trkpt>
      <trkpt lat="40.504572000" lon="-3.996989000">
        <ele>686.2</ele>
        <time>2020-11-13T11:11:35Z</time>
      </trkpt>
      <trkpt lat="40.504645000" lon="-3.997075000">
        <ele>687.0</ele>
        <time>2020-11-13T11:11:38Z</time>
      </trkpt>
      <trkpt lat="40.504718000" lon="-3.997157000">
        <ele>687.8</ele>
        <time>2020-11-13T11:11:41Z</time>
      </trkpt>
      <trkpt lat="40.504786000" lon="-3.997236000">
        <ele>688.7</ele>
        <time>2020-11-13T11:11:44Z</time>
      </trkpt>
      <trkpt lat="40.504880000" lon="-3.997331000">
        <ele>689.5</ele>
        <time>2020-11-13T11:11:48Z</time>
      </trkpt>
      <trkpt lat="40.504984000" lon="-3.997397000">
        <ele>690.5</ele>
        <time>2020-11-13T11:11:52Z</time>
      </trkpt>
      <trkpt lat="40.505088000" lon="-3.997446000">
        <ele>691.4</ele>
        <time>2020-11-13T11:11:56Z</time>
      </trkpt>
      <trkpt lat="40.505183000" lon="-3.997505000">
        <ele>692.2</ele>
        <time>2020-11-13T11:12:00Z</time>
      </trkpt>
      <trkpt lat="40.505281000" lon="-3.997567000">
        <ele>693.0</ele>
        <time>2020-11-13T11:12:04Z</time>
      </trkpt>
      <trkpt lat="40.505376000" lon="-3.997628000">
        <ele>693.8</ele>
        <time>2020-11-13T11:12:08Z</time>
      </trkpt>
      <trkpt lat="40.505459000" lon="-3.997700000">
        <ele>694.6</ele>
        <time>2020-11-13T11:12:12Z</time>
      </trkpt>
      <trkpt lat="40.505527000" lon="-3.997777000">
        <ele>695.5</ele>
        <time>2020-11-13T11:12:16Z</time>
      </trkpt>
      <trkpt lat="40.505601000" lon="-3.997882000">
        <ele>696.1</ele>
        <time>2020-11-13T11:12:21Z</time>
      </trkpt>
      <trkpt lat="40.505662000" lon="-3.997986000">
        <ele>696.7</ele>
        <time>2020-11-13T11:12:27Z</time>
      </trkpt>
      <trkpt lat="40.505705000" lon="-3.998100000">
        <ele>697.3</ele>
        <time>2020-11-13T11:12:32Z</time>
      </trkpt>
      <trkpt lat="40.505747000" lon="-3.998221000">
        <ele>697.8</ele>
        <time>2020-11-13T11:12:37Z</time>
      </trkpt>
      <trkpt lat="40.505783000" lon="-3.998336000">
        <ele>698.4</ele>
        <time>2020-11-13T11:12:42Z</time>
      </trkpt>
      <trkpt lat="40.505826000" lon="-3.998448000">
        <ele>698.8</ele>
        <time>2020-11-13T11:12:47Z</time>
      </trkpt>
      <trkpt lat="40.505881000" lon="-3.998542000">
        <ele>699.4</ele>
        <time>2020-11-13T11:12:51Z</time>
      </trkpt>
      <trkpt lat="40.505951000" lon="-3.998643000">
        <ele>700.0</ele>
        <time>2020-11-13T11:12:56Z</time>
      </trkpt>
      <trkpt lat="40.506015000" lon="-3.998743000">
        <ele>700.6</ele>
        <time>2020-11-13T11:13:01Z</time>
      </trkpt>
      <trkpt lat="40.506074000" lon="-3.998843000">
        <ele>701.2</ele>
        <time>2020-11-13T11:13:06Z</time>
      </trkpt>
      <trkpt lat="40.506151000" lon="-3.998931000">
        <ele>701.7</ele>
        <time>2020-11-13T11:13:11Z</time>
      </trkpt>
      <trkpt lat="40.506217000" lon="-3.999027000">
        <ele>702.4</ele>
        <time>2020-11-13T11:13:16Z</time>
      </trkpt>
      <trkpt lat="40.506289000" lon="-3.999110000">
        <ele>703.0</ele>
        <time>2020-11-13T11:13:20Z</time>
      </trkpt>
      <trkpt lat="40.506384000" lon="-3.999192000">
        <ele>703.6</ele>
        <time>2020-11-13T11:13:25Z</time>
      </trkpt>
      <trkpt lat="40.506468000" lon="-3.999258000">
        <ele>704.4</ele>
        <time>2020-11-13T11:13:29Z</time>
      </trkpt>
      <trkpt lat="40.506560000" lon="-3.999316000">
        <ele>705.1</ele>
        <time>2020-11-13T11:13:34Z</time>
      </trkpt>
      <trkpt lat="40.506653000" lon="-3.999375000">
        <ele>705.8</ele>
        <time>2020-11-13T11:13:39Z</time>
      </trkpt>
      <trkpt lat="40.506756000" lon="-3.999439000">
        <ele>706.5</ele>
        <time>2020-11-13T11:13:44Z</time>
      </trkpt>
      <trkpt lat="40.506853000" lon="-3.999496000">
        <ele>707.3</ele>
        <time>2020-11-13T11:13:49Z</time>
      </trkpt>
      <trkpt lat="40.506948000" lon="-3.999563000">
        <ele>707.9</ele>
        <time>2020-11-13T11:13:54Z</time>
      </trkpt>
      <trkpt lat="40.507043000" lon="-3.999624000">
        <ele>708.6</ele>
        <time>2020-11-13T11:13:59Z</time>
      </trkpt>
      <trkpt lat="40.507140000" lon="-3.999682000">
        <ele>709.4</ele>
        <time>2020-11-13T11:14:04Z</time>
      </trkpt>
      <trkpt lat="40.507224000" lon="-3.999729000">
        <ele>710.2</ele>
        <time>2020-11-13T11:14:08Z</time>
      </trkpt>
      <trkpt lat="40.507323000" lon="-3.999792000">
        <ele>711.0</ele>
        <time>2020-11-13T11:14:13Z</time>
      </trkpt>
      <trkpt lat="40.507415000" lon="-3.999836000">
        <ele>711.9</ele>
        <time>2020-11-13T11:14:18Z</time>
      </trkpt>
      <trkpt lat="40.507512000" lon="-3.999887000">
        <ele>712.7</ele>
        <time>2020-11-13T11:14:23Z</time>
      </trkpt>
      <trkpt lat="40.507607000" lon="-3.999924000">
        <ele>713.5</ele>
        <time>2020-11-13T11:14:27Z</time>
      </trkpt>
      <trkpt lat="40.507696000" lon="-3.999963000">
        <ele>714.3</ele>
        <time>2020-11-13T11:14:31Z</time>
      </trkpt>
      <trkpt lat="40.507783000" lon="-4.000005000">
        <ele>715.0</ele>
        <time>2020-11-13T11:14:35Z</time>
      </trkpt>
      <trkpt lat="40.507880000" lon="-4.000046000">
        <ele>715.6</ele>
        <time>2020-11-13T11:14:39Z</time>
      </trkpt>
      <trkpt lat="40.507968000" lon="-4.000086000">
        <ele>716.4</ele>
        <time>2020-11-13T11:14:43Z</time>
      </trkpt>
      <trkpt lat="40.508060000" lon="-4.000130000">
        <ele>717.1</ele>
        <time>2020-11-13T11:14:48Z</time>
      </trkpt>
      <trkpt lat="40.508164000" lon="-4.000159000">
        <ele>717.9</ele>
        <time>2020-11-13T11:14:53Z</time>
      </trkpt>
      <trkpt lat="40.508265000" lon="-4.000190000">
        <ele>718.8</ele>
        <time>2020-11-13T11:14:57Z</time>
      </trkpt>
      <trkpt lat="40.508371000" lon="-4.000231000">
        <ele>719.8</ele>
        <time>2020-11-13T11:15:02Z</time>
      </trkpt>
      <trkpt lat="40.508473000" lon="-4.000277000">
        <ele>720.8</ele>
        <time>2020-11-13T11:15:07Z</time>
      </trkpt>
      <trkpt lat="40.508582000" lon="-4.000317000">
        <ele>722.0</ele>
        <time>2020-11-13T11:15:12Z</time>
      </trkpt>
      <trkpt lat="40.508675000" lon="-4.000372000">
        <ele>723.3</ele>
        <time>2020-11-13T11:15:17Z</time>
      </trkpt>
      <trkpt lat="40.508765000" lon="-4.000398000">
        <ele>724.5</ele>
        <time>2020-11-13T11:15:22Z</time>
      </trkpt>
      <trkpt lat="40.508860000" lon="-4.000425000">
        <ele>725.8</ele>
        <time>2020-11-13T11:15:28Z</time>
      </trkpt>
      <trkpt lat="40.508958000" lon="-4.000457000">
        <ele>727.1</ele>
        <time>2020-11-13T11:15:34Z</time>
      </trkpt>
      <trkpt lat="40.509057000" lon="-4.000480000">
        <ele>728.3</ele>
        <time>2020-11-13T11:15:41Z</time>
      </trkpt>
      <trkpt lat="40.509155000" lon="-4.000503000">
        <ele>729.5</ele>
        <time>2020-11-13T11:15:47Z</time>
      </trkpt>
      <trkpt lat="40.509259000" lon="-4.000532000">
        <ele>730.5</ele>
        <time>2020-11-13T11:15:52Z</time>
      </trkpt>
      <trkpt lat="40.509364000" lon="-4.000548000">
        <ele>731.5</ele>
        <time>2020-11-13T11:15:57Z</time>
      </trkpt>
      <trkpt lat="40.509458000" lon="-4.000569000">
        <ele>732.3</ele>
        <time>2020-11-13T11:16:02Z</time>
      </trkpt>
      <trkpt lat="40.509564000" lon="-4.000593000">
        <ele>733.1</ele>
        <time>2020-11-13T11:16:08Z</time>
      </trkpt>
      <trkpt lat="40.509666000" lon="-4.000633000">
        <ele>733.8</ele>
        <time>2020-11-13T11:16:13Z</time>
      </trkpt>
      <trkpt lat="40.509759000" lon="-4.000708000">
        <ele>734.5</ele>
        <time>2020-11-13T11:16:18Z</time>
      </trkpt>
      <trkpt lat="40.509856000" lon="-4.000779000">
        <ele>735.3</ele>
        <time>2020-11-13T11:16:23Z</time>
      </trkpt>
      <trkpt lat="40.509949000" lon="-4.000859000">
        <ele>736.1</ele>
        <time>2020-11-13T11:16:28Z</time>
      </trkpt>
      <trkpt lat="40.510034000" lon="-4.000958000">
        <ele>737.0</ele>
        <time>2020-11-13T11:16:33Z</time>
      </trkpt>
      <trkpt lat="40.510103000" lon="-4.001068000">
        <ele>738.0</ele>
        <time>2020-11-13T11:16:38Z</time>
      </trkpt>
      <trkpt lat="40.510177000" lon="-4.001166000">
        <ele>739.0</ele>
        <time>2020-11-13T11:16:43Z</time>
      </trkpt>
      <trkpt lat="40.510267000" lon="-4.001249000">
        <ele>739.9</ele>
        <time>2020-11-13T11:16:48Z</time>
      </trkpt>
      <trkpt lat="40.510339000" lon="-4.001325000">
        <ele>740.7</ele>
        <time>2020-11-13T11:16:52Z</time>
      </trkpt>
      <trkpt lat="40.510428000" lon="-4.001388000">
        <ele>741.5</ele>
        <time>2020-11-13T11:16:56Z</time>
      </trkpt>
      <trkpt lat="40.510512000" lon="-4.001456000">
        <ele>742.1</ele>
        <time>2020-11-13T11:17:00Z</time>
      </trkpt>
      <trkpt lat="40.510587000" lon="-4.001526000">
        <ele>742.6</ele>
        <time>2020-11-13T11:17:04Z</time>
      </trkpt>
      <trkpt lat="40.510663000" lon="-4.001596000">
        <ele>743.1</ele>
        <time>2020-11-13T11:17:08Z</time>
      </trkpt>
      <trkpt lat="40.510744000" lon="-4.001652000">
        <ele>743.5</ele>
        <time>2020-11-13T11:17:12Z</time>
      </trkpt>
      <trkpt lat="40.510845000" lon="-4.001698000">
        <ele>743.8</ele>
        <time>2020-11-13T11:17:16Z</time>
      </trkpt>
      <trkpt lat="40.510947000" lon="-4.001747000">
        <ele>744.1</ele>
        <time>2020-11-13T11:17:21Z</time>
      </trkpt>
      <trkpt lat="40.511039000" lon="-4.001801000">
        <ele>744.4</ele>
        <time>2020-11-13T11:17:25Z</time>
      </trkpt>
      <trkpt lat="40.511136000" lon="-4.001851000">
        <ele>744.7</ele>
        <time>2020-11-13T11:17:29Z</time>
      </trkpt>
      <trkpt lat="40.511208000" lon="-4.001928000">
        <ele>745.2</ele>
        <time>2020-11-13T11:17:33Z</time>
      </trkpt>
      <trkpt lat="40.511259000" lon="-4.002053000">
        <ele>745.7</ele>
        <time>2020-11-13T11:17:38Z</time>
      </trkpt>
      <trkpt lat="40.511312000" lon="-4.002185000">
        <ele>746.4</ele>
        <time>2020-11-13T11:17:43Z</time>
      </trkpt>
      <trkpt lat="40.511374000" lon="-4.002309000">
        <ele>747.1</ele>
        <time>2020-11-13T11:17:47Z</time>
      </trkpt>
      <trkpt lat="40.511445000" lon="-4.002428000">
        <ele>747.9</ele>
        <time>2020-11-13T11:17:51Z</time>
      </trkpt>
      <trkpt lat="40.511529000" lon="-4.002491000">
        <ele>748.9</ele>
        <time>2020-11-13T11:17:55Z</time>
      </trkpt>
      <trkpt lat="40.511624000" lon="-4.002569000">
        <ele>749.9</ele>
        <time>2020-11-13T11:18:00Z</time>
      </trkpt>
      <trkpt lat="40.511724000" lon="-4.002599000">
        <ele>750.9</ele>
        <time>2020-11-13T11:18:04Z</time>
      </trkpt>
      <trkpt lat="40.511830000" lon="-4.002640000">
        <ele>752.0</ele>
        <time>2020-11-13T11:18:09Z</time>
      </trkpt>
      <trkpt lat="40.511922000" lon="-4.002710000">
        <ele>753.1</ele>
        <time>2020-11-13T11:18:14Z</time>
      </trkpt>
      <trkpt lat="40.512018000" lon="-4.002781000">
        <ele>754.0</ele>
        <time>2020-11-13T11:18:19Z</time>
      </trkpt>
      <trkpt lat="40.512094000" lon="-4.002867000">
        <ele>754.9</ele>
        <time>2020-11-13T11:18:25Z</time>
      </trkpt>
      <trkpt lat="40.512161000" lon="-4.002953000">
        <ele>755.8</ele>
        <time>2020-11-13T11:18:30Z</time>
      </trkpt>
      <trkpt lat="40.512232000" lon="-4.003049000">
        <ele>756.6</ele>
        <time>2020-11-13T11:18:35Z</time>
      </trkpt>
      <trkpt lat="40.512312000" lon="-4.003114000">
        <ele>757.4</ele>
        <time>2020-11-13T11:18:39Z</time>
      </trkpt>
      <trkpt lat="40.512404000" lon="-4.003160000">
        <ele>758.1</ele>
        <time>2020-11-13T11:18:43Z</time>
      </trkpt>
      <trkpt lat="40.512505000" lon="-4.003214000">
        <ele>758.7</ele>
        <time>2020-11-13T11:18:47Z</time>
      </trkpt>
      <trkpt lat="40.512608000" lon="-4.003286000">
        <ele>759.4</ele>
        <time>2020-11-13T11:18:51Z</time>
      </trkpt>
      <trkpt lat="40.512707000" lon="-4.003366000">
        <ele>760.0</ele>
        <time>2020-11-13T11:18:55Z</time>
      </trkpt>
      <trkpt lat="40.512807000" lon="-4.003437000">
        <ele>760.6</ele>
        <time>2020-11-13T11:18:59Z</time>
      </trkpt>
      <trkpt lat="40.512900000" lon="-4.003501000">
        <ele>761.3</ele>
        <time>2020-11-13T11:19:03Z</time>
      </trkpt>
      <trkpt lat="40.512989000" lon="-4.003554000">
        <ele>762.0</ele>
        <time>2020-11-13T11:19:07Z</time>
      </trkpt>
      <trkpt lat="40.513076000" lon="-4.003618000">
        <ele>762.7</ele>
        <time>2020-11-13T11:19:11Z</time>
      </trkpt>
      <trkpt lat="40.513154000" lon="-4.003682000">
        <ele>763.5</ele>
        <time>2020-11-13T11:19:15Z</time>
      </trkpt>
      <trkpt lat="40.513237000" lon="-4.003740000">
        <ele>764.3</ele>
        <time>2020-11-13T11:19:19Z</time>
      </trkpt>
      <trkpt lat="40.513331000" lon="-4.003811000">
        <ele>765.1</ele>
        <time>2020-11-13T11:19:24Z</time>
      </trkpt>
      <trkpt lat="40.513416000" lon="-4.003869000">
        <ele>765.8</ele>
        <time>2020-11-13T11:19:29Z</time>
      </trkpt>
      <trkpt lat="40.513508000" lon="-4.003916000">
        <ele>766.5</ele>
        <time>2020-11-13T11:19:34Z</time>
      </trkpt>
      <trkpt lat="40.513603000" lon="-4.003956000">
        <ele>767.1</ele>
        <time>2020-11-13T11:19:39Z</time>
      </trkpt>
      <trkpt lat="40.513704000" lon="-4.004015000">
        <ele>767.7</ele>
        <time>2020-11-13T11:19:44Z</time>
      </trkpt>
      <trkpt lat="40.513773000" lon="-4.004100000">
        <ele>768.3</ele>
        <time>2020-11-13T11:19:48Z</time>
      </trkpt>
      <trkpt lat="40.513824000" lon="-4.004201000">
        <ele>768.8</ele>
        <time>2020-11-13T11:19:52Z</time>
      </trkpt>
      <trkpt lat="40.513882000" lon="-4.004312000">
        <ele>769.4</ele>
        <time>2020-11-13T11:19:56Z</time>
      </trkpt>
      <trkpt lat="40.513942000" lon="-4.004424000">
        <ele>769.9</ele>
        <time>2020-11-13T11:20:00Z</time>
      </trkpt>
      <trkpt lat="40.514026000" lon="-4.004520000">
        <ele>770.5</ele>
        <time>2020-11-13T11:20:04Z</time>
      </trkpt>
      <trkpt lat="40.514096000" lon="-4.004596000">
        <ele>771.2</ele>
        <time>2020-11-13T11:20:07Z</time>
      </trkpt>
      <trkpt lat="40.514175000" lon="-4.004660000">
        <ele>771.9</ele>
        <time>2020-11-13T11:20:10Z</time>
      </trkpt>
      <trkpt lat="40.514275000" lon="-4.004725000">
        <ele>772.6</ele>
        <time>2020-11-13T11:20:14Z</time>
      </trkpt>
      <trkpt lat="40.514372000" lon="-4.004757000">
        <ele>773.5</ele>
        <time>2020-11-13T11:20:18Z</time>
      </trkpt>
      <trkpt lat="40.514476000" lon="-4.004808000">
        <ele>774.5</ele>
        <time>2020-11-13T11:20:23Z</time>
      </trkpt>
      <trkpt lat="40.514578000" lon="-4.004859000">
        <ele>775.5</ele>
        <time>2020-11-13T11:20:27Z</time>
      </trkpt>
      <trkpt lat="40.514676000" lon="-4.004925000">
        <ele>776.6</ele>
        <time>2020-11-13T11:20:31Z</time>
      </trkpt>
      <trkpt lat="40.514752000" lon="-4.004991000">
        <ele>777.7</ele>
        <time>2020-11-13T11:20:34Z</time>
      </trkpt>
      <trkpt lat="40.514833000" lon="-4.005061000">
        <ele>778.7</ele>
        <time>2020-11-13T11:20:37Z</time>
      </trkpt>
      <trkpt lat="40.514936000" lon="-4.005130000">
        <ele>779.7</ele>
        <time>2020-11-13T11:20:41Z</time>
      </trkpt>
      <trkpt lat="40.515025000" lon="-4.005188000">
        <ele>780.6</ele>
        <time>2020-11-13T11:20:45Z</time>
      </trkpt>
      <trkpt lat="40.515109000" lon="-4.005263000">
        <ele>781.5</ele>
        <time>2020-11-13T11:20:50Z</time>
      </trkpt>
      <trkpt lat="40.515203000" lon="-4.005306000">
        <ele>782.2</ele>
        <time>2020-11-13T11:20:54Z</time>
      </trkpt>
      <trkpt lat="40.515291000" lon="-4.005346000">
        <ele>783.0</ele>
        <time>2020-11-13T11:20:58Z</time>
      </trkpt>
      <trkpt lat="40.515382000" lon="-4.005404000">
        <ele>783.7</ele>
        <time>2020-11-13T11:21:02Z</time>
      </trkpt>
      <trkpt lat="40.515485000" lon="-4.005452000">
        <ele>784.4</ele>
        <time>2020-11-13T11:21:07Z</time>
      </trkpt>
      <trkpt lat="40.515578000" lon="-4.005494000">
        <ele>784.8</ele>
        <time>2020-11-13T11:21:11Z</time>
      </trkpt>
      <trkpt lat="40.515666000" lon="-4.005534000">
        <ele>785.2</ele>
        <time>2020-11-13T11:21:16Z</time>
      </trkpt>
      <trkpt lat="40.515761000" lon="-4.005565000">
        <ele>785.5</ele>
        <time>2020-11-13T11:21:20Z</time>
      </trkpt>
      <trkpt lat="40.515859000" lon="-4.005599000">
        <ele>786.0</ele>
        <time>2020-11-13T11:21:24Z</time>
      </trkpt>
      <trkpt lat="40.515951000" lon="-4.005646000">
        <ele>786.5</ele>
        <time>2020-11-13T11:21:28Z</time>
      </trkpt>
      <trkpt lat="40.516035000" lon="-4.005691000">
        <ele>786.9</ele>
        <time>2020-11-13T11:21:32Z</time>
      </trkpt>
      <trkpt lat="40.516144000" lon="-4.005732000">
        <ele>787.5</ele>
        <time>2020-11-13T11:21:37Z</time>
      </trkpt>
      <trkpt lat="40.516247000" lon="-4.005771000">
        <ele>788.1</ele>
        <time>2020-11-13T11:21:41Z</time>
      </trkpt>
      <trkpt lat="40.516351000" lon="-4.005800000">
        <ele>788.7</ele>
        <time>2020-11-13T11:21:46Z</time>
      </trkpt>
      <trkpt lat="40.516447000" lon="-4.005826000">
        <ele>789.4</ele>
        <time>2020-11-13T11:21:50Z</time>
      </trkpt>
      <trkpt lat="40.516553000" lon="-4.005856000">
        <ele>790.1</ele>
        <time>2020-11-13T11:21:55Z</time>
      </trkpt>
      <trkpt lat="40.516656000" lon="-4.005890000">
        <ele>791.0</ele>
        <time>2020-11-13T11:22:00Z</time>
      </trkpt>
      <trkpt lat="40.516751000" lon="-4.005906000">
        <ele>791.9</ele>
        <time>2020-11-13T11:22:05Z</time>
      </trkpt>
      <trkpt lat="40.516848000" lon="-4.005906000">
        <ele>792.8</ele>
        <time>2020-11-13T11:22:09Z</time>
      </trkpt>
      <trkpt lat="40.516950000" lon="-4.005896000">
        <ele>793.7</ele>
        <time>2020-11-13T11:22:13Z</time>
      </trkpt>
      <trkpt lat="40.517063000" lon="-4.005859000">
        <ele>794.6</ele>
        <time>2020-11-13T11:22:17Z</time>
      </trkpt>
      <trkpt lat="40.517152000" lon="-4.005821000">
        <ele>795.5</ele>
        <time>2020-11-13T11:22:20Z</time>
      </trkpt>
      <trkpt lat="40.517263000" lon="-4.005775000">
        <ele>796.3</ele>
        <time>2020-11-13T11:22:24Z</time>
      </trkpt>
      <trkpt lat="40.517364000" lon="-4.005717000">
        <ele>797.0</ele>
        <time>2020-11-13T11:22:28Z</time>
      </trkpt>
      <trkpt lat="40.517455000" lon="-4.005661000">
        <ele>797.7</ele>
        <time>2020-11-13T11:22:32Z</time>
      </trkpt>
      <trkpt lat="40.517543000" lon="-4.005615000">
        <ele>798.5</ele>
        <time>2020-11-13T11:22:36Z</time>
      </trkpt>
      <trkpt lat="40.517630000" lon="-4.005551000">
        <ele>799.1</ele>
        <time>2020-11-13T11:22:41Z</time>
      </trkpt>
      <trkpt lat="40.517718000" lon="-4.005496000">
        <ele>799.6</ele>
        <time>2020-11-13T11:22:46Z</time>
      </trkpt>
      <trkpt lat="40.517808000" lon="-4.005431000">
        <ele>800.3</ele>
        <time>2020-11-13T11:22:51Z</time>
      </trkpt>
      <trkpt lat="40.517900000" lon="-4.005361000">
        <ele>800.8</ele>
        <time>2020-11-13T11:22:56Z</time>
      </trkpt>
      <trkpt lat="40.517988000" lon="-4.005279000">
        <ele>801.4</ele>
        <time>2020-11-13T11:23:01Z</time>
      </trkpt>
      <trkpt lat="40.518072000" lon="-4.005219000">
        <ele>801.8</ele>
        <time>2020-11-13T11:23:05Z</time>
      </trkpt>
      <trkpt lat="40.518163000" lon="-4.005139000">
        <ele>802.4</ele>
        <time>2020-11-13T11:23:10Z</time>
      </trkpt>
      <trkpt lat="40.518270000" lon="-4.005105000">
        <ele>802.8</ele>
        <time>2020-11-13T11:23:15Z</time>
      </trkpt>
      <trkpt lat="40.518370000" lon="-4.005102000">
        <ele>803.3</ele>
        <time>2020-11-13T11:23:20Z</time>
      </trkpt>
      <trkpt lat="40.518469000" lon="-4.005164000">
        <ele>803.6</ele>
        <time>2020-11-13T11:23:25Z</time>
      </trkpt>
      <trkpt lat="40.518531000" lon="-4.005261000">
        <ele>804.0</ele>
        <time>2020-11-13T11:23:29Z</time>
      </trkpt>
      <trkpt lat="40.518578000" lon="-4.005364000">
        <ele>804.4</ele>
        <time>2020-11-13T11:23:33Z</time>
      </trkpt>
      <trkpt lat="40.518628000" lon="-4.005495000">
        <ele>804.7</ele>
        <time>2020-11-13T11:23:37Z</time>
      </trkpt>
      <trkpt lat="40.518690000" lon="-4.005624000">
        <ele>805.0</ele>
        <time>2020-11-13T11:23:41Z</time>
      </trkpt>
      <trkpt lat="40.518749000" lon="-4.005748000">
        <ele>805.3</ele>
        <time>2020-11-13T11:23:45Z</time>
      </trkpt>
      <trkpt lat="40.518805000" lon="-4.005889000">
        <ele>805.5</ele>
        <time>2020-11-13T11:23:49Z</time>
      </trkpt>
      <trkpt lat="40.518863000" lon="-4.006025000">
        <ele>805.8</ele>
        <time>2020-11-13T11:23:53Z</time>
      </trkpt>
      <trkpt lat="40.518923000" lon="-4.006133000">
        <ele>806.2</ele>
        <time>2020-11-13T11:23:57Z</time>
      </trkpt>
      <trkpt lat="40.518991000" lon="-4.006212000">
        <ele>806.6</ele>
        <time>2020-11-13T11:24:02Z</time>
      </trkpt>
      <trkpt lat="40.519047000" lon="-4.006308000">
        <ele>807.2</ele>
        <time>2020-11-13T11:24:07Z</time>
      </trkpt>
      <trkpt lat="40.519109000" lon="-4.006406000">
        <ele>807.9</ele>
        <time>2020-11-13T11:24:12Z</time>
      </trkpt>
      <trkpt lat="40.519182000" lon="-4.006483000">
        <ele>808.5</ele>
        <time>2020-11-13T11:24:17Z</time>
      </trkpt>
      <trkpt lat="40.519260000" lon="-4.006592000">
        <ele>809.3</ele>
        <time>2020-11-13T11:24:22Z</time>
      </trkpt>
      <trkpt lat="40.519341000" lon="-4.006698000">
        <ele>810.1</ele>
        <time>2020-11-13T11:24:26Z</time>
      </trkpt>
      <trkpt lat="40.519415000" lon="-4.006767000">
        <ele>811.0</ele>
        <time>2020-11-13T11:24:29Z</time>
      </trkpt>
      <trkpt lat="40.519501000" lon="-4.006824000">
        <ele>811.9</ele>
        <time>2020-11-13T11:24:32Z</time>
      </trkpt>
      <trkpt lat="40.519590000" lon="-4.006863000">
        <ele>812.7</ele>
        <time>2020-11-13T11:24:35Z</time>
      </trkpt>
      <trkpt lat="40.519677000" lon="-4.006907000">
        <ele>813.5</ele>
        <time>2020-11-13T11:24:38Z</time>
      </trkpt>
      <trkpt lat="40.519763000" lon="-4.006960000">
        <ele>814.2</ele>
        <time>2020-11-13T11:24:41Z</time>
      </trkpt>
      <trkpt lat="40.519854000" lon="-4.007014000">
        <ele>814.8</ele>
        <time>2020-11-13T11:24:44Z</time>
      </trkpt>
      <trkpt lat="40.519956000" lon="-4.007079000">
        <ele>815.4</ele>
        <time>2020-11-13T11:24:47Z</time>
      </trkpt>
      <trkpt lat="40.520061000" lon="-4.007141000">
        <ele>815.7</ele>
        <time>2020-11-13T11:24:50Z</time>
      </trkpt>
      <trkpt lat="40.520152000" lon="-4.007206000">
        <ele>816.1</ele>
        <time>2020-11-13T11:24:53Z</time>
      </trkpt>
      <trkpt lat="40.520237000" lon="-4.007269000">
        <ele>816.5</ele>
        <time>2020-11-13T11:24:56Z</time>
      </trkpt>
      <trkpt lat="40.520326000" lon="-4.007333000">
        <ele>816.7</ele>
        <time>2020-11-13T11:24:59Z</time>
      </trkpt>
      <trkpt lat="40.520415000" lon="-4.007397000">
        <ele>817.0</ele>
        <time>2020-11-13T11:25:02Z</time>
      </trkpt>
      <trkpt lat="40.520500000" lon="-4.007479000">
        <ele>817.4</ele>
        <time>2020-11-13T11:25:05Z</time>
      </trkpt>
      <trkpt lat="40.520587000" lon="-4.007552000">
        <ele>817.7</ele>
        <time>2020-11-13T11:25:08Z</time>
      </trkpt>
      <trkpt lat="40.520671000" lon="-4.007631000">
        <ele>818.2</ele>
        <time>2020-11-13T11:25:11Z</time>
      </trkpt>
      <trkpt lat="40.520755000" lon="-4.007703000">
        <ele>818.6</ele>
        <time>2020-11-13T11:25:14Z</time>
      </trkpt>
      <trkpt lat="40.520836000" lon="-4.007773000">
        <ele>819.0</ele>
        <time>2020-11-13T11:25:17Z</time>
      </trkpt>
      <trkpt lat="40.520920000" lon="-4.007845000">
        <ele>819.5</ele>
        <time>2020-11-13T11:25:20Z</time>
      </trkpt>
      <trkpt lat="40.520998000" lon="-4.007924000">
        <ele>820.0</ele>
        <time>2020-11-13T11:25:23Z</time>
      </trkpt>
      <trkpt lat="40.521070000" lon="-4.008012000">
        <ele>820.5</ele>
        <time>2020-11-13T11:25:26Z</time>
      </trkpt>
      <trkpt lat="40.521140000" lon="-4.008106000">
        <ele>821.0</ele>
        <time>2020-11-13T11:25:29Z</time>
      </trkpt>
      <trkpt lat="40.521203000" lon="-4.008220000">
        <ele>821.5</ele>
        <time>2020-11-13T11:25:32Z</time>
      </trkpt>
      <trkpt lat="40.521269000" lon="-4.008321000">
        <ele>821.7</ele>
        <time>2020-11-13T11:25:35Z</time>
      </trkpt>
      <trkpt lat="40.521333000" lon="-4.008417000">
        <ele>821.8</ele>
        <time>2020-11-13T11:25:38Z</time>
      </trkpt>
      <trkpt lat="40.521398000" lon="-4.008516000">
        <ele>821.9</ele>
        <time>2020-11-13T11:25:41Z</time>
      </trkpt>
      <trkpt lat="40.521460000" lon="-4.008608000">
        <ele>821.9</ele>
        <time>2020-11-13T11:25:44Z</time>
      </trkpt>
      <trkpt lat="40.521525000" lon="-4.008692000">
        <ele>821.9</ele>
        <time>2020-11-13T11:25:47Z</time>
      </trkpt>
      <trkpt lat="40.521600000" lon="-4.008773000">
        <ele>822.0</ele>
        <time>2020-11-13T11:25:50Z</time>
      </trkpt>
      <trkpt lat="40.521675000" lon="-4.008857000">
        <ele>822.1</ele>
        <time>2020-11-13T11:25:53Z</time>
      </trkpt>
      <trkpt lat="40.521757000" lon="-4.008947000">
        <ele>822.2</ele>
        <time>2020-11-13T11:25:56Z</time>
      </trkpt>
      <trkpt lat="40.521835000" lon="-4.009021000">
        <ele>822.4</ele>
        <time>2020-11-13T11:25:59Z</time>
      </trkpt>
      <trkpt lat="40.521926000" lon="-4.009110000">
        <ele>822.5</ele>
        <time>2020-11-13T11:26:02Z</time>
      </trkpt>
      <trkpt lat="40.522013000" lon="-4.009196000">
        <ele>822.8</ele>
        <time>2020-11-13T11:26:05Z</time>
      </trkpt>
      <trkpt lat="40.522094000" lon="-4.009274000">
        <ele>823.3</ele>
        <time>2020-11-13T11:26:08Z</time>
      </trkpt>
      <trkpt lat="40.522181000" lon="-4.009361000">
        <ele>823.9</ele>
        <time>2020-11-13T11:26:11Z</time>
      </trkpt>
      <trkpt lat="40.522268000" lon="-4.009437000">
        <ele>824.6</ele>
        <time>2020-11-13T11:26:14Z</time>
      </trkpt>
      <trkpt lat="40.522365000" lon="-4.009512000">
        <ele>825.5</ele>
        <time>2020-11-13T11:26:17Z</time>
      </trkpt>
      <trkpt lat="40.522452000" lon="-4.009593000">
        <ele>826.4</ele>
        <time>2020-11-13T11:26:20Z</time>
      </trkpt>
      <trkpt lat="40.522525000" lon="-4.009671000">
        <ele>827.4</ele>
        <time>2020-11-13T11:26:23Z</time>
      </trkpt>
      <trkpt lat="40.522622000" lon="-4.009754000">
        <ele>828.3</ele>
        <time>2020-11-13T11:26:27Z</time>
      </trkpt>
      <trkpt lat="40.522716000" lon="-4.009819000">
        <ele>829.2</ele>
        <time>2020-11-13T11:26:31Z</time>
      </trkpt>
      <trkpt lat="40.522803000" lon="-4.009885000">
        <ele>830.0</ele>
        <time>2020-11-13T11:26:35Z</time>
      </trkpt>
      <trkpt lat="40.522886000" lon="-4.009945000">
        <ele>830.8</ele>
        <time>2020-11-13T11:26:39Z</time>
      </trkpt>
      <trkpt lat="40.522979000" lon="-4.010012000">
        <ele>831.5</ele>
        <time>2020-11-13T11:26:44Z</time>
      </trkpt>
      <trkpt lat="40.523076000" lon="-4.010056000">
        <ele>832.0</ele>
        <time>2020-11-13T11:26:48Z</time>
      </trkpt>
      <trkpt lat="40.523188000" lon="-4.010061000">
        <ele>832.5</ele>
        <time>2020-11-13T11:26:52Z</time>
      </trkpt>
      <trkpt lat="40.523285000" lon="-4.010048000">
        <ele>832.9</ele>
        <time>2020-11-13T11:26:55Z</time>
      </trkpt>
      <trkpt lat="40.523385000" lon="-4.010006000">
        <ele>833.3</ele>
        <time>2020-11-13T11:26:58Z</time>
      </trkpt>
      <trkpt lat="40.523479000" lon="-4.009978000">
        <ele>833.6</ele>
        <time>2020-11-13T11:27:01Z</time>
      </trkpt>
      <trkpt lat="40.523577000" lon="-4.009933000">
        <ele>833.8</ele>
        <time>2020-11-13T11:27:05Z</time>
      </trkpt>
      <trkpt lat="40.523670000" lon="-4.009895000">
        <ele>834.1</ele>
        <time>2020-11-13T11:27:08Z</time>
      </trkpt>
      <trkpt lat="40.523759000" lon="-4.009863000">
        <ele>834.4</ele>
        <time>2020-11-13T11:27:11Z</time>
      </trkpt>
      <trkpt lat="40.523867000" lon="-4.009811000">
        <ele>834.7</ele>
        <time>2020-11-13T11:27:15Z</time>
      </trkpt>
      <trkpt lat="40.523981000" lon="-4.009741000">
        <ele>835.1</ele>
        <time>2020-11-13T11:27:19Z</time>
      </trkpt>
      <trkpt lat="40.524069000" lon="-4.009687000">
        <ele>835.6</ele>
        <time>2020-11-13T11:27:22Z</time>
      </trkpt>
      <trkpt lat="40.524183000" lon="-4.009633000">
        <ele>836.2</ele>
        <time>2020-11-13T11:27:26Z</time>
      </trkpt>
      <trkpt lat="40.524296000" lon="-4.009581000">
        <ele>836.7</ele>
        <time>2020-11-13T11:27:29Z</time>
      </trkpt>
      <trkpt lat="40.524403000" lon="-4.009542000">
        <ele>837.2</ele>
        <time>2020-11-13T11:27:32Z</time>
      </trkpt>
      <trkpt lat="40.524507000" lon="-4.009517000">
        <ele>837.6</ele>
        <time>2020-11-13T11:27:35Z</time>
      </trkpt>
      <trkpt lat="40.524614000" lon="-4.009512000">
        <ele>838.0</ele>
        <time>2020-11-13T11:27:38Z</time>
      </trkpt>
      <trkpt lat="40.524723000" lon="-4.009529000">
        <ele>838.3</ele>
        <time>2020-11-13T11:27:41Z</time>
      </trkpt>
      <trkpt lat="40.524818000" lon="-4.009546000">
        <ele>838.5</ele>
        <time>2020-11-13T11:27:43Z</time>
      </trkpt>
      <trkpt lat="40.524952000" lon="-4.009571000">
        <ele>838.5</ele>
        <time>2020-11-13T11:27:46Z</time>
      </trkpt>
      <trkpt lat="40.525073000" lon="-4.009596000">
        <ele>838.4</ele>
        <time>2020-11-13T11:27:49Z</time>
      </trkpt>
      <trkpt lat="40.525165000" lon="-4.009601000">
        <ele>838.3</ele>
        <time>2020-11-13T11:27:51Z</time>
      </trkpt>
      <trkpt lat="40.525274000" lon="-4.009604000">
        <ele>838.1</ele>
        <time>2020-11-13T11:27:53Z</time>
      </trkpt>
      <trkpt lat="40.525380000" lon="-4.009610000">
        <ele>838.0</ele>
        <time>2020-11-13T11:27:55Z</time>
      </trkpt>
      <trkpt lat="40.525495000" lon="-4.009609000">
        <ele>837.9</ele>
        <time>2020-11-13T11:27:57Z</time>
      </trkpt>
      <trkpt lat="40.525601000" lon="-4.009605000">
        <ele>837.8</ele>
        <time>2020-11-13T11:27:59Z</time>
      </trkpt>
      <trkpt lat="40.525713000" lon="-4.009593000">
        <ele>837.7</ele>
        <time>2020-11-13T11:28:01Z</time>
      </trkpt>
      <trkpt lat="40.525810000" lon="-4.009580000">
        <ele>837.6</ele>
        <time>2020-11-13T11:28:03Z</time>
      </trkpt>
      <trkpt lat="40.525908000" lon="-4.009577000">
        <ele>837.5</ele>
        <time>2020-11-13T11:28:05Z</time>
      </trkpt>
      <trkpt lat="40.526008000" lon="-4.009565000">
        <ele>837.5</ele>
        <time>2020-11-13T11:28:07Z</time>
      </trkpt>
      <trkpt lat="40.526110000" lon="-4.009552000">
        <ele>837.5</ele>
        <time>2020-11-13T11:28:09Z</time>
      </trkpt>
      <trkpt lat="40.526206000" lon="-4.009542000">
        <ele>837.5</ele>
        <time>2020-11-13T11:28:11Z</time>
      </trkpt>
      <trkpt lat="40.526303000" lon="-4.009527000">
        <ele>837.5</ele>
        <time>2020-11-13T11:28:13Z</time>
      </trkpt>
      <trkpt lat="40.526411000" lon="-4.009524000">
        <ele>837.7</ele>
        <time>2020-11-13T11:28:15Z</time>
      </trkpt>
      <trkpt lat="40.526532000" lon="-4.009523000">
        <ele>837.9</ele>
        <time>2020-11-13T11:28:18Z</time>
      </trkpt>
      <trkpt lat="40.526624000" lon="-4.009512000">
        <ele>838.2</ele>
        <time>2020-11-13T11:28:20Z</time>
      </trkpt>
      <trkpt lat="40.526719000" lon="-4.009501000">
        <ele>838.5</ele>
        <time>2020-11-13T11:28:22Z</time>
      </trkpt>
      <trkpt lat="40.526809000" lon="-4.009489000">
        <ele>839.0</ele>
        <time>2020-11-13T11:28:24Z</time>
      </trkpt>
      <trkpt lat="40.526940000" lon="-4.009482000">
        <ele>839.5</ele>
        <time>2020-11-13T11:28:27Z</time>
      </trkpt>
      <trkpt lat="40.527043000" lon="-4.009485000">
        <ele>840.1</ele>
        <time>2020-11-13T11:28:30Z</time>
      </trkpt>
      <trkpt lat="40.527145000" lon="-4.009517000">
        <ele>840.8</ele>
        <time>2020-11-13T11:28:33Z</time>
      </trkpt>
      <trkpt lat="40.527249000" lon="-4.009560000">
        <ele>841.5</ele>
        <time>2020-11-13T11:28:36Z</time>
      </trkpt>
      <trkpt lat="40.527344000" lon="-4.009611000">
        <ele>842.3</ele>
        <time>2020-11-13T11:28:39Z</time>
      </trkpt>
      <trkpt lat="40.527439000" lon="-4.009663000">
        <ele>842.9</ele>
        <time>2020-11-13T11:28:42Z</time>
      </trkpt>
      <trkpt lat="40.527541000" lon="-4.009695000">
        <ele>843.5</ele>
        <time>2020-11-13T11:28:45Z</time>
      </trkpt>
      <trkpt lat="40.527655000" lon="-4.009706000">
        <ele>843.9</ele>
        <time>2020-11-13T11:28:48Z</time>
      </trkpt>
      <trkpt lat="40.527772000" lon="-4.009701000">
        <ele>844.3</ele>
        <time>2020-11-13T11:28:51Z</time>
      </trkpt>
      <trkpt lat="40.527897000" lon="-4.009697000">
        <ele>844.6</ele>
        <time>2020-11-13T11:28:54Z</time>
      </trkpt>
      <trkpt lat="40.528029000" lon="-4.009697000">
        <ele>844.9</ele>
        <time>2020-11-13T11:28:57Z</time>
      </trkpt>
      <trkpt lat="40.528150000" lon="-4.009699000">
        <ele>845.2</ele>
        <time>2020-11-13T11:29:00Z</time>
      </trkpt>
      <trkpt lat="40.528283000" lon="-4.009710000">
        <ele>845.4</ele>
        <time>2020-11-13T11:29:03Z</time>
      </trkpt>
      <trkpt lat="40.528412000" lon="-4.009723000">
        <ele>845.5</ele>
        <time>2020-11-13T11:29:06Z</time>
      </trkpt>
      <trkpt lat="40.528535000" lon="-4.009730000">
        <ele>845.5</ele>
        <time>2020-11-13T11:29:09Z</time>
      </trkpt>
      <trkpt lat="40.528628000" lon="-4.009730000">
        <ele>845.6</ele>
        <time>2020-11-13T11:29:11Z</time>
      </trkpt>
      <trkpt lat="40.528721000" lon="-4.009732000">
        <ele>845.7</ele>
        <time>2020-11-13T11:29:13Z</time>
      </trkpt>
      <trkpt lat="40.528825000" lon="-4.009713000">
        <ele>845.8</ele>
        <time>2020-11-13T11:29:15Z</time>
      </trkpt>
      <trkpt lat="40.528918000" lon="-4.009699000">
        <ele>845.9</ele>
        <time>2020-11-13T11:29:17Z</time>
      </trkpt>
      <trkpt lat="40.529044000" lon="-4.009705000">
        <ele>846.0</ele>
        <time>2020-11-13T11:29:20Z</time>
      </trkpt>
      <trkpt lat="40.529143000" lon="-4.009724000">
        <ele>846.0</ele>
        <time>2020-11-13T11:29:22Z</time>
      </trkpt>
      <trkpt lat="40.529271000" lon="-4.009739000">
        <ele>846.0</ele>
        <time>2020-11-13T11:29:26Z</time>
      </trkpt>
      <trkpt lat="40.529386000" lon="-4.009776000">
        <ele>846.1</ele>
        <time>2020-11-13T11:29:29Z</time>
      </trkpt>
      <trkpt lat="40.529506000" lon="-4.009811000">
        <ele>846.2</ele>
        <time>2020-11-13T11:29:32Z</time>
      </trkpt>
      <trkpt lat="40.529629000" lon="-4.009835000">
        <ele>846.3</ele>
        <time>2020-11-13T11:29:35Z</time>
      </trkpt>
      <trkpt lat="40.529739000" lon="-4.009868000">
        <ele>846.4</ele>
        <time>2020-11-13T11:29:38Z</time>
      </trkpt>
      <trkpt lat="40.529838000" lon="-4.009918000">
        <ele>846.5</ele>
        <time>2020-11-13T11:29:41Z</time>
      </trkpt>
      <trkpt lat="40.529949000" lon="-4.009967000">
        <ele>846.5</ele>
        <time>2020-11-13T11:29:44Z</time>
      </trkpt>
      <trkpt lat="40.530048000" lon="-4.010018000">
        <ele>846.6</ele>
        <time>2020-11-13T11:29:47Z</time>
      </trkpt>
      <trkpt lat="40.530156000" lon="-4.010066000">
        <ele>846.7</ele>
        <time>2020-11-13T11:29:50Z</time>
      </trkpt>
      <trkpt lat="40.530265000" lon="-4.010121000">
        <ele>846.8</ele>
        <time>2020-11-13T11:29:53Z</time>
      </trkpt>
      <trkpt lat="40.530356000" lon="-4.010186000">
        <ele>846.9</ele>
        <time>2020-11-13T11:29:56Z</time>
      </trkpt>
      <trkpt lat="40.530452000" lon="-4.010251000">
        <ele>847.1</ele>
        <time>2020-11-13T11:29:59Z</time>
      </trkpt>
      <trkpt lat="40.530554000" lon="-4.010324000">
        <ele>847.3</ele>
        <time>2020-11-13T11:30:02Z</time>
      </trkpt>
      <trkpt lat="40.530644000" lon="-4.010405000">
        <ele>847.5</ele>
        <time>2020-11-13T11:30:05Z</time>
      </trkpt>
      <trkpt lat="40.530749000" lon="-4.010505000">
        <ele>847.7</ele>
        <time>2020-11-13T11:30:08Z</time>
      </trkpt>
      <trkpt lat="40.530865000" lon="-4.010591000">
        <ele>848.0</ele>
        <time>2020-11-13T11:30:11Z</time>
      </trkpt>
      <trkpt lat="40.530985000" lon="-4.010653000">
        <ele>848.3</ele>
        <time>2020-11-13T11:30:14Z</time>
      </trkpt>
      <trkpt lat="40.531107000" lon="-4.010712000">
        <ele>848.5</ele>
        <time>2020-11-13T11:30:17Z</time>
      </trkpt>
      <trkpt lat="40.531222000" lon="-4.010758000">
        <ele>848.8</ele>
        <time>2020-11-13T11:30:20Z</time>
      </trkpt>
      <trkpt lat="40.531328000" lon="-4.010758000">
        <ele>849.1</ele>
        <time>2020-11-13T11:30:22Z</time>
      </trkpt>
      <trkpt lat="40.531425000" lon="-4.010779000">
        <ele>849.4</ele>
        <time>2020-11-13T11:30:24Z</time>
      </trkpt>
      <trkpt lat="40.531543000" lon="-4.010787000">
        <ele>849.6</ele>
        <time>2020-11-13T11:30:27Z</time>
      </trkpt>
      <trkpt lat="40.531687000" lon="-4.010798000">
        <ele>849.8</ele>
        <time>2020-11-13T11:30:30Z</time>
      </trkpt>
      <trkpt lat="40.531821000" lon="-4.010771000">
        <ele>849.9</ele>
        <time>2020-11-13T11:30:33Z</time>
      </trkpt>
      <trkpt lat="40.531939000" lon="-4.010766000">
        <ele>849.9</ele>
        <time>2020-11-13T11:30:36Z</time>
      </trkpt>
      <trkpt lat="40.532073000" lon="-4.010756000">
        <ele>849.9</ele>
        <time>2020-11-13T11:30:39Z</time>
      </trkpt>
      <trkpt lat="40.532163000" lon="-4.010757000">
        <ele>849.9</ele>
        <time>2020-11-13T11:30:41Z</time>
      </trkpt>
      <trkpt lat="40.532287000" lon="-4.010746000">
        <ele>850.0</ele>
        <time>2020-11-13T11:30:44Z</time>
      </trkpt>
      <trkpt lat="40.532377000" lon="-4.010735000">
        <ele>850.2</ele>
        <time>2020-11-13T11:30:46Z</time>
      </trkpt>
      <trkpt lat="40.532491000" lon="-4.010707000">
        <ele>850.5</ele>
        <time>2020-11-13T11:30:48Z</time>
      </trkpt>
      <trkpt lat="40.532614000" lon="-4.010686000">
        <ele>850.9</ele>
        <time>2020-11-13T11:30:51Z</time>
      </trkpt>
      <trkpt lat="40.532706000" lon="-4.010675000">
        <ele>851.5</ele>
        <time>2020-11-13T11:30:53Z</time>
      </trkpt>
      <trkpt lat="40.532828000" lon="-4.010671000">
        <ele>852.0</ele>
        <time>2020-11-13T11:30:56Z</time>
      </trkpt>
      <trkpt lat="40.532918000" lon="-4.010690000">
        <ele>852.5</ele>
        <time>2020-11-13T11:30:58Z</time>
      </trkpt>
      <trkpt lat="40.533033000" lon="-4.010728000">
        <ele>853.0</ele>
        <time>2020-11-13T11:31:01Z</time>
      </trkpt>
      <trkpt lat="40.533162000" lon="-4.010776000">
        <ele>853.5</ele>
        <time>2020-11-13T11:31:04Z</time>
      </trkpt>
      <trkpt lat="40.533276000" lon="-4.010823000">
        <ele>854.0</ele>
        <time>2020-11-13T11:31:07Z</time>
      </trkpt>
      <trkpt lat="40.533373000" lon="-4.010868000">
        <ele>854.5</ele>
        <time>2020-11-13T11:31:10Z</time>
      </trkpt>
      <trkpt lat="40.533473000" lon="-4.010917000">
        <ele>854.7</ele>
        <time>2020-11-13T11:31:13Z</time>
      </trkpt>
      <trkpt lat="40.533575000" lon="-4.010949000">
        <ele>854.9</ele>
        <time>2020-11-13T11:31:16Z</time>
      </trkpt>
      <trkpt lat="40.533672000" lon="-4.010959000">
        <ele>855.0</ele>
        <time>2020-11-13T11:31:19Z</time>
      </trkpt>
      <trkpt lat="40.533783000" lon="-4.010968000">
        <ele>854.9</ele>
        <time>2020-11-13T11:31:23Z</time>
      </trkpt>
      <trkpt lat="40.533885000" lon="-4.010976000">
        <ele>854.6</ele>
        <time>2020-11-13T11:31:26Z</time>
      </trkpt>
      <trkpt lat="40.534005000" lon="-4.010968000">
        <ele>854.5</ele>
        <time>2020-11-13T11:31:29Z</time>
      </trkpt>
      <trkpt lat="40.534125000" lon="-4.010948000">
        <ele>854.3</ele>
        <time>2020-11-13T11:31:32Z</time>
      </trkpt>
      <trkpt lat="40.534234000" lon="-4.010914000">
        <ele>854.3</ele>
        <time>2020-11-13T11:31:35Z</time>
      </trkpt>
      <trkpt lat="40.534346000" lon="-4.010893000">
        <ele>854.4</ele>
        <time>2020-11-13T11:31:38Z</time>
      </trkpt>
      <trkpt lat="40.534446000" lon="-4.010859000">
        <ele>854.5</ele>
        <time>2020-11-13T11:31:41Z</time>
      </trkpt>
      <trkpt lat="40.534565000" lon="-4.010818000">
        <ele>854.8</ele>
        <time>2020-11-13T11:31:44Z</time>
      </trkpt>
      <trkpt lat="40.534656000" lon="-4.010791000">
        <ele>855.2</ele>
        <time>2020-11-13T11:31:46Z</time>
      </trkpt>
      <trkpt lat="40.534776000" lon="-4.010756000">
        <ele>855.5</ele>
        <time>2020-11-13T11:31:49Z</time>
      </trkpt>
      <trkpt lat="40.534899000" lon="-4.010713000">
        <ele>855.6</ele>
        <time>2020-11-13T11:31:52Z</time>
      </trkpt>
      <trkpt lat="40.535021000" lon="-4.010654000">
        <ele>855.8</ele>
        <time>2020-11-13T11:31:55Z</time>
      </trkpt>
      <trkpt lat="40.535150000" lon="-4.010606000">
        <ele>856.0</ele>
        <time>2020-11-13T11:31:58Z</time>
      </trkpt>
      <trkpt lat="40.535273000" lon="-4.010583000">
        <ele>856.1</ele>
        <time>2020-11-13T11:32:01Z</time>
      </trkpt>
      <trkpt lat="40.535362000" lon="-4.010547000">
        <ele>856.2</ele>
        <time>2020-11-13T11:32:03Z</time>
      </trkpt>
      <trkpt lat="40.535467000" lon="-4.010520000">
        <ele>856.2</ele>
        <time>2020-11-13T11:32:05Z</time>
      </trkpt>
      <trkpt lat="40.535579000" lon="-4.010503000">
        <ele>856.1</ele>
        <time>2020-11-13T11:32:07Z</time>
      </trkpt>
      <trkpt lat="40.535677000" lon="-4.010486000">
        <ele>855.9</ele>
        <time>2020-11-13T11:32:09Z</time>
      </trkpt>
      <trkpt lat="40.535786000" lon="-4.010455000">
        <ele>855.6</ele>
        <time>2020-11-13T11:32:11Z</time>
      </trkpt>
      <trkpt lat="40.535902000" lon="-4.010434000">
        <ele>855.3</ele>
        <time>2020-11-13T11:32:13Z</time>
      </trkpt>
      <trkpt lat="40.535998000" lon="-4.010389000">
        <ele>855.0</ele>
        <time>2020-11-13T11:32:15Z</time>
      </trkpt>
      <trkpt lat="40.536085000" lon="-4.010350000">
        <ele>854.7</ele>
        <time>2020-11-13T11:32:17Z</time>
      </trkpt>
      <trkpt lat="40.536180000" lon="-4.010294000">
        <ele>854.5</ele>
        <time>2020-11-13T11:32:19Z</time>
      </trkpt>
      <trkpt lat="40.536266000" lon="-4.010228000">
        <ele>854.3</ele>
        <time>2020-11-13T11:32:21Z</time>
      </trkpt>
      <trkpt lat="40.536355000" lon="-4.010161000">
        <ele>854.1</ele>
        <time>2020-11-13T11:32:23Z</time>
      </trkpt>
      <trkpt lat="40.536445000" lon="-4.010087000">
        <ele>853.9</ele>
        <time>2020-11-13T11:32:25Z</time>
      </trkpt>
      <trkpt lat="40.536523000" lon="-4.010012000">
        <ele>853.7</ele>
        <time>2020-11-13T11:32:27Z</time>
      </trkpt>
      <trkpt lat="40.536608000" lon="-4.009932000">
        <ele>853.6</ele>
        <time>2020-11-13T11:32:29Z</time>
      </trkpt>
      <trkpt lat="40.536676000" lon="-4.009845000">
        <ele>853.6</ele>
        <time>2020-11-13T11:32:31Z</time>
      </trkpt>
      <trkpt lat="40.536746000" lon="-4.009768000">
        <ele>853.6</ele>
        <time>2020-11-13T11:32:33Z</time>
      </trkpt>
      <trkpt lat="40.536846000" lon="-4.009659000">
        <ele>853.8</ele>
        <time>2020-11-13T11:32:36Z</time>
      </trkpt>
      <trkpt lat="40.536927000" lon="-4.009600000">
        <ele>854.1</ele>
        <time>2020-11-13T11:32:38Z</time>
      </trkpt>
      <trkpt lat="40.537029000" lon="-4.009508000">
        <ele>854.5</ele>
        <time>2020-11-13T11:32:41Z</time>
      </trkpt>
      <trkpt lat="40.537125000" lon="-4.009455000">
        <ele>854.9</ele>
        <time>2020-11-13T11:32:43Z</time>
      </trkpt>
      <trkpt lat="40.537219000" lon="-4.009414000">
        <ele>855.5</ele>
        <time>2020-11-13T11:32:45Z</time>
      </trkpt>
      <trkpt lat="40.537322000" lon="-4.009386000">
        <ele>856.0</ele>
        <time>2020-11-13T11:32:47Z</time>
      </trkpt>
      <trkpt lat="40.537428000" lon="-4.009363000">
        <ele>856.5</ele>
        <time>2020-11-13T11:32:49Z</time>
      </trkpt>
      <trkpt lat="40.537522000" lon="-4.009371000">
        <ele>857.1</ele>
        <time>2020-11-13T11:32:51Z</time>
      </trkpt>
      <trkpt lat="40.537615000" lon="-4.009382000">
        <ele>857.5</ele>
        <time>2020-11-13T11:32:53Z</time>
      </trkpt>
      <trkpt lat="40.537724000" lon="-4.009411000">
        <ele>857.7</ele>
        <time>2020-11-13T11:32:55Z</time>
      </trkpt>
      <trkpt lat="40.537824000" lon="-4.009446000">
        <ele>857.9</ele>
        <time>2020-11-13T11:32:58Z</time>
      </trkpt>
      <trkpt lat="40.537908000" lon="-4.009503000">
        <ele>858.0</ele>
        <time>2020-11-13T11:33:00Z</time>
      </trkpt>
      <trkpt lat="40.538002000" lon="-4.009540000">
        <ele>858.0</ele>
        <time>2020-11-13T11:33:02Z</time>
      </trkpt>
      <trkpt lat="40.538103000" lon="-4.009595000">
        <ele>858.0</ele>
        <time>2020-11-13T11:33:04Z</time>
      </trkpt>
      <trkpt lat="40.538249000" lon="-4.009658000">
        <ele>857.9</ele>
        <time>2020-11-13T11:33:07Z</time>
      </trkpt>
      <trkpt lat="40.538338000" lon="-4.009704000">
        <ele>857.8</ele>
        <time>2020-11-13T11:33:09Z</time>
      </trkpt>
      <trkpt lat="40.538420000" lon="-4.009753000">
        <ele>857.8</ele>
        <time>2020-11-13T11:33:11Z</time>
      </trkpt>
      <trkpt lat="40.538508000" lon="-4.009800000">
        <ele>857.9</ele>
        <time>2020-11-13T11:33:13Z</time>
      </trkpt>
      <trkpt lat="40.538591000" lon="-4.009846000">
        <ele>858.0</ele>
        <time>2020-11-13T11:33:15Z</time>
      </trkpt>
      <trkpt lat="40.538713000" lon="-4.009922000">
        <ele>858.3</ele>
        <time>2020-11-13T11:33:18Z</time>
      </trkpt>
      <trkpt lat="40.538809000" lon="-4.009962000">
        <ele>858.5</ele>
        <time>2020-11-13T11:33:20Z</time>
      </trkpt>
      <trkpt lat="40.538915000" lon="-4.010014000">
        <ele>858.7</ele>
        <time>2020-11-13T11:33:22Z</time>
      </trkpt>
      <trkpt lat="40.539041000" lon="-4.010056000">
        <ele>859.1</ele>
        <time>2020-11-13T11:33:24Z</time>
      </trkpt>
      <trkpt lat="40.539137000" lon="-4.010122000">
        <ele>859.5</ele>
        <time>2020-11-13T11:33:27Z</time>
      </trkpt>
      <trkpt lat="40.539257000" lon="-4.010180000">
        <ele>859.9</ele>
        <time>2020-11-13T11:33:30Z</time>
      </trkpt>
      <trkpt lat="40.539393000" lon="-4.010237000">
        <ele>860.5</ele>
        <time>2020-11-13T11:33:33Z</time>
      </trkpt>
      <trkpt lat="40.539510000" lon="-4.010303000">
        <ele>861.1</ele>
        <time>2020-11-13T11:33:36Z</time>
      </trkpt>
      <trkpt lat="40.539632000" lon="-4.010360000">
        <ele>861.6</ele>
        <time>2020-11-13T11:33:39Z</time>
      </trkpt>
      <trkpt lat="40.539743000" lon="-4.010401000">
        <ele>862.1</ele>
        <time>2020-11-13T11:33:42Z</time>
      </trkpt>
      <trkpt lat="40.539867000" lon="-4.010448000">
        <ele>862.6</ele>
        <time>2020-11-13T11:33:45Z</time>
      </trkpt>
      <trkpt lat="40.539975000" lon="-4.010489000">
        <ele>863.1</ele>
        <time>2020-11-13T11:33:48Z</time>
      </trkpt>
      <trkpt lat="40.540083000" lon="-4.010527000">
        <ele>863.6</ele>
        <time>2020-11-13T11:33:51Z</time>
      </trkpt>
      <trkpt lat="40.540202000" lon="-4.010557000">
        <ele>864.3</ele>
        <time>2020-11-13T11:33:54Z</time>
      </trkpt>
      <trkpt lat="40.540341000" lon="-4.010560000">
        <ele>864.9</ele>
        <time>2020-11-13T11:33:56Z</time>
      </trkpt>
      <trkpt lat="40.540441000" lon="-4.010567000">
        <ele>865.5</ele>
        <time>2020-11-13T11:34:01Z</time>
      </trkpt>
      <trkpt lat="40.540537000" lon="-4.010592000">
        <ele>866.1</ele>
        <time>2020-11-13T11:34:03Z</time>
      </trkpt>
      <trkpt lat="40.540630000" lon="-4.010602000">
        <ele>866.5</ele>
        <time>2020-11-13T11:34:06Z</time>
      </trkpt>
      <trkpt lat="40.540748000" lon="-4.010613000">
        <ele>867.0</ele>
        <time>2020-11-13T11:34:09Z</time>
      </trkpt>
      <trkpt lat="40.540868000" lon="-4.010624000">
        <ele>867.4</ele>
        <time>2020-11-13T11:34:12Z</time>
      </trkpt>
      <trkpt lat="40.540993000" lon="-4.010633000">
        <ele>867.7</ele>
        <time>2020-11-13T11:34:15Z</time>
      </trkpt>
      <trkpt lat="40.541120000" lon="-4.010647000">
        <ele>868.0</ele>
        <time>2020-11-13T11:34:18Z</time>
      </trkpt>
      <trkpt lat="40.541247000" lon="-4.010654000">
        <ele>868.3</ele>
        <time>2020-11-13T11:34:21Z</time>
      </trkpt>
      <trkpt lat="40.541369000" lon="-4.010664000">
        <ele>868.5</ele>
        <time>2020-11-13T11:34:24Z</time>
      </trkpt>
      <trkpt lat="40.541484000" lon="-4.010675000">
        <ele>868.7</ele>
        <time>2020-11-13T11:34:27Z</time>
      </trkpt>
      <trkpt lat="40.541581000" lon="-4.010685000">
        <ele>868.8</ele>
        <time>2020-11-13T11:34:30Z</time>
      </trkpt>
      <trkpt lat="40.541686000" lon="-4.010704000">
        <ele>868.9</ele>
        <time>2020-11-13T11:34:33Z</time>
      </trkpt>
      <trkpt lat="40.541791000" lon="-4.010720000">
        <ele>869.0</ele>
        <time>2020-11-13T11:34:36Z</time>
      </trkpt>
      <trkpt lat="40.541895000" lon="-4.010743000">
        <ele>868.9</ele>
        <time>2020-11-13T11:34:39Z</time>
      </trkpt>
      <trkpt lat="40.542000000" lon="-4.010777000">
        <ele>868.8</ele>
        <time>2020-11-13T11:34:42Z</time>
      </trkpt>
      <trkpt lat="40.542106000" lon="-4.010817000">
        <ele>868.7</ele>
        <time>2020-11-13T11:34:45Z</time>
      </trkpt>
      <trkpt lat="40.542214000" lon="-4.010856000">
        <ele>868.6</ele>
        <time>2020-11-13T11:34:48Z</time>
      </trkpt>
      <trkpt lat="40.542329000" lon="-4.010826000">
        <ele>868.5</ele>
        <time>2020-11-13T11:34:50Z</time>
      </trkpt>
      <trkpt lat="40.542421000" lon="-4.010820000">
        <ele>868.4</ele>
        <time>2020-11-13T11:34:52Z</time>
      </trkpt>
      <trkpt lat="40.542528000" lon="-4.010850000">
        <ele>868.2</ele>
        <time>2020-11-13T11:34:54Z</time>
      </trkpt>
      <trkpt lat="40.542613000" lon="-4.010930000">
        <ele>868.0</ele>
        <time>2020-11-13T11:34:56Z</time>
      </trkpt>
      <trkpt lat="40.542716000" lon="-4.010977000">
        <ele>867.8</ele>
        <time>2020-11-13T11:34:58Z</time>
      </trkpt>
      <trkpt lat="40.542839000" lon="-4.011015000">
        <ele>867.6</ele>
        <time>2020-11-13T11:35:00Z</time>
      </trkpt>
      <trkpt lat="40.542950000" lon="-4.011040000">
        <ele>867.4</ele>
        <time>2020-11-13T11:35:02Z</time>
      </trkpt>
      <trkpt lat="40.543069000" lon="-4.011054000">
        <ele>867.2</ele>
        <time>2020-11-13T11:35:04Z</time>
      </trkpt>
      <trkpt lat="40.543204000" lon="-4.011068000">
        <ele>867.1</ele>
        <time>2020-11-13T11:35:06Z</time>
      </trkpt>
      <trkpt lat="40.543321000" lon="-4.011076000">
        <ele>867.0</ele>
        <time>2020-11-13T11:35:08Z</time>
      </trkpt>
      <trkpt lat="40.543447000" lon="-4.011097000">
        <ele>866.9</ele>
        <time>2020-11-13T11:35:10Z</time>
      </trkpt>
      <trkpt lat="40.543555000" lon="-4.011106000">
        <ele>866.9</ele>
        <time>2020-11-13T11:35:12Z</time>
      </trkpt>
      <trkpt lat="40.543663000" lon="-4.011100000">
        <ele>867.0</ele>
        <time>2020-11-13T11:35:14Z</time>
      </trkpt>
      <trkpt lat="40.543781000" lon="-4.011136000">
        <ele>867.0</ele>
        <time>2020-11-13T11:35:16Z</time>
      </trkpt>
      <trkpt lat="40.543907000" lon="-4.011152000">
        <ele>867.0</ele>
        <time>2020-11-13T11:35:18Z</time>
      </trkpt>
      <trkpt lat="40.544014000" lon="-4.011172000">
        <ele>867.0</ele>
        <time>2020-11-13T11:35:20Z</time>
      </trkpt>
      <trkpt lat="40.544131000" lon="-4.011192000">
        <ele>867.0</ele>
        <time>2020-11-13T11:35:22Z</time>
      </trkpt>
      <trkpt lat="40.544235000" lon="-4.011200000">
        <ele>867.1</ele>
        <time>2020-11-13T11:35:24Z</time>
      </trkpt>
      <trkpt lat="40.544357000" lon="-4.011216000">
        <ele>867.2</ele>
        <time>2020-11-13T11:35:26Z</time>
      </trkpt>
      <trkpt lat="40.544472000" lon="-4.011230000">
        <ele>867.2</ele>
        <time>2020-11-13T11:35:28Z</time>
      </trkpt>
      <trkpt lat="40.544594000" lon="-4.011249000">
        <ele>867.3</ele>
        <time>2020-11-13T11:35:30Z</time>
      </trkpt>
      <trkpt lat="40.544683000" lon="-4.011278000">
        <ele>867.4</ele>
        <time>2020-11-13T11:35:32Z</time>
      </trkpt>
      <trkpt lat="40.544781000" lon="-4.011312000">
        <ele>867.5</ele>
        <time>2020-11-13T11:35:34Z</time>
      </trkpt>
      <trkpt lat="40.544891000" lon="-4.011364000">
        <ele>867.6</ele>
        <time>2020-11-13T11:35:36Z</time>
      </trkpt>
      <trkpt lat="40.545023000" lon="-4.011405000">
        <ele>867.9</ele>
        <time>2020-11-13T11:35:38Z</time>
      </trkpt>
      <trkpt lat="40.545163000" lon="-4.011438000">
        <ele>868.2</ele>
        <time>2020-11-13T11:35:40Z</time>
      </trkpt>
      <trkpt lat="40.545285000" lon="-4.011468000">
        <ele>868.5</ele>
        <time>2020-11-13T11:35:42Z</time>
      </trkpt>
      <trkpt lat="40.545410000" lon="-4.011469000">
        <ele>868.7</ele>
        <time>2020-11-13T11:35:44Z</time>
      </trkpt>
      <trkpt lat="40.545527000" lon="-4.011467000">
        <ele>869.0</ele>
        <time>2020-11-13T11:35:47Z</time>
      </trkpt>
      <trkpt lat="40.545628000" lon="-4.011425000">
        <ele>869.3</ele>
        <time>2020-11-13T11:35:49Z</time>
      </trkpt>
      <trkpt lat="40.545745000" lon="-4.011402000">
        <ele>869.6</ele>
        <time>2020-11-13T11:35:51Z</time>
      </trkpt>
      <trkpt lat="40.545846000" lon="-4.011385000">
        <ele>869.9</ele>
        <time>2020-11-13T11:35:53Z</time>
      </trkpt>
      <trkpt lat="40.545953000" lon="-4.011372000">
        <ele>870.2</ele>
        <time>2020-11-13T11:35:55Z</time>
      </trkpt>
      <trkpt lat="40.546078000" lon="-4.011362000">
        <ele>870.4</ele>
        <time>2020-11-13T11:35:57Z</time>
      </trkpt>
      <trkpt lat="40.546210000" lon="-4.011345000">
        <ele>870.4</ele>
        <time>2020-11-13T11:35:59Z</time>
      </trkpt>
      <trkpt lat="40.546352000" lon="-4.011302000">
        <ele>870.5</ele>
        <time>2020-11-13T11:36:02Z</time>
      </trkpt>
      <trkpt lat="40.546449000" lon="-4.011295000">
        <ele>870.5</ele>
        <time>2020-11-13T11:36:05Z</time>
      </trkpt>
      <trkpt lat="40.546558000" lon="-4.011282000">
        <ele>870.6</ele>
        <time>2020-11-13T11:36:08Z</time>
      </trkpt>
      <trkpt lat="40.546648000" lon="-4.011263000">
        <ele>870.7</ele>
        <time>2020-11-13T11:36:10Z</time>
      </trkpt>
      <trkpt lat="40.546748000" lon="-4.011224000">
        <ele>870.8</ele>
        <time>2020-11-13T11:36:13Z</time>
      </trkpt>
      <trkpt lat="40.546855000" lon="-4.011192000">
        <ele>871.0</ele>
        <time>2020-11-13T11:36:16Z</time>
      </trkpt>
      <trkpt lat="40.546975000" lon="-4.011167000">
        <ele>871.1</ele>
        <time>2020-11-13T11:36:19Z</time>
      </trkpt>
      <trkpt lat="40.547071000" lon="-4.011152000">
        <ele>871.2</ele>
        <time>2020-11-13T11:36:21Z</time>
      </trkpt>
      <trkpt lat="40.547177000" lon="-4.011164000">
        <ele>871.3</ele>
        <time>2020-11-13T11:36:23Z</time>
      </trkpt>
      <trkpt lat="40.547266000" lon="-4.011141000">
        <ele>871.3</ele>
        <time>2020-11-13T11:36:25Z</time>
      </trkpt>
      <trkpt lat="40.547374000" lon="-4.011119000">
        <ele>871.4</ele>
        <time>2020-11-13T11:36:28Z</time>
      </trkpt>
      <trkpt lat="40.547478000" lon="-4.011115000">
        <ele>871.5</ele>
        <time>2020-11-13T11:36:31Z</time>
      </trkpt>
      <trkpt lat="40.547553000" lon="-4.011049000">
        <ele>871.6</ele>
        <time>2020-11-13T11:36:36Z</time>
      </trkpt>
      <trkpt lat="40.547553000" lon="-4.011044000">
        <ele>871.7</ele>
        <time>2020-11-13T11:36:44Z</time>
      </trkpt>
      <trkpt lat="40.547553000" lon="-4.011044000">
        <ele>872.0</ele>
        <time>2020-11-13T11:37:32Z</time>
      </trkpt>
      <trkpt lat="40.547553000" lon="-4.011044000">
        <ele>872.0</ele>
        <time>2020-11-13T11:37:43Z</time>
      </trkpt>
      <trkpt lat="40.547521000" lon="-4.011150000">
        <ele>871.5</ele>
        <time>2020-11-13T11:38:51Z</time>
      </trkpt>
      <trkpt lat="40.547473000" lon="-4.011174000">
        <ele>871.3</ele>
        <time>2020-11-13T11:38:52Z</time>
      </trkpt>
      <trkpt lat="40.547362000" lon="-4.011198000">
        <ele>871.1</ele>
        <time>2020-11-13T11:38:54Z</time>
      </trkpt>
      <trkpt lat="40.547248000" lon="-4.011210000">
        <ele>871.0</ele>
        <time>2020-11-13T11:38:56Z</time>
      </trkpt>
      <trkpt lat="40.547139000" lon="-4.011235000">
        <ele>870.9</ele>
        <time>2020-11-13T11:38:58Z</time>
      </trkpt>
      <trkpt lat="40.547023000" lon="-4.011274000">
        <ele>870.8</ele>
        <time>2020-11-13T11:39:00Z</time>
      </trkpt>
      <trkpt lat="40.546930000" lon="-4.011416000">
        <ele>870.6</ele>
        <time>2020-11-13T11:39:02Z</time>
      </trkpt>
      <trkpt lat="40.546820000" lon="-4.011503000">
        <ele>870.5</ele>
        <time>2020-11-13T11:39:04Z</time>
      </trkpt>
      <trkpt lat="40.546709000" lon="-4.011602000">
        <ele>870.5</ele>
        <time>2020-11-13T11:39:06Z</time>
      </trkpt>
      <trkpt lat="40.546602000" lon="-4.011643000">
        <ele>870.5</ele>
        <time>2020-11-13T11:39:08Z</time>
      </trkpt>
      <trkpt lat="40.546549000" lon="-4.011776000">
        <ele>870.6</ele>
        <time>2020-11-13T11:39:10Z</time>
      </trkpt>
      <trkpt lat="40.546546000" lon="-4.011928000">
        <ele>870.7</ele>
        <time>2020-11-13T11:39:13Z</time>
      </trkpt>
      <trkpt lat="40.546544000" lon="-4.012091000">
        <ele>870.9</ele>
        <time>2020-11-13T11:39:17Z</time>
      </trkpt>
      <trkpt lat="40.546494000" lon="-4.012266000">
        <ele>871.1</ele>
        <time>2020-11-13T11:39:20Z</time>
      </trkpt>
      <trkpt lat="40.546441000" lon="-4.012399000">
        <ele>871.3</ele>
        <time>2020-11-13T11:39:22Z</time>
      </trkpt>
      <trkpt lat="40.546393000" lon="-4.012526000">
        <ele>871.5</ele>
        <time>2020-11-13T11:39:24Z</time>
      </trkpt>
      <trkpt lat="40.546348000" lon="-4.012634000">
        <ele>871.6</ele>
        <time>2020-11-13T11:39:26Z</time>
      </trkpt>
      <trkpt lat="40.546258000" lon="-4.012728000">
        <ele>871.8</ele>
        <time>2020-11-13T11:39:30Z</time>
      </trkpt>
      <trkpt lat="40.546167000" lon="-4.012806000">
        <ele>871.9</ele>
        <time>2020-11-13T11:39:33Z</time>
      </trkpt>
      <trkpt lat="40.546102000" lon="-4.012900000">
        <ele>872.0</ele>
        <time>2020-11-13T11:39:35Z</time>
      </trkpt>
      <trkpt lat="40.546022000" lon="-4.013021000">
        <ele>872.0</ele>
        <time>2020-11-13T11:39:37Z</time>
      </trkpt>
      <trkpt lat="40.545944000" lon="-4.013126000">
        <ele>872.0</ele>
        <time>2020-11-13T11:39:40Z</time>
      </trkpt>
      <trkpt lat="40.545934000" lon="-4.013141000">
        <ele>872.0</ele>
        <time>2020-11-13T11:40:16Z</time>
      </trkpt>
      <trkpt lat="40.545840000" lon="-4.013174000">
        <ele>870.8</ele>
        <time>2020-11-13T11:40:38Z</time>
      </trkpt>
      <trkpt lat="40.545732000" lon="-4.013284000">
        <ele>870.6</ele>
        <time>2020-11-13T11:40:41Z</time>
      </trkpt>
      <trkpt lat="40.545641000" lon="-4.013381000">
        <ele>870.4</ele>
        <time>2020-11-13T11:40:43Z</time>
      </trkpt>
      <trkpt lat="40.545552000" lon="-4.013467000">
        <ele>870.1</ele>
        <time>2020-11-13T11:40:45Z</time>
      </trkpt>
      <trkpt lat="40.545469000" lon="-4.013539000">
        <ele>869.9</ele>
        <time>2020-11-13T11:40:47Z</time>
      </trkpt>
      <trkpt lat="40.545361000" lon="-4.013630000">
        <ele>869.8</ele>
        <time>2020-11-13T11:40:50Z</time>
      </trkpt>
      <trkpt lat="40.545289000" lon="-4.013702000">
        <ele>869.6</ele>
        <time>2020-11-13T11:40:52Z</time>
      </trkpt>
      <trkpt lat="40.545201000" lon="-4.013756000">
        <ele>869.4</ele>
        <time>2020-11-13T11:40:54Z</time>
      </trkpt>
      <trkpt lat="40.545105000" lon="-4.013837000">
        <ele>869.1</ele>
        <time>2020-11-13T11:40:56Z</time>
      </trkpt>
      <trkpt lat="40.545007000" lon="-4.013892000">
        <ele>868.7</ele>
        <time>2020-11-13T11:40:58Z</time>
      </trkpt>
      <trkpt lat="40.544911000" lon="-4.013909000">
        <ele>868.4</ele>
        <time>2020-11-13T11:41:00Z</time>
      </trkpt>
      <trkpt lat="40.544792000" lon="-4.013925000">
        <ele>867.9</ele>
        <time>2020-11-13T11:41:02Z</time>
      </trkpt>
      <trkpt lat="40.544662000" lon="-4.013955000">
        <ele>867.5</ele>
        <time>2020-11-13T11:41:04Z</time>
      </trkpt>
      <trkpt lat="40.544519000" lon="-4.013991000">
        <ele>866.9</ele>
        <time>2020-11-13T11:41:06Z</time>
      </trkpt>
      <trkpt lat="40.544379000" lon="-4.014016000">
        <ele>866.5</ele>
        <time>2020-11-13T11:41:08Z</time>
      </trkpt>
      <trkpt lat="40.544232000" lon="-4.014029000">
        <ele>866.0</ele>
        <time>2020-11-13T11:41:10Z</time>
      </trkpt>
      <trkpt lat="40.544120000" lon="-4.014016000">
        <ele>865.5</ele>
        <time>2020-11-13T11:41:12Z</time>
      </trkpt>
      <trkpt lat="40.543994000" lon="-4.014066000">
        <ele>865.1</ele>
        <time>2020-11-13T11:41:14Z</time>
      </trkpt>
      <trkpt lat="40.543901000" lon="-4.014081000">
        <ele>864.7</ele>
        <time>2020-11-13T11:41:16Z</time>
      </trkpt>
      <trkpt lat="40.543788000" lon="-4.014101000">
        <ele>864.2</ele>
        <time>2020-11-13T11:41:18Z</time>
      </trkpt>
      <trkpt lat="40.543682000" lon="-4.014115000">
        <ele>863.9</ele>
        <time>2020-11-13T11:41:20Z</time>
      </trkpt>
      <trkpt lat="40.543597000" lon="-4.014152000">
        <ele>863.5</ele>
        <time>2020-11-13T11:41:32Z</time>
      </trkpt>
      <trkpt lat="40.543511000" lon="-4.014142000">
        <ele>863.5</ele>
        <time>2020-11-13T11:41:50Z</time>
      </trkpt>
      <trkpt lat="40.543445000" lon="-4.014139000">
        <ele>863.3</ele>
        <time>2020-11-13T11:41:53Z</time>
      </trkpt>
      <trkpt lat="40.543323000" lon="-4.014177000">
        <ele>863.1</ele>
        <time>2020-11-13T11:41:56Z</time>
      </trkpt>
      <trkpt lat="40.543220000" lon="-4.014210000">
        <ele>862.9</ele>
        <time>2020-11-13T11:41:58Z</time>
      </trkpt>
      <trkpt lat="40.543114000" lon="-4.014248000">
        <ele>862.7</ele>
        <time>2020-11-13T11:42:00Z</time>
      </trkpt>
      <trkpt lat="40.542998000" lon="-4.014340000">
        <ele>862.4</ele>
        <time>2020-11-13T11:42:02Z</time>
      </trkpt>
      <trkpt lat="40.542873000" lon="-4.014373000">
        <ele>861.9</ele>
        <time>2020-11-13T11:42:04Z</time>
      </trkpt>
      <trkpt lat="40.542734000" lon="-4.014422000">
        <ele>861.3</ele>
        <time>2020-11-13T11:42:06Z</time>
      </trkpt>
      <trkpt lat="40.542591000" lon="-4.014460000">
        <ele>860.5</ele>
        <time>2020-11-13T11:42:08Z</time>
      </trkpt>
      <trkpt lat="40.542440000" lon="-4.014515000">
        <ele>859.7</ele>
        <time>2020-11-13T11:42:10Z</time>
      </trkpt>
      <trkpt lat="40.542289000" lon="-4.014556000">
        <ele>858.9</ele>
        <time>2020-11-13T11:42:12Z</time>
      </trkpt>
      <trkpt lat="40.542131000" lon="-4.014577000">
        <ele>858.1</ele>
        <time>2020-11-13T11:42:14Z</time>
      </trkpt>
      <trkpt lat="40.541985000" lon="-4.014570000">
        <ele>857.4</ele>
        <time>2020-11-13T11:42:16Z</time>
      </trkpt>
      <trkpt lat="40.541835000" lon="-4.014558000">
        <ele>856.5</ele>
        <time>2020-11-13T11:42:18Z</time>
      </trkpt>
      <trkpt lat="40.541735000" lon="-4.014568000">
        <ele>855.8</ele>
        <time>2020-11-13T11:42:20Z</time>
      </trkpt>
      <trkpt lat="40.541670000" lon="-4.014708000">
        <ele>855.1</ele>
        <time>2020-11-13T11:42:22Z</time>
      </trkpt>
      <trkpt lat="40.541626000" lon="-4.014873000">
        <ele>854.5</ele>
        <time>2020-11-13T11:42:24Z</time>
      </trkpt>
      <trkpt lat="40.541596000" lon="-4.015084000">
        <ele>854.1</ele>
        <time>2020-11-13T11:42:26Z</time>
      </trkpt>
      <trkpt lat="40.541587000" lon="-4.015269000">
        <ele>853.7</ele>
        <time>2020-11-13T11:42:28Z</time>
      </trkpt>
      <trkpt lat="40.541564000" lon="-4.015457000">
        <ele>853.5</ele>
        <time>2020-11-13T11:42:30Z</time>
      </trkpt>
      <trkpt lat="40.541528000" lon="-4.015628000">
        <ele>853.4</ele>
        <time>2020-11-13T11:42:32Z</time>
      </trkpt>
      <trkpt lat="40.541474000" lon="-4.015775000">
        <ele>853.3</ele>
        <time>2020-11-13T11:42:34Z</time>
      </trkpt>
      <trkpt lat="40.541415000" lon="-4.015910000">
        <ele>853.2</ele>
        <time>2020-11-13T11:42:36Z</time>
      </trkpt>
      <trkpt lat="40.541311000" lon="-4.016014000">
        <ele>853.1</ele>
        <time>2020-11-13T11:42:39Z</time>
      </trkpt>
      <trkpt lat="40.541265000" lon="-4.016129000">
        <ele>853.1</ele>
        <time>2020-11-13T11:42:43Z</time>
      </trkpt>
      <trkpt lat="40.541238000" lon="-4.016123000">
        <ele>853.2</ele>
        <time>2020-11-13T11:42:53Z</time>
      </trkpt>
      <trkpt lat="40.541192000" lon="-4.016029000">
        <ele>853.0</ele>
        <time>2020-11-13T11:43:16Z</time>
      </trkpt>
      <trkpt lat="40.541252000" lon="-4.015963000">
        <ele>853.1</ele>
        <time>2020-11-13T11:43:18Z</time>
      </trkpt>
      <trkpt lat="40.541372000" lon="-4.015918000">
        <ele>853.2</ele>
        <time>2020-11-13T11:43:21Z</time>
      </trkpt>
      <trkpt lat="40.541488000" lon="-4.015964000">
        <ele>853.3</ele>
        <time>2020-11-13T11:43:23Z</time>
      </trkpt>
      <trkpt lat="40.541577000" lon="-4.015978000">
        <ele>853.4</ele>
        <time>2020-11-13T11:43:25Z</time>
      </trkpt>
      <trkpt lat="40.541691000" lon="-4.016006000">
        <ele>853.4</ele>
        <time>2020-11-13T11:43:28Z</time>
      </trkpt>
      <trkpt lat="40.541803000" lon="-4.016017000">
        <ele>853.4</ele>
        <time>2020-11-13T11:43:32Z</time>
      </trkpt>
      <trkpt lat="40.541894000" lon="-4.016032000">
        <ele>853.4</ele>
        <time>2020-11-13T11:43:34Z</time>
      </trkpt>
      <trkpt lat="40.542002000" lon="-4.016038000">
        <ele>853.5</ele>
        <time>2020-11-13T11:43:36Z</time>
      </trkpt>
      <trkpt lat="40.542111000" lon="-4.016050000">
        <ele>853.7</ele>
        <time>2020-11-13T11:43:38Z</time>
      </trkpt>
      <trkpt lat="40.542272000" lon="-4.016083000">
        <ele>854.0</ele>
        <time>2020-11-13T11:43:43Z</time>
      </trkpt>
      <trkpt lat="40.542363000" lon="-4.016096000">
        <ele>854.3</ele>
        <time>2020-11-13T11:43:45Z</time>
      </trkpt>
      <trkpt lat="40.542467000" lon="-4.016075000">
        <ele>854.4</ele>
        <time>2020-11-13T11:43:48Z</time>
      </trkpt>
      <trkpt lat="40.542586000" lon="-4.016068000">
        <ele>854.5</ele>
        <time>2020-11-13T11:43:51Z</time>
      </trkpt>
      <trkpt lat="40.542714000" lon="-4.016064000">
        <ele>854.7</ele>
        <time>2020-11-13T11:43:53Z</time>
      </trkpt>
      <trkpt lat="40.542812000" lon="-4.016050000">
        <ele>855.0</ele>
        <time>2020-11-13T11:43:56Z</time>
      </trkpt>
      <trkpt lat="40.542908000" lon="-4.016040000">
        <ele>855.6</ele>
        <time>2020-11-13T11:43:59Z</time>
      </trkpt>
      <trkpt lat="40.543020000" lon="-4.016030000">
        <ele>856.4</ele>
        <time>2020-11-13T11:44:02Z</time>
      </trkpt>
      <trkpt lat="40.543113000" lon="-4.016027000">
        <ele>857.1</ele>
        <time>2020-11-13T11:44:05Z</time>
      </trkpt>
      <trkpt lat="40.543212000" lon="-4.016023000">
        <ele>857.8</ele>
        <time>2020-11-13T11:44:08Z</time>
      </trkpt>
      <trkpt lat="40.543385000" lon="-4.016012000">
        <ele>858.4</ele>
        <time>2020-11-13T11:44:11Z</time>
      </trkpt>
      <trkpt lat="40.543542000" lon="-4.016011000">
        <ele>858.9</ele>
        <time>2020-11-13T11:44:13Z</time>
      </trkpt>
      <trkpt lat="40.543641000" lon="-4.015997000">
        <ele>859.4</ele>
        <time>2020-11-13T11:44:16Z</time>
      </trkpt>
      <trkpt lat="40.543743000" lon="-4.016006000">
        <ele>859.9</ele>
        <time>2020-11-13T11:44:19Z</time>
      </trkpt>
      <trkpt lat="40.543849000" lon="-4.015995000">
        <ele>860.4</ele>
        <time>2020-11-13T11:44:22Z</time>
      </trkpt>
      <trkpt lat="40.543938000" lon="-4.015949000">
        <ele>860.8</ele>
        <time>2020-11-13T11:44:27Z</time>
      </trkpt>
      <trkpt lat="40.544014000" lon="-4.015879000">
        <ele>861.2</ele>
        <time>2020-11-13T11:44:31Z</time>
      </trkpt>
      <trkpt lat="40.544104000" lon="-4.015864000">
        <ele>861.4</ele>
        <time>2020-11-13T11:44:35Z</time>
      </trkpt>
      <trkpt lat="40.544175000" lon="-4.015962000">
        <ele>861.4</ele>
        <time>2020-11-13T11:44:40Z</time>
      </trkpt>
      <trkpt lat="40.544164000" lon="-4.016015000">
        <ele>861.5</ele>
        <time>2020-11-13T11:44:51Z</time>
      </trkpt>
      <trkpt lat="40.544104000" lon="-4.016095000">
        <ele>861.2</ele>
        <time>2020-11-13T11:45:24Z</time>
      </trkpt>
      <trkpt lat="40.544098000" lon="-4.016221000">
        <ele>860.9</ele>
        <time>2020-11-13T11:45:27Z</time>
      </trkpt>
      <trkpt lat="40.544124000" lon="-4.016337000">
        <ele>860.5</ele>
        <time>2020-11-13T11:45:29Z</time>
      </trkpt>
      <trkpt lat="40.544148000" lon="-4.016471000">
        <ele>860.1</ele>
        <time>2020-11-13T11:45:31Z</time>
      </trkpt>
      <trkpt lat="40.544164000" lon="-4.016625000">
        <ele>859.7</ele>
        <time>2020-11-13T11:45:33Z</time>
      </trkpt>
      <trkpt lat="40.544173000" lon="-4.016787000">
        <ele>859.3</ele>
        <time>2020-11-13T11:45:35Z</time>
      </trkpt>
      <trkpt lat="40.544167000" lon="-4.016963000">
        <ele>858.7</ele>
        <time>2020-11-13T11:45:37Z</time>
      </trkpt>
      <trkpt lat="40.544178000" lon="-4.017110000">
        <ele>858.1</ele>
        <time>2020-11-13T11:45:39Z</time>
      </trkpt>
      <trkpt lat="40.544193000" lon="-4.017263000">
        <ele>857.4</ele>
        <time>2020-11-13T11:45:41Z</time>
      </trkpt>
      <trkpt lat="40.544188000" lon="-4.017408000">
        <ele>856.5</ele>
        <time>2020-11-13T11:45:43Z</time>
      </trkpt>
      <trkpt lat="40.544169000" lon="-4.017560000">
        <ele>855.8</ele>
        <time>2020-11-13T11:45:45Z</time>
      </trkpt>
      <trkpt lat="40.544137000" lon="-4.017730000">
        <ele>855.1</ele>
        <time>2020-11-13T11:45:47Z</time>
      </trkpt>
      <trkpt lat="40.544086000" lon="-4.017937000">
        <ele>854.5</ele>
        <time>2020-11-13T11:45:49Z</time>
      </trkpt>
      <trkpt lat="40.544023000" lon="-4.018122000">
        <ele>853.8</ele>
        <time>2020-11-13T11:45:51Z</time>
      </trkpt>
      <trkpt lat="40.543981000" lon="-4.018320000">
        <ele>853.2</ele>
        <time>2020-11-13T11:45:53Z</time>
      </trkpt>
      <trkpt lat="40.543923000" lon="-4.018502000">
        <ele>852.6</ele>
        <time>2020-11-13T11:45:55Z</time>
      </trkpt>
      <trkpt lat="40.543840000" lon="-4.018615000">
        <ele>852.1</ele>
        <time>2020-11-13T11:45:59Z</time>
      </trkpt>
      <trkpt lat="40.543799000" lon="-4.018733000">
        <ele>851.5</ele>
        <time>2020-11-13T11:46:01Z</time>
      </trkpt>
      <trkpt lat="40.543784000" lon="-4.018930000">
        <ele>851.1</ele>
        <time>2020-11-13T11:46:03Z</time>
      </trkpt>
      <trkpt lat="40.543760000" lon="-4.019171000">
        <ele>850.6</ele>
        <time>2020-11-13T11:46:05Z</time>
      </trkpt>
      <trkpt lat="40.543750000" lon="-4.019392000">
        <ele>850.2</ele>
        <time>2020-11-13T11:46:07Z</time>
      </trkpt>
      <trkpt lat="40.543724000" lon="-4.019580000">
        <ele>849.7</ele>
        <time>2020-11-13T11:46:09Z</time>
      </trkpt>
      <trkpt lat="40.543703000" lon="-4.019723000">
        <ele>849.3</ele>
        <time>2020-11-13T11:46:10Z</time>
      </trkpt>
      <trkpt lat="40.543762000" lon="-4.019846000">
        <ele>848.8</ele>
        <time>2020-11-13T11:46:13Z</time>
      </trkpt>
      <trkpt lat="40.543771000" lon="-4.020018000">
        <ele>848.5</ele>
        <time>2020-11-13T11:46:15Z</time>
      </trkpt>
      <trkpt lat="40.543825000" lon="-4.020221000">
        <ele>848.2</ele>
        <time>2020-11-13T11:46:17Z</time>
      </trkpt>
      <trkpt lat="40.543887000" lon="-4.020324000">
        <ele>847.8</ele>
        <time>2020-11-13T11:46:19Z</time>
      </trkpt>
      <trkpt lat="40.543967000" lon="-4.020514000">
        <ele>847.5</ele>
        <time>2020-11-13T11:46:21Z</time>
      </trkpt>
      <trkpt lat="40.544028000" lon="-4.020638000">
        <ele>847.3</ele>
        <time>2020-11-13T11:46:23Z</time>
      </trkpt>
      <trkpt lat="40.544096000" lon="-4.020778000">
        <ele>847.1</ele>
        <time>2020-11-13T11:46:25Z</time>
      </trkpt>
      <trkpt lat="40.544160000" lon="-4.020907000">
        <ele>846.8</ele>
        <time>2020-11-13T11:46:27Z</time>
      </trkpt>
      <trkpt lat="40.544226000" lon="-4.021028000">
        <ele>846.6</ele>
        <time>2020-11-13T11:46:29Z</time>
      </trkpt>
      <trkpt lat="40.544290000" lon="-4.021156000">
        <ele>846.5</ele>
        <time>2020-11-13T11:46:31Z</time>
      </trkpt>
      <trkpt lat="40.544344000" lon="-4.021274000">
        <ele>846.3</ele>
        <time>2020-11-13T11:46:33Z</time>
      </trkpt>
      <trkpt lat="40.544423000" lon="-4.021401000">
        <ele>846.0</ele>
        <time>2020-11-13T11:46:35Z</time>
      </trkpt>
      <trkpt lat="40.544469000" lon="-4.021572000">
        <ele>845.5</ele>
        <time>2020-11-13T11:46:37Z</time>
      </trkpt>
      <trkpt lat="40.544468000" lon="-4.021752000">
        <ele>844.9</ele>
        <time>2020-11-13T11:46:39Z</time>
      </trkpt>
      <trkpt lat="40.544570000" lon="-4.021687000">
        <ele>844.2</ele>
        <time>2020-11-13T11:46:40Z</time>
      </trkpt>
      <trkpt lat="40.544586000" lon="-4.021877000">
        <ele>843.5</ele>
        <time>2020-11-13T11:46:42Z</time>
      </trkpt>
      <trkpt lat="40.544583000" lon="-4.022068000">
        <ele>842.7</ele>
        <time>2020-11-13T11:46:43Z</time>
      </trkpt>
      <trkpt lat="40.544567000" lon="-4.022284000">
        <ele>841.9</ele>
        <time>2020-11-13T11:46:45Z</time>
      </trkpt>
      <trkpt lat="40.544502000" lon="-4.022388000">
        <ele>841.1</ele>
        <time>2020-11-13T11:46:46Z</time>
      </trkpt>
      <trkpt lat="40.544452000" lon="-4.022594000">
        <ele>840.2</ele>
        <time>2020-11-13T11:46:48Z</time>
      </trkpt>
      <trkpt lat="40.544388000" lon="-4.022792000">
        <ele>839.2</ele>
        <time>2020-11-13T11:46:50Z</time>
      </trkpt>
      <trkpt lat="40.544352000" lon="-4.022988000">
        <ele>838.1</ele>
        <time>2020-11-13T11:46:52Z</time>
      </trkpt>
      <trkpt lat="40.544304000" lon="-4.023157000">
        <ele>837.0</ele>
        <time>2020-11-13T11:46:54Z</time>
      </trkpt>
      <trkpt lat="40.544291000" lon="-4.023321000">
        <ele>835.9</ele>
        <time>2020-11-13T11:46:55Z</time>
      </trkpt>
      <trkpt lat="40.544231000" lon="-4.023501000">
        <ele>834.9</ele>
        <time>2020-11-13T11:46:57Z</time>
      </trkpt>
      <trkpt lat="40.544183000" lon="-4.023632000">
        <ele>834.1</ele>
        <time>2020-11-13T11:46:58Z</time>
      </trkpt>
      <trkpt lat="40.544081000" lon="-4.023827000">
        <ele>833.1</ele>
        <time>2020-11-13T11:47:00Z</time>
      </trkpt>
      <trkpt lat="40.544020000" lon="-4.023940000">
        <ele>832.1</ele>
        <time>2020-11-13T11:47:01Z</time>
      </trkpt>
      <trkpt lat="40.543910000" lon="-4.024139000">
        <ele>831.0</ele>
        <time>2020-11-13T11:47:03Z</time>
      </trkpt>
      <trkpt lat="40.543854000" lon="-4.024251000">
        <ele>830.1</ele>
        <time>2020-11-13T11:47:04Z</time>
      </trkpt>
      <trkpt lat="40.543800000" lon="-4.024361000">
        <ele>829.3</ele>
        <time>2020-11-13T11:47:05Z</time>
      </trkpt>
      <trkpt lat="40.543701000" lon="-4.024534000">
        <ele>828.7</ele>
        <time>2020-11-13T11:47:07Z</time>
      </trkpt>
      <trkpt lat="40.543613000" lon="-4.024557000">
        <ele>828.2</ele>
        <time>2020-11-13T11:47:09Z</time>
      </trkpt>
      <trkpt lat="40.543543000" lon="-4.024662000">
        <ele>827.8</ele>
        <time>2020-11-13T11:47:11Z</time>
      </trkpt>
      <trkpt lat="40.543568000" lon="-4.024548000">
        <ele>827.4</ele>
        <time>2020-11-13T11:47:16Z</time>
      </trkpt>
      <trkpt lat="40.543573000" lon="-4.024565000">
        <ele>827.2</ele>
        <time>2020-11-13T11:47:22Z</time>
      </trkpt>
      <trkpt lat="40.543562000" lon="-4.024462000">
        <ele>828.0</ele>
        <time>2020-11-13T11:47:34Z</time>
      </trkpt>
      <trkpt lat="40.543538000" lon="-4.024432000">
        <ele>828.0</ele>
        <time>2020-11-13T11:47:41Z</time>
      </trkpt>
      <trkpt lat="40.543539000" lon="-4.024435000">
        <ele>828.0</ele>
        <time>2020-11-13T11:47:45Z</time>
      </trkpt>
      <trkpt lat="40.543443000" lon="-4.024504000">
        <ele>824.5</ele>
        <time>2020-11-13T11:48:00Z</time>
      </trkpt>
      <trkpt lat="40.543343000" lon="-4.024572000">
        <ele>824.0</ele>
        <time>2020-11-13T11:48:02Z</time>
      </trkpt>
      <trkpt lat="40.543208000" lon="-4.024646000">
        <ele>823.4</ele>
        <time>2020-11-13T11:48:04Z</time>
      </trkpt>
      <trkpt lat="40.543090000" lon="-4.024690000">
        <ele>823.0</ele>
        <time>2020-11-13T11:48:06Z</time>
      </trkpt>
      <trkpt lat="40.542969000" lon="-4.024817000">
        <ele>822.9</ele>
        <time>2020-11-13T11:48:08Z</time>
      </trkpt>
      <trkpt lat="40.542914000" lon="-4.024921000">
        <ele>822.9</ele>
        <time>2020-11-13T11:48:10Z</time>
      </trkpt>
      <trkpt lat="40.542849000" lon="-4.025060000">
        <ele>822.6</ele>
        <time>2020-11-13T11:48:13Z</time>
      </trkpt>
      <trkpt lat="40.542788000" lon="-4.025148000">
        <ele>822.5</ele>
        <time>2020-11-13T11:48:15Z</time>
      </trkpt>
      <trkpt lat="40.542877000" lon="-4.025127000">
        <ele>822.5</ele>
        <time>2020-11-13T11:48:30Z</time>
      </trkpt>
      <trkpt lat="40.542924000" lon="-4.024865000">
        <ele>822.7</ele>
        <time>2020-11-13T11:48:49Z</time>
      </trkpt>
      <trkpt lat="40.542985000" lon="-4.024751000">
        <ele>823.1</ele>
        <time>2020-11-13T11:48:54Z</time>
      </trkpt>
      <trkpt lat="40.543064000" lon="-4.024668000">
        <ele>823.6</ele>
        <time>2020-11-13T11:49:00Z</time>
      </trkpt>
      <trkpt lat="40.543155000" lon="-4.024634000">
        <ele>824.3</ele>
        <time>2020-11-13T11:49:07Z</time>
      </trkpt>
      <trkpt lat="40.543244000" lon="-4.024607000">
        <ele>825.2</ele>
        <time>2020-11-13T11:49:12Z</time>
      </trkpt>
      <trkpt lat="40.543331000" lon="-4.024570000">
        <ele>826.1</ele>
        <time>2020-11-13T11:49:16Z</time>
      </trkpt>
      <trkpt lat="40.543417000" lon="-4.024532000">
        <ele>826.9</ele>
        <time>2020-11-13T11:49:20Z</time>
      </trkpt>
      <trkpt lat="40.543476000" lon="-4.024427000">
        <ele>827.6</ele>
        <time>2020-11-13T11:49:26Z</time>
      </trkpt>
      <trkpt lat="40.543555000" lon="-4.024361000">
        <ele>828.4</ele>
        <time>2020-11-13T11:49:30Z</time>
      </trkpt>
      <trkpt lat="40.543630000" lon="-4.024280000">
        <ele>829.1</ele>
        <time>2020-11-13T11:49:34Z</time>
      </trkpt>
      <trkpt lat="40.543706000" lon="-4.024187000">
        <ele>830.0</ele>
        <time>2020-11-13T11:49:38Z</time>
      </trkpt>
      <trkpt lat="40.543784000" lon="-4.024091000">
        <ele>830.8</ele>
        <time>2020-11-13T11:49:42Z</time>
      </trkpt>
      <trkpt lat="40.543861000" lon="-4.023992000">
        <ele>831.6</ele>
        <time>2020-11-13T11:49:46Z</time>
      </trkpt>
      <trkpt lat="40.543927000" lon="-4.023906000">
        <ele>832.5</ele>
        <time>2020-11-13T11:49:50Z</time>
      </trkpt>
      <trkpt lat="40.543979000" lon="-4.023781000">
        <ele>833.3</ele>
        <time>2020-11-13T11:49:55Z</time>
      </trkpt>
      <trkpt lat="40.544043000" lon="-4.023684000">
        <ele>834.0</ele>
        <time>2020-11-13T11:49:59Z</time>
      </trkpt>
      <trkpt lat="40.544139000" lon="-4.023595000">
        <ele>834.6</ele>
        <time>2020-11-13T11:50:03Z</time>
      </trkpt>
      <trkpt lat="40.544194000" lon="-4.023496000">
        <ele>835.2</ele>
        <time>2020-11-13T11:50:07Z</time>
      </trkpt>
      <trkpt lat="40.544240000" lon="-4.023371000">
        <ele>835.7</ele>
        <time>2020-11-13T11:50:13Z</time>
      </trkpt>
      <trkpt lat="40.544293000" lon="-4.023245000">
        <ele>836.3</ele>
        <time>2020-11-13T11:50:19Z</time>
      </trkpt>
      <trkpt lat="40.544326000" lon="-4.023133000">
        <ele>836.9</ele>
        <time>2020-11-13T11:50:23Z</time>
      </trkpt>
      <trkpt lat="40.544369000" lon="-4.023000000">
        <ele>837.5</ele>
        <time>2020-11-13T11:50:28Z</time>
      </trkpt>
      <trkpt lat="40.544411000" lon="-4.022866000">
        <ele>838.1</ele>
        <time>2020-11-13T11:50:33Z</time>
      </trkpt>
      <trkpt lat="40.544463000" lon="-4.022743000">
        <ele>838.7</ele>
        <time>2020-11-13T11:50:38Z</time>
      </trkpt>
      <trkpt lat="40.544521000" lon="-4.022621000">
        <ele>839.5</ele>
        <time>2020-11-13T11:50:43Z</time>
      </trkpt>
      <trkpt lat="40.544551000" lon="-4.022483000">
        <ele>840.2</ele>
        <time>2020-11-13T11:50:48Z</time>
      </trkpt>
      <trkpt lat="40.544566000" lon="-4.022355000">
        <ele>841.0</ele>
        <time>2020-11-13T11:50:52Z</time>
      </trkpt>
      <trkpt lat="40.544557000" lon="-4.022225000">
        <ele>841.8</ele>
        <time>2020-11-13T11:50:56Z</time>
      </trkpt>
      <trkpt lat="40.544539000" lon="-4.022102000">
        <ele>842.7</ele>
        <time>2020-11-13T11:51:00Z</time>
      </trkpt>
      <trkpt lat="40.544529000" lon="-4.021978000">
        <ele>843.6</ele>
        <time>2020-11-13T11:51:04Z</time>
      </trkpt>
      <trkpt lat="40.544527000" lon="-4.021838000">
        <ele>844.4</ele>
        <time>2020-11-13T11:51:09Z</time>
      </trkpt>
      <trkpt lat="40.544540000" lon="-4.021698000">
        <ele>844.9</ele>
        <time>2020-11-13T11:51:14Z</time>
      </trkpt>
      <trkpt lat="40.544534000" lon="-4.021554000">
        <ele>845.5</ele>
        <time>2020-11-13T11:51:19Z</time>
      </trkpt>
      <trkpt lat="40.544481000" lon="-4.021439000">
        <ele>845.9</ele>
        <time>2020-11-13T11:51:23Z</time>
      </trkpt>
      <trkpt lat="40.544415000" lon="-4.021321000">
        <ele>846.2</ele>
        <time>2020-11-13T11:51:28Z</time>
      </trkpt>
      <trkpt lat="40.544364000" lon="-4.021211000">
        <ele>846.3</ele>
        <time>2020-11-13T11:51:32Z</time>
      </trkpt>
      <trkpt lat="40.544328000" lon="-4.021096000">
        <ele>846.4</ele>
        <time>2020-11-13T11:51:36Z</time>
      </trkpt>
      <trkpt lat="40.544285000" lon="-4.020971000">
        <ele>846.4</ele>
        <time>2020-11-13T11:51:40Z</time>
      </trkpt>
      <trkpt lat="40.544390000" lon="-4.020923000">
        <ele>846.3</ele>
        <time>2020-11-13T11:51:45Z</time>
      </trkpt>
      <trkpt lat="40.544501000" lon="-4.020972000">
        <ele>846.1</ele>
        <time>2020-11-13T11:51:49Z</time>
      </trkpt>
      <trkpt lat="40.544604000" lon="-4.021031000">
        <ele>846.0</ele>
        <time>2020-11-13T11:51:53Z</time>
      </trkpt>
      <trkpt lat="40.544694000" lon="-4.021090000">
        <ele>846.1</ele>
        <time>2020-11-13T11:51:57Z</time>
      </trkpt>
      <trkpt lat="40.544807000" lon="-4.021119000">
        <ele>846.2</ele>
        <time>2020-11-13T11:52:01Z</time>
      </trkpt>
      <trkpt lat="40.544909000" lon="-4.021088000">
        <ele>846.2</ele>
        <time>2020-11-13T11:52:04Z</time>
      </trkpt>
      <trkpt lat="40.544997000" lon="-4.021004000">
        <ele>846.2</ele>
        <time>2020-11-13T11:52:07Z</time>
      </trkpt>
      <trkpt lat="40.545085000" lon="-4.020901000">
        <ele>846.3</ele>
        <time>2020-11-13T11:52:10Z</time>
      </trkpt>
      <trkpt lat="40.545198000" lon="-4.020842000">
        <ele>846.3</ele>
        <time>2020-11-13T11:52:13Z</time>
      </trkpt>
      <trkpt lat="40.545319000" lon="-4.020837000">
        <ele>846.3</ele>
        <time>2020-11-13T11:52:16Z</time>
      </trkpt>
      <trkpt lat="40.545430000" lon="-4.020840000">
        <ele>846.2</ele>
        <time>2020-11-13T11:52:18Z</time>
      </trkpt>
      <trkpt lat="40.545540000" lon="-4.020819000">
        <ele>846.1</ele>
        <time>2020-11-13T11:52:20Z</time>
      </trkpt>
      <trkpt lat="40.545638000" lon="-4.020829000">
        <ele>846.0</ele>
        <time>2020-11-13T11:52:22Z</time>
      </trkpt>
      <trkpt lat="40.545755000" lon="-4.020918000">
        <ele>845.7</ele>
        <time>2020-11-13T11:52:25Z</time>
      </trkpt>
      <trkpt lat="40.545800000" lon="-4.021029000">
        <ele>845.4</ele>
        <time>2020-11-13T11:52:27Z</time>
      </trkpt>
      <trkpt lat="40.545857000" lon="-4.021146000">
        <ele>845.2</ele>
        <time>2020-11-13T11:52:29Z</time>
      </trkpt>
      <trkpt lat="40.545961000" lon="-4.021239000">
        <ele>845.0</ele>
        <time>2020-11-13T11:52:31Z</time>
      </trkpt>
      <trkpt lat="40.546060000" lon="-4.021300000">
        <ele>844.8</ele>
        <time>2020-11-13T11:52:33Z</time>
      </trkpt>
      <trkpt lat="40.546145000" lon="-4.021375000">
        <ele>844.4</ele>
        <time>2020-11-13T11:52:36Z</time>
      </trkpt>
      <trkpt lat="40.546156000" lon="-4.021365000">
        <ele>844.2</ele>
        <time>2020-11-13T11:52:46Z</time>
      </trkpt>
      <trkpt lat="40.546210000" lon="-4.021446000">
        <ele>841.5</ele>
        <time>2020-11-13T11:53:02Z</time>
      </trkpt>
      <trkpt lat="40.546225000" lon="-4.021465000">
        <ele>841.3</ele>
        <time>2020-11-13T11:53:03Z</time>
      </trkpt>
      <trkpt lat="40.546295000" lon="-4.021589000">
        <ele>841.0</ele>
        <time>2020-11-13T11:53:07Z</time>
      </trkpt>
      <trkpt lat="40.546334000" lon="-4.021708000">
        <ele>840.8</ele>
        <time>2020-11-13T11:53:10Z</time>
      </trkpt>
      <trkpt lat="40.546425000" lon="-4.021874000">
        <ele>840.5</ele>
        <time>2020-11-13T11:53:13Z</time>
      </trkpt>
      <trkpt lat="40.546499000" lon="-4.021973000">
        <ele>840.3</ele>
        <time>2020-11-13T11:53:15Z</time>
      </trkpt>
      <trkpt lat="40.546589000" lon="-4.022091000">
        <ele>839.9</ele>
        <time>2020-11-13T11:53:17Z</time>
      </trkpt>
      <trkpt lat="40.546704000" lon="-4.022145000">
        <ele>839.5</ele>
        <time>2020-11-13T11:53:19Z</time>
      </trkpt>
      <trkpt lat="40.546752000" lon="-4.022246000">
        <ele>839.0</ele>
        <time>2020-11-13T11:53:21Z</time>
      </trkpt>
      <trkpt lat="40.546790000" lon="-4.022399000">
        <ele>838.5</ele>
        <time>2020-11-13T11:53:23Z</time>
      </trkpt>
      <trkpt lat="40.546823000" lon="-4.022582000">
        <ele>838.0</ele>
        <time>2020-11-13T11:53:25Z</time>
      </trkpt>
      <trkpt lat="40.546853000" lon="-4.022762000">
        <ele>837.5</ele>
        <time>2020-11-13T11:53:27Z</time>
      </trkpt>
      <trkpt lat="40.546888000" lon="-4.022918000">
        <ele>837.0</ele>
        <time>2020-11-13T11:53:29Z</time>
      </trkpt>
      <trkpt lat="40.546883000" lon="-4.023085000">
        <ele>836.4</ele>
        <time>2020-11-13T11:53:31Z</time>
      </trkpt>
      <trkpt lat="40.546828000" lon="-4.023223000">
        <ele>835.6</ele>
        <time>2020-11-13T11:53:35Z</time>
      </trkpt>
      <trkpt lat="40.546853000" lon="-4.023418000">
        <ele>834.8</ele>
        <time>2020-11-13T11:53:39Z</time>
      </trkpt>
      <trkpt lat="40.546818000" lon="-4.023555000">
        <ele>833.8</ele>
        <time>2020-11-13T11:53:41Z</time>
      </trkpt>
      <trkpt lat="40.546755000" lon="-4.023659000">
        <ele>832.6</ele>
        <time>2020-11-13T11:53:44Z</time>
      </trkpt>
      <trkpt lat="40.546717000" lon="-4.023857000">
        <ele>831.5</ele>
        <time>2020-11-13T11:53:46Z</time>
      </trkpt>
      <trkpt lat="40.546639000" lon="-4.023985000">
        <ele>830.2</ele>
        <time>2020-11-13T11:53:48Z</time>
      </trkpt>
      <trkpt lat="40.546578000" lon="-4.024147000">
        <ele>829.0</ele>
        <time>2020-11-13T11:53:50Z</time>
      </trkpt>
      <trkpt lat="40.546590000" lon="-4.024274000">
        <ele>827.9</ele>
        <time>2020-11-13T11:53:52Z</time>
      </trkpt>
      <trkpt lat="40.546597000" lon="-4.024403000">
        <ele>826.8</ele>
        <time>2020-11-13T11:53:53Z</time>
      </trkpt>
      <trkpt lat="40.546658000" lon="-4.024538000">
        <ele>825.8</ele>
        <time>2020-11-13T11:53:55Z</time>
      </trkpt>
      <trkpt lat="40.546732000" lon="-4.024665000">
        <ele>824.9</ele>
        <time>2020-11-13T11:53:57Z</time>
      </trkpt>
      <trkpt lat="40.546827000" lon="-4.024729000">
        <ele>824.1</ele>
        <time>2020-11-13T11:53:59Z</time>
      </trkpt>
      <trkpt lat="40.546937000" lon="-4.024743000">
        <ele>823.5</ele>
        <time>2020-11-13T11:54:01Z</time>
      </trkpt>
      <trkpt lat="40.547038000" lon="-4.024763000">
        <ele>823.1</ele>
        <time>2020-11-13T11:54:03Z</time>
      </trkpt>
      <trkpt lat="40.547140000" lon="-4.024785000">
        <ele>822.9</ele>
        <time>2020-11-13T11:54:05Z</time>
      </trkpt>
      <trkpt lat="40.547242000" lon="-4.024852000">
        <ele>822.8</ele>
        <time>2020-11-13T11:54:09Z</time>
      </trkpt>
      <trkpt lat="40.547330000" lon="-4.024968000">
        <ele>822.8</ele>
        <time>2020-11-13T11:54:12Z</time>
      </trkpt>
      <trkpt lat="40.547399000" lon="-4.025050000">
        <ele>822.8</ele>
        <time>2020-11-13T11:54:14Z</time>
      </trkpt>
      <trkpt lat="40.547500000" lon="-4.025041000">
        <ele>822.6</ele>
        <time>2020-11-13T11:54:17Z</time>
      </trkpt>
      <trkpt lat="40.547498000" lon="-4.025034000">
        <ele>822.5</ele>
        <time>2020-11-13T11:54:27Z</time>
      </trkpt>
      <trkpt lat="40.547571000" lon="-4.025083000">
        <ele>819.7</ele>
        <time>2020-11-13T11:55:13Z</time>
      </trkpt>
      <trkpt lat="40.547590000" lon="-4.025092000">
        <ele>819.3</ele>
        <time>2020-11-13T11:55:14Z</time>
      </trkpt>
      <trkpt lat="40.547710000" lon="-4.025132000">
        <ele>819.1</ele>
        <time>2020-11-13T11:55:18Z</time>
      </trkpt>
      <trkpt lat="40.547820000" lon="-4.025216000">
        <ele>819.0</ele>
        <time>2020-11-13T11:55:21Z</time>
      </trkpt>
      <trkpt lat="40.547908000" lon="-4.025287000">
        <ele>818.9</ele>
        <time>2020-11-13T11:55:25Z</time>
      </trkpt>
      <trkpt lat="40.547998000" lon="-4.025335000">
        <ele>818.9</ele>
        <time>2020-11-13T11:55:29Z</time>
      </trkpt>
      <trkpt lat="40.548099000" lon="-4.025401000">
        <ele>818.7</ele>
        <time>2020-11-13T11:55:33Z</time>
      </trkpt>
      <trkpt lat="40.548213000" lon="-4.025424000">
        <ele>818.6</ele>
        <time>2020-11-13T11:55:37Z</time>
      </trkpt>
      <trkpt lat="40.548317000" lon="-4.025457000">
        <ele>818.6</ele>
        <time>2020-11-13T11:55:40Z</time>
      </trkpt>
      <trkpt lat="40.548434000" lon="-4.025476000">
        <ele>818.7</ele>
        <time>2020-11-13T11:55:43Z</time>
      </trkpt>
      <trkpt lat="40.548531000" lon="-4.025482000">
        <ele>819.0</ele>
        <time>2020-11-13T11:55:46Z</time>
      </trkpt>
      <trkpt lat="40.548640000" lon="-4.025488000">
        <ele>819.3</ele>
        <time>2020-11-13T11:55:49Z</time>
      </trkpt>
      <trkpt lat="40.548756000" lon="-4.025489000">
        <ele>819.5</ele>
        <time>2020-11-13T11:55:52Z</time>
      </trkpt>
      <trkpt lat="40.548848000" lon="-4.025477000">
        <ele>819.7</ele>
        <time>2020-11-13T11:55:54Z</time>
      </trkpt>
      <trkpt lat="40.548971000" lon="-4.025476000">
        <ele>819.9</ele>
        <time>2020-11-13T11:55:57Z</time>
      </trkpt>
      <trkpt lat="40.549093000" lon="-4.025475000">
        <ele>820.1</ele>
        <time>2020-11-13T11:56:00Z</time>
      </trkpt>
      <trkpt lat="40.549211000" lon="-4.025482000">
        <ele>820.2</ele>
        <time>2020-11-13T11:56:04Z</time>
      </trkpt>
      <trkpt lat="40.549319000" lon="-4.025481000">
        <ele>820.3</ele>
        <time>2020-11-13T11:56:07Z</time>
      </trkpt>
      <trkpt lat="40.549414000" lon="-4.025463000">
        <ele>820.4</ele>
        <time>2020-11-13T11:56:10Z</time>
      </trkpt>
      <trkpt lat="40.549524000" lon="-4.025431000">
        <ele>820.4</ele>
        <time>2020-11-13T11:56:14Z</time>
      </trkpt>
      <trkpt lat="40.549618000" lon="-4.025409000">
        <ele>820.4</ele>
        <time>2020-11-13T11:56:17Z</time>
      </trkpt>
      <trkpt lat="40.549722000" lon="-4.025407000">
        <ele>820.4</ele>
        <time>2020-11-13T11:56:20Z</time>
      </trkpt>
      <trkpt lat="40.549825000" lon="-4.025414000">
        <ele>820.3</ele>
        <time>2020-11-13T11:56:23Z</time>
      </trkpt>
      <trkpt lat="40.549839000" lon="-4.025386000">
        <ele>820.3</ele>
        <time>2020-11-13T11:56:33Z</time>
      </trkpt>
      <trkpt lat="40.549828000" lon="-4.025497000">
        <ele>821.2</ele>
        <time>2020-11-13T11:56:54Z</time>
      </trkpt>
      <trkpt lat="40.549819000" lon="-4.025534000">
        <ele>821.4</ele>
        <time>2020-11-13T11:56:58Z</time>
      </trkpt>
      <trkpt lat="40.549794000" lon="-4.025648000">
        <ele>821.8</ele>
        <time>2020-11-13T11:57:14Z</time>
      </trkpt>
      <trkpt lat="40.549730000" lon="-4.025733000">
        <ele>822.0</ele>
        <time>2020-11-13T11:57:20Z</time>
      </trkpt>
      <trkpt lat="40.549745000" lon="-4.025856000">
        <ele>822.2</ele>
        <time>2020-11-13T11:57:24Z</time>
      </trkpt>
      <trkpt lat="40.549793000" lon="-4.025971000">
        <ele>822.4</ele>
        <time>2020-11-13T11:57:28Z</time>
      </trkpt>
      <trkpt lat="40.549889000" lon="-4.025978000">
        <ele>822.6</ele>
        <time>2020-11-13T11:57:32Z</time>
      </trkpt>
      <trkpt lat="40.549983000" lon="-4.026039000">
        <ele>822.9</ele>
        <time>2020-11-13T11:57:37Z</time>
      </trkpt>
      <trkpt lat="40.550082000" lon="-4.026101000">
        <ele>823.1</ele>
        <time>2020-11-13T11:57:42Z</time>
      </trkpt>
      <trkpt lat="40.550194000" lon="-4.026121000">
        <ele>823.3</ele>
        <time>2020-11-13T11:57:46Z</time>
      </trkpt>
      <trkpt lat="40.550285000" lon="-4.026126000">
        <ele>823.5</ele>
        <time>2020-11-13T11:57:50Z</time>
      </trkpt>
      <trkpt lat="40.550389000" lon="-4.026185000">
        <ele>823.6</ele>
        <time>2020-11-13T11:57:54Z</time>
      </trkpt>
      <trkpt lat="40.550488000" lon="-4.026221000">
        <ele>823.7</ele>
        <time>2020-11-13T11:57:57Z</time>
      </trkpt>
      <trkpt lat="40.550587000" lon="-4.026231000">
        <ele>823.8</ele>
        <time>2020-11-13T11:57:59Z</time>
      </trkpt>
      <trkpt lat="40.550692000" lon="-4.026231000">
        <ele>823.9</ele>
        <time>2020-11-13T11:58:02Z</time>
      </trkpt>
      <trkpt lat="40.550787000" lon="-4.026236000">
        <ele>824.0</ele>
        <time>2020-11-13T11:58:05Z</time>
      </trkpt>
      <trkpt lat="40.550878000" lon="-4.026229000">
        <ele>824.1</ele>
        <time>2020-11-13T11:58:08Z</time>
      </trkpt>
      <trkpt lat="40.550967000" lon="-4.026207000">
        <ele>824.2</ele>
        <time>2020-11-13T11:58:11Z</time>
      </trkpt>
      <trkpt lat="40.551082000" lon="-4.026162000">
        <ele>824.3</ele>
        <time>2020-11-13T11:58:15Z</time>
      </trkpt>
      <trkpt lat="40.551193000" lon="-4.026118000">
        <ele>824.5</ele>
        <time>2020-11-13T11:58:18Z</time>
      </trkpt>
      <trkpt lat="40.551277000" lon="-4.026062000">
        <ele>824.8</ele>
        <time>2020-11-13T11:58:21Z</time>
      </trkpt>
      <trkpt lat="40.551369000" lon="-4.025995000">
        <ele>825.2</ele>
        <time>2020-11-13T11:58:24Z</time>
      </trkpt>
      <trkpt lat="40.551474000" lon="-4.025964000">
        <ele>825.5</ele>
        <time>2020-11-13T11:58:26Z</time>
      </trkpt>
      <trkpt lat="40.551595000" lon="-4.025930000">
        <ele>825.8</ele>
        <time>2020-11-13T11:58:29Z</time>
      </trkpt>
      <trkpt lat="40.551716000" lon="-4.025909000">
        <ele>826.1</ele>
        <time>2020-11-13T11:58:32Z</time>
      </trkpt>
      <trkpt lat="40.551831000" lon="-4.025867000">
        <ele>826.5</ele>
        <time>2020-11-13T11:58:35Z</time>
      </trkpt>
      <trkpt lat="40.551936000" lon="-4.025835000">
        <ele>826.8</ele>
        <time>2020-11-13T11:58:38Z</time>
      </trkpt>
      <trkpt lat="40.552039000" lon="-4.025770000">
        <ele>827.2</ele>
        <time>2020-11-13T11:58:42Z</time>
      </trkpt>
      <trkpt lat="40.552122000" lon="-4.025708000">
        <ele>827.6</ele>
        <time>2020-11-13T11:58:46Z</time>
      </trkpt>
      <trkpt lat="40.552235000" lon="-4.025676000">
        <ele>828.2</ele>
        <time>2020-11-13T11:58:51Z</time>
      </trkpt>
      <trkpt lat="40.552331000" lon="-4.025646000">
        <ele>828.6</ele>
        <time>2020-11-13T11:58:54Z</time>
      </trkpt>
      <trkpt lat="40.552438000" lon="-4.025637000">
        <ele>829.1</ele>
        <time>2020-11-13T11:58:58Z</time>
      </trkpt>
      <trkpt lat="40.552536000" lon="-4.025610000">
        <ele>829.4</ele>
        <time>2020-11-13T11:59:01Z</time>
      </trkpt>
      <trkpt lat="40.552646000" lon="-4.025573000">
        <ele>829.6</ele>
        <time>2020-11-13T11:59:05Z</time>
      </trkpt>
      <trkpt lat="40.552737000" lon="-4.025531000">
        <ele>829.9</ele>
        <time>2020-11-13T11:59:08Z</time>
      </trkpt>
      <trkpt lat="40.552840000" lon="-4.025492000">
        <ele>830.2</ele>
        <time>2020-11-13T11:59:11Z</time>
      </trkpt>
      <trkpt lat="40.552928000" lon="-4.025453000">
        <ele>830.5</ele>
        <time>2020-11-13T11:59:14Z</time>
      </trkpt>
      <trkpt lat="40.553021000" lon="-4.025406000">
        <ele>830.7</ele>
        <time>2020-11-13T11:59:17Z</time>
      </trkpt>
      <trkpt lat="40.553113000" lon="-4.025388000">
        <ele>831.1</ele>
        <time>2020-11-13T11:59:20Z</time>
      </trkpt>
      <trkpt lat="40.553229000" lon="-4.025386000">
        <ele>831.4</ele>
        <time>2020-11-13T11:59:24Z</time>
      </trkpt>
      <trkpt lat="40.553340000" lon="-4.025396000">
        <ele>831.6</ele>
        <time>2020-11-13T11:59:28Z</time>
      </trkpt>
      <trkpt lat="40.553441000" lon="-4.025422000">
        <ele>831.9</ele>
        <time>2020-11-13T11:59:32Z</time>
      </trkpt>
      <trkpt lat="40.553548000" lon="-4.025458000">
        <ele>832.2</ele>
        <time>2020-11-13T11:59:36Z</time>
      </trkpt>
      <trkpt lat="40.553624000" lon="-4.025533000">
        <ele>832.5</ele>
        <time>2020-11-13T11:59:41Z</time>
      </trkpt>
      <trkpt lat="40.553706000" lon="-4.025637000">
        <ele>832.9</ele>
        <time>2020-11-13T11:59:46Z</time>
      </trkpt>
      <trkpt lat="40.553791000" lon="-4.025698000">
        <ele>833.2</ele>
        <time>2020-11-13T11:59:49Z</time>
      </trkpt>
      <trkpt lat="40.553889000" lon="-4.025737000">
        <ele>833.5</ele>
        <time>2020-11-13T11:59:52Z</time>
      </trkpt>
      <trkpt lat="40.553989000" lon="-4.025719000">
        <ele>833.9</ele>
        <time>2020-11-13T11:59:55Z</time>
      </trkpt>
      <trkpt lat="40.554093000" lon="-4.025718000">
        <ele>834.3</ele>
        <time>2020-11-13T11:59:58Z</time>
      </trkpt>
      <trkpt lat="40.554181000" lon="-4.025759000">
        <ele>834.6</ele>
        <time>2020-11-13T12:00:01Z</time>
      </trkpt>
      <trkpt lat="40.554236000" lon="-4.025861000">
        <ele>835.0</ele>
        <time>2020-11-13T12:00:05Z</time>
      </trkpt>
      <trkpt lat="40.554319000" lon="-4.025963000">
        <ele>835.4</ele>
        <time>2020-11-13T12:00:10Z</time>
      </trkpt>
      <trkpt lat="40.554393000" lon="-4.026074000">
        <ele>835.7</ele>
        <time>2020-11-13T12:00:14Z</time>
      </trkpt>
      <trkpt lat="40.554478000" lon="-4.026162000">
        <ele>836.1</ele>
        <time>2020-11-13T12:00:18Z</time>
      </trkpt>
      <trkpt lat="40.554577000" lon="-4.026233000">
        <ele>836.5</ele>
        <time>2020-11-13T12:00:21Z</time>
      </trkpt>
      <trkpt lat="40.554670000" lon="-4.026284000">
        <ele>836.7</ele>
        <time>2020-11-13T12:00:24Z</time>
      </trkpt>
      <trkpt lat="40.554763000" lon="-4.026372000">
        <ele>837.0</ele>
        <time>2020-11-13T12:00:28Z</time>
      </trkpt>
      <trkpt lat="40.554845000" lon="-4.026472000">
        <ele>837.2</ele>
        <time>2020-11-13T12:00:32Z</time>
      </trkpt>
      <trkpt lat="40.554926000" lon="-4.026555000">
        <ele>837.2</ele>
        <time>2020-11-13T12:00:36Z</time>
      </trkpt>
      <trkpt lat="40.555015000" lon="-4.026587000">
        <ele>837.2</ele>
        <time>2020-11-13T12:00:41Z</time>
      </trkpt>
      <trkpt lat="40.555133000" lon="-4.026617000">
        <ele>837.1</ele>
        <time>2020-11-13T12:00:46Z</time>
      </trkpt>
      <trkpt lat="40.555251000" lon="-4.026641000">
        <ele>837.0</ele>
        <time>2020-11-13T12:00:49Z</time>
      </trkpt>
      <trkpt lat="40.555360000" lon="-4.026627000">
        <ele>836.8</ele>
        <time>2020-11-13T12:00:54Z</time>
      </trkpt>
      <trkpt lat="40.555465000" lon="-4.026635000">
        <ele>836.6</ele>
        <time>2020-11-13T12:00:58Z</time>
      </trkpt>
      <trkpt lat="40.555557000" lon="-4.026557000">
        <ele>836.5</ele>
        <time>2020-11-13T12:01:03Z</time>
      </trkpt>
      <trkpt lat="40.555660000" lon="-4.026496000">
        <ele>836.3</ele>
        <time>2020-11-13T12:01:06Z</time>
      </trkpt>
      <trkpt lat="40.555764000" lon="-4.026446000">
        <ele>836.3</ele>
        <time>2020-11-13T12:01:09Z</time>
      </trkpt>
      <trkpt lat="40.555874000" lon="-4.026374000">
        <ele>836.3</ele>
        <time>2020-11-13T12:01:12Z</time>
      </trkpt>
      <trkpt lat="40.556034000" lon="-4.026328000">
        <ele>836.3</ele>
        <time>2020-11-13T12:01:15Z</time>
      </trkpt>
      <trkpt lat="40.556137000" lon="-4.026275000">
        <ele>836.5</ele>
        <time>2020-11-13T12:01:18Z</time>
      </trkpt>
      <trkpt lat="40.556227000" lon="-4.026233000">
        <ele>836.6</ele>
        <time>2020-11-13T12:01:20Z</time>
      </trkpt>
      <trkpt lat="40.556353000" lon="-4.026215000">
        <ele>836.9</ele>
        <time>2020-11-13T12:01:22Z</time>
      </trkpt>
      <trkpt lat="40.556468000" lon="-4.026177000">
        <ele>837.2</ele>
        <time>2020-11-13T12:01:24Z</time>
      </trkpt>
      <trkpt lat="40.556567000" lon="-4.026179000">
        <ele>837.5</ele>
        <time>2020-11-13T12:01:27Z</time>
      </trkpt>
      <trkpt lat="40.556681000" lon="-4.026198000">
        <ele>837.9</ele>
        <time>2020-11-13T12:01:29Z</time>
      </trkpt>
      <trkpt lat="40.556797000" lon="-4.026226000">
        <ele>838.3</ele>
        <time>2020-11-13T12:01:32Z</time>
      </trkpt>
      <trkpt lat="40.556909000" lon="-4.026279000">
        <ele>838.6</ele>
        <time>2020-11-13T12:01:35Z</time>
      </trkpt>
      <trkpt lat="40.557020000" lon="-4.026325000">
        <ele>838.9</ele>
        <time>2020-11-13T12:01:38Z</time>
      </trkpt>
      <trkpt lat="40.557118000" lon="-4.026376000">
        <ele>839.1</ele>
        <time>2020-11-13T12:01:40Z</time>
      </trkpt>
      <trkpt lat="40.557214000" lon="-4.026399000">
        <ele>839.3</ele>
        <time>2020-11-13T12:01:42Z</time>
      </trkpt>
      <trkpt lat="40.557327000" lon="-4.026413000">
        <ele>839.5</ele>
        <time>2020-11-13T12:01:45Z</time>
      </trkpt>
      <trkpt lat="40.557448000" lon="-4.026439000">
        <ele>839.7</ele>
        <time>2020-11-13T12:01:48Z</time>
      </trkpt>
      <trkpt lat="40.557483000" lon="-4.026494000">
        <ele>839.8</ele>
        <time>2020-11-13T12:02:00Z</time>
      </trkpt>
      <trkpt lat="40.557509000" lon="-4.026599000">
        <ele>839.0</ele>
        <time>2020-11-13T12:02:17Z</time>
      </trkpt>
      <trkpt lat="40.557496000" lon="-4.026677000">
        <ele>839.1</ele>
        <time>2020-11-13T12:02:19Z</time>
      </trkpt>
      <trkpt lat="40.557445000" lon="-4.026788000">
        <ele>839.4</ele>
        <time>2020-11-13T12:02:22Z</time>
      </trkpt>
      <trkpt lat="40.557394000" lon="-4.026937000">
        <ele>839.6</ele>
        <time>2020-11-13T12:02:25Z</time>
      </trkpt>
      <trkpt lat="40.557332000" lon="-4.027090000">
        <ele>839.7</ele>
        <time>2020-11-13T12:02:28Z</time>
      </trkpt>
      <trkpt lat="40.557315000" lon="-4.027208000">
        <ele>839.9</ele>
        <time>2020-11-13T12:02:29Z</time>
      </trkpt>
      <trkpt lat="40.557244000" lon="-4.027363000">
        <ele>840.3</ele>
        <time>2020-11-13T12:02:31Z</time>
      </trkpt>
      <trkpt lat="40.557184000" lon="-4.027483000">
        <ele>840.7</ele>
        <time>2020-11-13T12:02:33Z</time>
      </trkpt>
      <trkpt lat="40.557199000" lon="-4.027599000">
        <ele>841.3</ele>
        <time>2020-11-13T12:02:38Z</time>
      </trkpt>
      <trkpt lat="40.557138000" lon="-4.027732000">
        <ele>841.9</ele>
        <time>2020-11-13T12:02:41Z</time>
      </trkpt>
      <trkpt lat="40.557058000" lon="-4.027907000">
        <ele>842.5</ele>
        <time>2020-11-13T12:02:45Z</time>
      </trkpt>
      <trkpt lat="40.557000000" lon="-4.028069000">
        <ele>843.3</ele>
        <time>2020-11-13T12:02:48Z</time>
      </trkpt>
      <trkpt lat="40.556931000" lon="-4.028190000">
        <ele>843.9</ele>
        <time>2020-11-13T12:02:51Z</time>
      </trkpt>
      <trkpt lat="40.556878000" lon="-4.028299000">
        <ele>844.5</ele>
        <time>2020-11-13T12:02:54Z</time>
      </trkpt>
      <trkpt lat="40.556817000" lon="-4.028415000">
        <ele>845.0</ele>
        <time>2020-11-13T12:02:57Z</time>
      </trkpt>
      <trkpt lat="40.556750000" lon="-4.028537000">
        <ele>845.5</ele>
        <time>2020-11-13T12:03:00Z</time>
      </trkpt>
      <trkpt lat="40.556672000" lon="-4.028629000">
        <ele>846.0</ele>
        <time>2020-11-13T12:03:04Z</time>
      </trkpt>
      <trkpt lat="40.556580000" lon="-4.028722000">
        <ele>846.5</ele>
        <time>2020-11-13T12:03:08Z</time>
      </trkpt>
      <trkpt lat="40.556528000" lon="-4.028857000">
        <ele>846.9</ele>
        <time>2020-11-13T12:03:11Z</time>
      </trkpt>
      <trkpt lat="40.556531000" lon="-4.028990000">
        <ele>847.4</ele>
        <time>2020-11-13T12:03:14Z</time>
      </trkpt>
      <trkpt lat="40.556548000" lon="-4.029129000">
        <ele>847.8</ele>
        <time>2020-11-13T12:03:17Z</time>
      </trkpt>
      <trkpt lat="40.556553000" lon="-4.029261000">
        <ele>848.4</ele>
        <time>2020-11-13T12:03:20Z</time>
      </trkpt>
      <trkpt lat="40.556553000" lon="-4.029399000">
        <ele>848.9</ele>
        <time>2020-11-13T12:03:23Z</time>
      </trkpt>
      <trkpt lat="40.556550000" lon="-4.029548000">
        <ele>849.5</ele>
        <time>2020-11-13T12:03:26Z</time>
      </trkpt>
      <trkpt lat="40.556538000" lon="-4.029691000">
        <ele>850.1</ele>
        <time>2020-11-13T12:03:29Z</time>
      </trkpt>
      <trkpt lat="40.556519000" lon="-4.029836000">
        <ele>850.7</ele>
        <time>2020-11-13T12:03:32Z</time>
      </trkpt>
      <trkpt lat="40.556496000" lon="-4.029977000">
        <ele>851.4</ele>
        <time>2020-11-13T12:03:35Z</time>
      </trkpt>
      <trkpt lat="40.556476000" lon="-4.030121000">
        <ele>851.9</ele>
        <time>2020-11-13T12:03:38Z</time>
      </trkpt>
      <trkpt lat="40.556459000" lon="-4.030261000">
        <ele>852.4</ele>
        <time>2020-11-13T12:03:41Z</time>
      </trkpt>
      <trkpt lat="40.556440000" lon="-4.030390000">
        <ele>852.7</ele>
        <time>2020-11-13T12:03:44Z</time>
      </trkpt>
      <trkpt lat="40.556401000" lon="-4.030519000">
        <ele>853.0</ele>
        <time>2020-11-13T12:03:47Z</time>
      </trkpt>
      <trkpt lat="40.556379000" lon="-4.030645000">
        <ele>853.2</ele>
        <time>2020-11-13T12:03:50Z</time>
      </trkpt>
      <trkpt lat="40.556372000" lon="-4.030789000">
        <ele>853.3</ele>
        <time>2020-11-13T12:03:53Z</time>
      </trkpt>
      <trkpt lat="40.556366000" lon="-4.030952000">
        <ele>853.4</ele>
        <time>2020-11-13T12:03:56Z</time>
      </trkpt>
      <trkpt lat="40.556353000" lon="-4.031116000">
        <ele>853.5</ele>
        <time>2020-11-13T12:03:59Z</time>
      </trkpt>
      <trkpt lat="40.556329000" lon="-4.031268000">
        <ele>853.5</ele>
        <time>2020-11-13T12:04:02Z</time>
      </trkpt>
      <trkpt lat="40.556308000" lon="-4.031414000">
        <ele>853.5</ele>
        <time>2020-11-13T12:04:05Z</time>
      </trkpt>
      <trkpt lat="40.556279000" lon="-4.031559000">
        <ele>853.6</ele>
        <time>2020-11-13T12:04:08Z</time>
      </trkpt>
      <trkpt lat="40.556243000" lon="-4.031710000">
        <ele>853.8</ele>
        <time>2020-11-13T12:04:11Z</time>
      </trkpt>
      <trkpt lat="40.556215000" lon="-4.031832000">
        <ele>854.1</ele>
        <time>2020-11-13T12:04:14Z</time>
      </trkpt>
      <trkpt lat="40.556204000" lon="-4.031958000">
        <ele>854.5</ele>
        <time>2020-11-13T12:04:18Z</time>
      </trkpt>
      <trkpt lat="40.556179000" lon="-4.032074000">
        <ele>854.8</ele>
        <time>2020-11-13T12:04:22Z</time>
      </trkpt>
      <trkpt lat="40.556166000" lon="-4.032228000">
        <ele>855.3</ele>
        <time>2020-11-13T12:04:26Z</time>
      </trkpt>
      <trkpt lat="40.556147000" lon="-4.032363000">
        <ele>855.8</ele>
        <time>2020-11-13T12:04:30Z</time>
      </trkpt>
      <trkpt lat="40.556129000" lon="-4.032485000">
        <ele>856.3</ele>
        <time>2020-11-13T12:04:33Z</time>
      </trkpt>
      <trkpt lat="40.556112000" lon="-4.032638000">
        <ele>856.8</ele>
        <time>2020-11-13T12:04:37Z</time>
      </trkpt>
      <trkpt lat="40.556093000" lon="-4.032790000">
        <ele>857.4</ele>
        <time>2020-11-13T12:04:41Z</time>
      </trkpt>
      <trkpt lat="40.556079000" lon="-4.032913000">
        <ele>857.8</ele>
        <time>2020-11-13T12:04:44Z</time>
      </trkpt>
      <trkpt lat="40.556068000" lon="-4.033067000">
        <ele>858.3</ele>
        <time>2020-11-13T12:04:48Z</time>
      </trkpt>
      <trkpt lat="40.556067000" lon="-4.033192000">
        <ele>858.8</ele>
        <time>2020-11-13T12:04:51Z</time>
      </trkpt>
      <trkpt lat="40.556064000" lon="-4.033324000">
        <ele>859.3</ele>
        <time>2020-11-13T12:04:54Z</time>
      </trkpt>
      <trkpt lat="40.556063000" lon="-4.033478000">
        <ele>859.6</ele>
        <time>2020-11-13T12:04:58Z</time>
      </trkpt>
      <trkpt lat="40.556052000" lon="-4.033614000">
        <ele>860.1</ele>
        <time>2020-11-13T12:05:01Z</time>
      </trkpt>
      <trkpt lat="40.556042000" lon="-4.033735000">
        <ele>860.5</ele>
        <time>2020-11-13T12:05:04Z</time>
      </trkpt>
      <trkpt lat="40.556030000" lon="-4.033876000">
        <ele>860.9</ele>
        <time>2020-11-13T12:05:08Z</time>
      </trkpt>
      <trkpt lat="40.556015000" lon="-4.033997000">
        <ele>861.3</ele>
        <time>2020-11-13T12:05:11Z</time>
      </trkpt>
      <trkpt lat="40.556001000" lon="-4.034124000">
        <ele>861.6</ele>
        <time>2020-11-13T12:05:14Z</time>
      </trkpt>
      <trkpt lat="40.555975000" lon="-4.034281000">
        <ele>862.0</ele>
        <time>2020-11-13T12:05:18Z</time>
      </trkpt>
      <trkpt lat="40.555943000" lon="-4.034412000">
        <ele>862.4</ele>
        <time>2020-11-13T12:05:21Z</time>
      </trkpt>
      <trkpt lat="40.555920000" lon="-4.034528000">
        <ele>862.7</ele>
        <time>2020-11-13T12:05:24Z</time>
      </trkpt>
      <trkpt lat="40.555895000" lon="-4.034657000">
        <ele>863.0</ele>
        <time>2020-11-13T12:05:27Z</time>
      </trkpt>
      <trkpt lat="40.555882000" lon="-4.034774000">
        <ele>863.3</ele>
        <time>2020-11-13T12:05:30Z</time>
      </trkpt>
      <trkpt lat="40.555870000" lon="-4.034902000">
        <ele>863.5</ele>
        <time>2020-11-13T12:05:35Z</time>
      </trkpt>
      <trkpt lat="40.555842000" lon="-4.035021000">
        <ele>863.8</ele>
        <time>2020-11-13T12:05:38Z</time>
      </trkpt>
      <trkpt lat="40.555808000" lon="-4.035182000">
        <ele>864.0</ele>
        <time>2020-11-13T12:05:41Z</time>
      </trkpt>
      <trkpt lat="40.555769000" lon="-4.035336000">
        <ele>864.3</ele>
        <time>2020-11-13T12:05:44Z</time>
      </trkpt>
      <trkpt lat="40.555729000" lon="-4.035492000">
        <ele>864.5</ele>
        <time>2020-11-13T12:05:47Z</time>
      </trkpt>
      <trkpt lat="40.555692000" lon="-4.035647000">
        <ele>864.8</ele>
        <time>2020-11-13T12:05:50Z</time>
      </trkpt>
      <trkpt lat="40.555658000" lon="-4.035800000">
        <ele>865.1</ele>
        <time>2020-11-13T12:05:53Z</time>
      </trkpt>
      <trkpt lat="40.555620000" lon="-4.035958000">
        <ele>865.4</ele>
        <time>2020-11-13T12:05:56Z</time>
      </trkpt>
      <trkpt lat="40.555582000" lon="-4.036110000">
        <ele>865.6</ele>
        <time>2020-11-13T12:05:59Z</time>
      </trkpt>
      <trkpt lat="40.555566000" lon="-4.036254000">
        <ele>865.9</ele>
        <time>2020-11-13T12:06:02Z</time>
      </trkpt>
      <trkpt lat="40.555570000" lon="-4.036388000">
        <ele>866.2</ele>
        <time>2020-11-13T12:06:05Z</time>
      </trkpt>
      <trkpt lat="40.555567000" lon="-4.036522000">
        <ele>866.5</ele>
        <time>2020-11-13T12:06:08Z</time>
      </trkpt>
      <trkpt lat="40.555575000" lon="-4.036645000">
        <ele>866.6</ele>
        <time>2020-11-13T12:06:11Z</time>
      </trkpt>
      <trkpt lat="40.555592000" lon="-4.036770000">
        <ele>866.8</ele>
        <time>2020-11-13T12:06:14Z</time>
      </trkpt>
      <trkpt lat="40.555608000" lon="-4.036892000">
        <ele>866.9</ele>
        <time>2020-11-13T12:06:18Z</time>
      </trkpt>
      <trkpt lat="40.555625000" lon="-4.037033000">
        <ele>867.0</ele>
        <time>2020-11-13T12:06:23Z</time>
      </trkpt>
      <trkpt lat="40.555582000" lon="-4.037144000">
        <ele>867.0</ele>
        <time>2020-11-13T12:06:27Z</time>
      </trkpt>
      <trkpt lat="40.555500000" lon="-4.037238000">
        <ele>867.1</ele>
        <time>2020-11-13T12:06:33Z</time>
      </trkpt>
      <trkpt lat="40.555585000" lon="-4.037162000">
        <ele>867.2</ele>
        <time>2020-11-13T12:06:42Z</time>
      </trkpt>
      <trkpt lat="40.555681000" lon="-4.037194000">
        <ele>867.3</ele>
        <time>2020-11-13T12:06:45Z</time>
      </trkpt>
      <trkpt lat="40.555785000" lon="-4.037202000">
        <ele>867.4</ele>
        <time>2020-11-13T12:06:48Z</time>
      </trkpt>
      <trkpt lat="40.555889000" lon="-4.037197000">
        <ele>867.5</ele>
        <time>2020-11-13T12:06:51Z</time>
      </trkpt>
      <trkpt lat="40.555990000" lon="-4.037170000">
        <ele>867.7</ele>
        <time>2020-11-13T12:06:54Z</time>
      </trkpt>
      <trkpt lat="40.556090000" lon="-4.037140000">
        <ele>867.8</ele>
        <time>2020-11-13T12:06:57Z</time>
      </trkpt>
      <trkpt lat="40.556183000" lon="-4.037121000">
        <ele>867.9</ele>
        <time>2020-11-13T12:07:00Z</time>
      </trkpt>
      <trkpt lat="40.556282000" lon="-4.037106000">
        <ele>868.0</ele>
        <time>2020-11-13T12:07:03Z</time>
      </trkpt>
      <trkpt lat="40.556390000" lon="-4.037133000">
        <ele>868.1</ele>
        <time>2020-11-13T12:07:06Z</time>
      </trkpt>
      <trkpt lat="40.556467000" lon="-4.037128000">
        <ele>868.3</ele>
        <time>2020-11-13T12:07:08Z</time>
      </trkpt>
      <trkpt lat="40.541693" lon="-4.014607">
        <ele>857.283</ele>
      </trkpt>
      <trkpt lat="40.541326" lon="-4.015862">
        <ele>852.725</ele>
      </trkpt>
      <trkpt lat="40.543048" lon="-4.017043">
        <ele>850.717</ele>
      </trkpt>
      <trkpt lat="40.543837" lon="-4.017828">
        <ele>854.608</ele>
      </trkpt>
      <trkpt lat="40.543927" lon="-4.018341">
        <ele>853.173</ele>
      </trkpt>
      <trkpt lat="40.543727" lon="-4.019829">
        <ele>849.277</ele>
      </trkpt>
      <trkpt lat="40.544008" lon="-4.020645">
        <ele>848.196</ele>
      </trkpt>
      <trkpt lat="40.544746" lon="-4.021109">
        <ele>846.975</ele>
      </trkpt>
      <trkpt lat="40.545093" lon="-4.020883">
        <ele>846.52</ele>
      </trkpt>
      <trkpt lat="40.545761" lon="-4.020841">
        <ele>843.595</ele>
      </trkpt>
      <trkpt lat="40.546846" lon="-4.022332">
        <ele>834.211</ele>
      </trkpt>
      <trkpt lat="40.546882" lon="-4.023045">
        <ele>833.092</ele>
      </trkpt>
      <trkpt lat="40.546552" lon="-4.024177">
        <ele>829.969</ele>
      </trkpt>
      <trkpt lat="40.546621" lon="-4.024542">
        <ele>825.904</ele>
      </trkpt>
      <trkpt lat="40.547278" lon="-4.024832">
        <ele>821.324</ele>
      </trkpt>
      <trkpt lat="40.547999" lon="-4.025427">
        <ele>819.608</ele>
      </trkpt>
      <trkpt lat="40.54976" lon="-4.025384">
        <ele>820.021</ele>
      </trkpt>
      <trkpt lat="40.54996" lon="-4.026015">
        <ele>820.675</ele>
      </trkpt>
      <trkpt lat="40.550671" lon="-4.026256">
        <ele>822.594</ele>
      </trkpt>
      <trkpt lat="40.553117" lon="-4.025411">
        <ele>830.183</ele>
      </trkpt>
      <trkpt lat="40.5534" lon="-4.025422">
        <ele>830.588</ele>
      </trkpt>
      <trkpt lat="40.554119" lon="-4.025768">
        <ele>831.673</ele>
      </trkpt>
      <trkpt lat="40.555045" lon="-4.02661">
        <ele>834.039</ele>
      </trkpt>
      <trkpt lat="40.555605" lon="-4.02669">
        <ele>835.15</ele>
      </trkpt>
      <trkpt lat="40.556546" lon="-4.026181">
        <ele>835.387</ele>
      </trkpt>
      <trkpt lat="40.557602" lon="-4.026441">
        <ele>836.142</ele>
      </trkpt>
      <trkpt lat="40.557105" lon="-4.02793">
        <ele>840.526</ele>
      </trkpt>
      <trkpt lat="40.556561" lon="-4.028871">
        <ele>843.608</ele>
      </trkpt>
      <trkpt lat="40.556451" lon="-4.031132">
        <ele>849.763</ele>
      </trkpt>
      <trkpt lat="40.555968" lon="-4.034783">
        <ele>861.657</ele>
      </trkpt>
      <trkpt lat="40.55567" lon="-4.035877">
        <ele>863.496</ele>
      </trkpt>
      <trkpt lat="40.555707" lon="-4.037202">
        <ele>863.175</ele>
      </trkpt>
      <trkpt lat="40.556491" lon="-4.037036">
        <ele>867.29</ele>
      </trkpt>
      <trkpt lat="40.55738" lon="-4.036556">
        <ele>868.625</ele>
      </trkpt>
      <trkpt lat="40.55944" lon="-4.036148">
        <ele>866.941</ele>
      </trkpt>
      <trkpt lat="40.560447" lon="-4.035217">
        <ele>867.492</ele>
      </trkpt>
      <trkpt lat="40.560989" lon="-4.034474">
        <ele>867.683</ele>
      </trkpt>
      <trkpt lat="40.561264" lon="-4.034327">
        <ele>867.625</ele>
      </trkpt>
      <trkpt lat="40.562248" lon="-4.034826">
        <ele>871.017</ele>
      </trkpt>
      <trkpt lat="40.564473" lon="-4.034547">
        <ele>863.108</ele>
      </trkpt>
      <trkpt lat="40.566291" lon="-4.033726">
        <ele>872.673</ele>
      </trkpt>
      <trkpt lat="40.56753" lon="-4.034123">
        <ele>878.137</ele>
      </trkpt>
      <trkpt lat="40.567717" lon="-4.034058">
        <ele>878.826</ele>
      </trkpt>
      <trkpt lat="40.568076" lon="-4.033678">
        <ele>880.015</ele>
      </trkpt>
      <trkpt lat="40.569265" lon="-4.033007">
        <ele>881.45</ele>
      </trkpt>
      <trkpt lat="40.569938" lon="-4.031553">
        <ele>884.835</ele>
      </trkpt>
      <trkpt lat="40.570765" lon="-4.03327">
        <ele>880.091</ele>
      </trkpt>
      <trkpt lat="40.572664" lon="-4.036097">
        <ele>870.382</ele>
      </trkpt>
      <trkpt lat="40.572762" lon="-4.036928">
        <ele>866.187</ele>
      </trkpt>
      <trkpt lat="40.57319" lon="-4.037728">
        <ele>865.142</ele>
      </trkpt>
      <trkpt lat="40.573295" lon="-4.038903">
        <ele>858.626</ele>
      </trkpt>
      <trkpt lat="40.573894" lon="-4.040544">
        <ele>850.108</ele>
      </trkpt>
      <trkpt lat="40.574229" lon="-4.04203">
        <ele>840.473</ele>
      </trkpt>
      <trkpt lat="40.574797" lon="-4.042955">
        <ele>835.467</ele>
      </trkpt>
      <trkpt lat="40.575074" lon="-4.042926">
        <ele>835.756</ele>
      </trkpt>
      <trkpt lat="40.575361" lon="-4.043288">
        <ele>835.225</ele>
      </trkpt>
      <trkpt lat="40.575913" lon="-4.043347">
        <ele>835.09</ele>
      </trkpt>
      <trkpt lat="40.576182" lon="-4.04299">
        <ele>835.725</ele>
      </trkpt>
      <trkpt lat="40.576144" lon="-4.042392">
        <ele>837.271</ele>
      </trkpt>
      <trkpt lat="40.576274" lon="-4.042191">
        <ele>836.982</ele>
      </trkpt>
      <trkpt lat="40.577085" lon="-4.042985">
        <ele>835.416</ele>
      </trkpt>
      <trkpt lat="40.577584" lon="-4.042786">
        <ele>836.676</ele>
      </trkpt>
      <trkpt lat="40.578055" lon="-4.042945">
        <ele>835.413</ele>
      </trkpt>
      <trkpt lat="40.579096" lon="-4.04218">
        <ele>836.408</ele>
      </trkpt>
      <trkpt lat="40.581721" lon="-4.040885">
        <ele>836.096</ele>
      </trkpt>
      <trkpt lat="40.58294" lon="-4.041681">
        <ele>836.52</ele>
      </trkpt>
      <trkpt lat="40.584056" lon="-4.041676">
        <ele>836.629</ele>
      </trkpt>
      <trkpt lat="40.584498" lon="-4.041821">
        <ele>836.458</ele>
      </trkpt>
      <trkpt lat="40.585249" lon="-4.042239">
        <ele>837.053</ele>
      </trkpt>
      <trkpt lat="40.585516" lon="-4.042545">
        <ele>837.068</ele>
      </trkpt>
      <trkpt lat="40.585738" lon="-4.04306">
        <ele>837.054</ele>
      </trkpt>
      <trkpt lat="40.585732" lon="-4.043484">
        <ele>837.555</ele>
      </trkpt>
      <trkpt lat="40.585486" lon="-4.044342">
        <ele>838.618</ele>
      </trkpt>
      <trkpt lat="40.585302" lon="-4.044192">
        <ele>838.198</ele>
      </trkpt>
      <trkpt lat="40.583384" lon="-4.045259">
        <ele>835.917</ele>
      </trkpt>
      <trkpt lat="40.583355" lon="-4.045844">
        <ele>836.008</ele>
      </trkpt>
      <trkpt lat="40.583714" lon="-4.046654">
        <ele>835.076</ele>
      </trkpt>
      <trkpt lat="40.584243" lon="-4.046804">
        <ele>835.84</ele>
      </trkpt>
      <trkpt lat="40.584594" lon="-4.047083">
        <ele>835.899</ele>
      </trkpt>
      <trkpt lat="40.585225" lon="-4.046946">
        <ele>837.048</ele>
      </trkpt>
      <trkpt lat="40.58638" lon="-4.047681">
        <ele>837.743</ele>
      </trkpt>
      <trkpt lat="40.586769" lon="-4.047716">
        <ele>836.978</ele>
      </trkpt>
      <trkpt lat="40.586991" lon="-4.048035">
        <ele>835.154</ele>
      </trkpt>
      <trkpt lat="40.587339" lon="-4.04748">
        <ele>837.555</ele>
      </trkpt>
      <trkpt lat="40.58793" lon="-4.04796">
        <ele>837.243</ele>
      </trkpt>
      <trkpt lat="40.588407" lon="-4.048768">
        <ele>835.364</ele>
      </trkpt>
      <trkpt lat="40.5885" lon="-4.048634">
        <ele>835.41</ele>
      </trkpt>
      <trkpt lat="40.588814" lon="-4.048693">
        <ele>835.008</ele>
      </trkpt>
      <trkpt lat="40.588456" lon="-4.049277">
        <ele>835.099</ele>
      </trkpt>
      <trkpt lat="40.588443" lon="-4.04998">
        <ele>835.013</ele>
      </trkpt>
      <trkpt lat="40.587665" lon="-4.049487">
        <ele>835.272</ele>
      </trkpt>
      <trkpt lat="40.586688" lon="-4.049411">
        <ele>835.021</ele>
      </trkpt>
      <trkpt lat="40.584235" lon="-4.050404">
        <ele>835.086</ele>
      </trkpt>
      <trkpt lat="40.5836" lon="-4.049824">
        <ele>835.031</ele>
      </trkpt>
      <trkpt lat="40.581029" lon="-4.048735">
        <ele>835.117</ele>
      </trkpt>
      <trkpt lat="40.580169" lon="-4.048215">
        <ele>835.648</ele>
      </trkpt>
      <trkpt lat="40.579733" lon="-4.047765">
        <ele>835.068</ele>
      </trkpt>
      <trkpt lat="40.579448" lon="-4.047732">
        <ele>835.042</ele>
      </trkpt>
      <trkpt lat="40.578401" lon="-4.048408">
        <ele>835.526</ele>
      </trkpt>
      <trkpt lat="40.577924" lon="-4.04825">
        <ele>835.008</ele>
      </trkpt>
      <trkpt lat="40.577144" lon="-4.050286">
        <ele>835.771</ele>
      </trkpt>
      <trkpt lat="40.576618" lon="-4.050795">
        <ele>835.035</ele>
      </trkpt>
      <trkpt lat="40.576243" lon="-4.051732">
        <ele>835.044</ele>
      </trkpt>
      <trkpt lat="40.575724" lon="-4.051643">
        <ele>835.053</ele>
      </trkpt>
      <trkpt lat="40.574885" lon="-4.051909">
        <ele>835.048</ele>
      </trkpt>
      <trkpt lat="40.575388" lon="-4.054392">
        <ele>836.423</ele>
      </trkpt>
      <trkpt lat="40.575319" lon="-4.054698">
        <ele>836.389</ele>
      </trkpt>
      <trkpt lat="40.574976" lon="-4.055087">
        <ele>836.35</ele>
      </trkpt>
      <trkpt lat="40.574644" lon="-4.054996">
        <ele>836.361</ele>
      </trkpt>
      <trkpt lat="40.57385" lon="-4.053462">
        <ele>835.621</ele>
      </trkpt>
      <trkpt lat="40.573454" lon="-4.05322">
        <ele>835.613</ele>
      </trkpt>
      <trkpt lat="40.573198" lon="-4.053327">
        <ele>836.008</ele>
      </trkpt>
      <trkpt lat="40.572904" lon="-4.054057">
        <ele>836.571</ele>
      </trkpt>
      <trkpt lat="40.571939" lon="-4.054567">
        <ele>837.015</ele>
      </trkpt>
      <trkpt lat="40.571401" lon="-4.055253">
        <ele>837.994</ele>
      </trkpt>
      <trkpt lat="40.570877" lon="-4.05473">
        <ele>836.883</ele>
      </trkpt>
      <trkpt lat="40.569428" lon="-4.054634">
        <ele>836.098</ele>
      </trkpt>
      <trkpt lat="40.567505" lon="-4.053783">
        <ele>835.673</ele>
      </trkpt>
      <trkpt lat="40.567163" lon="-4.054084">
        <ele>835.979</ele>
      </trkpt>
      <trkpt lat="40.56647" lon="-4.05521">
        <ele>835.85</ele>
      </trkpt>
      <trkpt lat="40.565973" lon="-4.05535">
        <ele>836.352</ele>
      </trkpt>
      <trkpt lat="40.564881" lon="-4.055135">
        <ele>837.953</ele>
      </trkpt>
      <trkpt lat="40.564864" lon="-4.056412">
        <ele>843.108</ele>
      </trkpt>
      <trkpt lat="40.565329" lon="-4.058236">
        <ele>847.108</ele>
      </trkpt>
      <trkpt lat="40.565321" lon="-4.059427">
        <ele>851.59</ele>
      </trkpt>
      <trkpt lat="40.565541" lon="-4.060435">
        <ele>853.334</ele>
      </trkpt>
      <trkpt lat="40.565565" lon="-4.061422">
        <ele>859.253</ele>
      </trkpt>
      <trkpt lat="40.563275" lon="-4.064437">
        <ele>854.852</ele>
      </trkpt>
      <trkpt lat="40.561963" lon="-4.066443">
        <ele>842.947</ele>
      </trkpt>
      <trkpt lat="40.560618" lon="-4.06728">
        <ele>839.042</ele>
      </trkpt>
      <trkpt lat="40.55977" lon="-4.067634">
        <ele>838.538</ele>
      </trkpt>
      <trkpt lat="40.558719" lon="-4.069512">
        <ele>835.079</ele>
      </trkpt>
      <trkpt lat="40.558817" lon="-4.069616">
        <ele>835.015</ele>
      </trkpt>
      <trkpt lat="40.55943" lon="-4.06934">
        <ele>835.065</ele>
      </trkpt>
      <trkpt lat="40.559613" lon="-4.069051">
        <ele>835.011</ele>
      </trkpt>
      <trkpt lat="40.560257" lon="-4.068906">
        <ele>835.008</ele>
      </trkpt>
      <trkpt lat="40.560353" lon="-4.069946">
        <ele>835.056</ele>
      </trkpt>
      <trkpt lat="40.560742" lon="-4.070904">
        <ele>835.05</ele>
      </trkpt>
      <trkpt lat="40.560732" lon="-4.071966">
        <ele>835.069</ele>
      </trkpt>
      <trkpt lat="40.560867" lon="-4.072422">
        <ele>835.078</ele>
      </trkpt>
      <trkpt lat="40.561415" lon="-4.072629">
        <ele>835.083</ele>
      </trkpt>
      <trkpt lat="40.561637" lon="-4.072961">
        <ele>835.048</ele>
      </trkpt>
      <trkpt lat="40.562055" lon="-4.07316">
        <ele>835.094</ele>
      </trkpt>
      <trkpt lat="40.562409" lon="-4.073007">
        <ele>835.095</ele>
      </trkpt>
      <trkpt lat="40.562623" lon="-4.07313">
        <ele>835.061</ele>
      </trkpt>
      <trkpt lat="40.562745" lon="-4.074005">
        <ele>835.021</ele>
      </trkpt>
      <trkpt lat="40.563729" lon="-4.077076">
        <ele>835.213</ele>
      </trkpt>
      <trkpt lat="40.563626" lon="-4.077526">
        <ele>835.008</ele>
      </trkpt>
      <trkpt lat="40.563837" lon="-4.07813">
        <ele>835.041</ele>
      </trkpt>
      <trkpt lat="40.563703" lon="-4.07847">
        <ele>835.035</ele>
      </trkpt>
      <trkpt lat="40.563346" lon="-4.078843">
        <ele>835.064</ele>
      </trkpt>
      <trkpt lat="40.562868" lon="-4.07707">
        <ele>835.023</ele>
      </trkpt>
      <trkpt lat="40.561396" lon="-4.075904">
        <ele>835.238</ele>
      </trkpt>
      <trkpt lat="40.560722" lon="-4.075">
        <ele>835.063</ele>
      </trkpt>
      <trkpt lat="40.560125" lon="-4.074619">
        <ele>835.029</ele>
      </trkpt>
      <trkpt lat="40.559057" lon="-4.074216">
        <ele>835.06</ele>
      </trkpt>
      <trkpt lat="40.558482" lon="-4.074812">
        <ele>835.025</ele>
      </trkpt>
      <trkpt lat="40.558046" lon="-4.07486">
        <ele>835.026</ele>
      </trkpt>
      <trkpt lat="40.557761" lon="-4.075067">
        <ele>835.008</ele>
      </trkpt>
      <trkpt lat="40.557459" lon="-4.075732">
        <ele>835.508</ele>
      </trkpt>
      <trkpt lat="40.557044" lon="-4.075858">
        <ele>835.047</ele>
      </trkpt>
      <trkpt lat="40.556712" lon="-4.07637">
        <ele>835.281</ele>
      </trkpt>
      <trkpt lat="40.555711" lon="-4.077239">
        <ele>835.03</ele>
      </trkpt>
      <trkpt lat="40.554639" lon="-4.078546">
        <ele>835.089</ele>
      </trkpt>
      <trkpt lat="40.554623" lon="-4.079042">
        <ele>835.824</ele>
      </trkpt>
      <trkpt lat="40.554374" lon="-4.079168">
        <ele>836.089</ele>
      </trkpt>
      <trkpt lat="40.553987" lon="-4.078862">
        <ele>835.055</ele>
      </trkpt>
      <trkpt lat="40.553708" lon="-4.078969">
        <ele>835.126</ele>
      </trkpt>
      <trkpt lat="40.552291" lon="-4.081059">
        <ele>835.096</ele>
      </trkpt>
      <trkpt lat="40.549644" lon="-4.083585">
        <ele>836.031</ele>
      </trkpt>
      <trkpt lat="40.54956" lon="-4.084637">
        <ele>838.024</ele>
      </trkpt>
      <trkpt lat="40.549149" lon="-4.085664">
        <ele>840.008</ele>
      </trkpt>
      <trkpt lat="40.548888" lon="-4.08715">
        <ele>843.714</ele>
      </trkpt>
      <trkpt lat="40.547632" lon="-4.085573">
        <ele>837.048</ele>
      </trkpt>
      <trkpt lat="40.546116" lon="-4.085916">
        <ele>839.017</ele>
      </trkpt>
      <trkpt lat="40.545896" lon="-4.085755">
        <ele>839.026</ele>
      </trkpt>
      <trkpt lat="40.545888" lon="-4.08538">
        <ele>838.931</ele>
      </trkpt>
      <trkpt lat="40.546638" lon="-4.08464">
        <ele>836.156</ele>
      </trkpt>
      <trkpt lat="40.547147" lon="-4.083433">
        <ele>836.952</ele>
      </trkpt>
      <trkpt lat="40.544728" lon="-4.084951">
        <ele>847.413</ele>
      </trkpt>
      <trkpt lat="40.543966" lon="-4.085039">
        <ele>850.474</ele>
      </trkpt>
      <trkpt lat="40.543615" lon="-4.0849">
        <ele>852.756</ele>
      </trkpt>
      <trkpt lat="40.543148" lon="-4.085128">
        <ele>853.521</ele>
      </trkpt>
      <trkpt lat="40.542792" lon="-4.085023">
        <ele>856.708</ele>
      </trkpt>
      <trkpt lat="40.542553" lon="-4.086077">
        <ele>848.082</ele>
      </trkpt>
      <trkpt lat="40.542211" lon="-4.086364">
        <ele>849.176</ele>
      </trkpt>
      <trkpt lat="40.541628" lon="-4.087577">
        <ele>857.365</ele>
      </trkpt>
      <trkpt lat="40.541418" lon="-4.087673">
        <ele>858.894</ele>
      </trkpt>
      <trkpt lat="40.540602" lon="-4.087501">
        <ele>860.889</ele>
      </trkpt>
      <trkpt lat="40.537327" lon="-4.085584">
        <ele>875.124</ele>
      </trkpt>
      <trkpt lat="40.536809" lon="-4.084243">
        <ele>881.28</ele>
      </trkpt>
      <trkpt lat="40.536104" lon="-4.083454">
        <ele>884.621</ele>
      </trkpt>
      <trkpt lat="40.535733" lon="-4.08259">
        <ele>887.465</ele>
      </trkpt>
      <trkpt lat="40.535252" lon="-4.08215">
        <ele>890.068</ele>
      </trkpt>
      <trkpt lat="40.534938" lon="-4.08141">
        <ele>890.014</ele>
      </trkpt>
      <trkpt lat="40.533564" lon="-4.079517">
        <ele>889.408</ele>
      </trkpt>
      <trkpt lat="40.53285" lon="-4.078267">
        <ele>888.781</ele>
      </trkpt>
      <trkpt lat="40.532251" lon="-4.077612">
        <ele>888.085</ele>
      </trkpt>
      <trkpt lat="40.530995" lon="-4.076995">
        <ele>890.074</ele>
      </trkpt>
      <trkpt lat="40.530473" lon="-4.076915">
        <ele>891.633</ele>
      </trkpt>
      <trkpt lat="40.529841" lon="-4.076201">
        <ele>897.248</ele>
      </trkpt>
      <trkpt lat="40.529568" lon="-4.075686">
        <ele>899.053</ele>
      </trkpt>
      <trkpt lat="40.529446" lon="-4.074608">
        <ele>900.419</ele>
      </trkpt>
      <trkpt lat="40.529609" lon="-4.072157">
        <ele>899.87</ele>
      </trkpt>
      <trkpt lat="40.528414" lon="-4.070907">
        <ele>887.641</ele>
      </trkpt>
      <trkpt lat="40.528035" lon="-4.070762">
        <ele>885.681</ele>
      </trkpt>
      <trkpt lat="40.527154" lon="-4.069442">
        <ele>877.209</ele>
      </trkpt>
      <trkpt lat="40.52695" lon="-4.068536">
        <ele>876.008</ele>
      </trkpt>
      <trkpt lat="40.526314" lon="-4.067447">
        <ele>877.349</ele>
      </trkpt>
      <trkpt lat="40.525156" lon="-4.066556">
        <ele>888.193</ele>
      </trkpt>
      <trkpt lat="40.523961" lon="-4.06639">
        <ele>889.312</ele>
      </trkpt>
      <trkpt lat="40.522184" lon="-4.066438">
        <ele>889.371</ele>
      </trkpt>
      <trkpt lat="40.52156" lon="-4.066304">
        <ele>891.826</ele>
      </trkpt>
      <trkpt lat="40.520934" lon="-4.06657">
        <ele>891.281</ele>
      </trkpt>
      <trkpt lat="40.52009" lon="-4.066317">
        <ele>885.417</ele>
      </trkpt>
      <trkpt lat="40.518852" lon="-4.066395">
        <ele>880.988</ele>
      </trkpt>
      <trkpt lat="40.517555" lon="-4.066712">
        <ele>876.294</ele>
      </trkpt>
      <trkpt lat="40.514815" lon="-4.066851">
        <ele>869.457</ele>
      </trkpt>
      <trkpt lat="40.513167" lon="-4.066653">
        <ele>863.422</ele>
      </trkpt>
      <trkpt lat="40.513008" lon="-4.066197">
        <ele>862.808</ele>
      </trkpt>
      <trkpt lat="40.510536" lon="-4.066111">
        <ele>852.974</ele>
      </trkpt>
      <trkpt lat="40.508904" lon="-4.066471">
        <ele>844.5</ele>
        <time>2020-10-28T13:13:49Z</time>
      </trkpt>
      <trkpt lat="40.508628" lon="-4.065236">
        <ele>840.2</ele>
        <time>2020-10-28T13:14:52Z</time>
      </trkpt>
      <trkpt lat="40.508413" lon="-4.065308">
        <ele>839.7</ele>
        <time>2020-10-28T13:14:57Z</time>
      </trkpt>
      <trkpt lat="40.508414" lon="-4.065805">
        <ele>839</ele>
        <time>2020-10-28T13:15:04Z</time>
      </trkpt>
      <trkpt lat="40.508586" lon="-4.066171">
        <ele>837.3</ele>
        <time>2020-10-28T13:15:12Z</time>
      </trkpt>
      <trkpt lat="40.508544" lon="-4.06631">
        <ele>836.5</ele>
        <time>2020-10-28T13:15:16Z</time>
      </trkpt>
      <trkpt lat="40.508117" lon="-4.066351">
        <ele>833.9</ele>
        <time>2020-10-28T13:15:28Z</time>
      </trkpt>
      <trkpt lat="40.505995" lon="-4.067237">
        <ele>824.2</ele>
        <time>2020-10-28T13:16:10Z</time>
      </trkpt>
      <trkpt lat="40.505487" lon="-4.06704">
        <ele>825.3</ele>
        <time>2020-10-28T13:16:21Z</time>
      </trkpt>
      <trkpt lat="40.50504" lon="-4.066728">
        <ele>829.3</ele>
        <time>2020-10-28T13:16:40Z</time>
      </trkpt>
      <trkpt lat="40.504215" lon="-4.065455">
        <ele>839.4</ele>
        <time>2020-10-28T13:17:38Z</time>
      </trkpt>
      <trkpt lat="40.504209" lon="-4.065188">
        <ele>840.2</ele>
        <time>2020-10-28T13:17:44Z</time>
      </trkpt>
      <trkpt lat="40.504413" lon="-4.064713">
        <ele>841.9</ele>
        <time>2020-10-28T13:18:03Z</time>
      </trkpt>
      <trkpt lat="40.504459" lon="-4.064176">
        <ele>844.2</ele>
        <time>2020-10-28T13:18:23Z</time>
      </trkpt>
      <trkpt lat="40.505112" lon="-4.062963">
        <ele>848.5</ele>
        <time>2020-10-28T13:19:08Z</time>
      </trkpt>
      <trkpt lat="40.505102" lon="-4.061719">
        <ele>852.3</ele>
        <time>2020-10-28T13:19:34Z</time>
      </trkpt>
      <trkpt lat="40.505822" lon="-4.060431">
        <ele>858.7</ele>
        <time>2020-10-28T13:20:17Z</time>
      </trkpt>
      <trkpt lat="40.506375" lon="-4.0597">
        <ele>862.3</ele>
        <time>2020-10-28T13:20:43Z</time>
      </trkpt>
      <trkpt lat="40.506805" lon="-4.059421">
        <ele>863.7</ele>
        <time>2020-10-28T13:20:53Z</time>
      </trkpt>
      <trkpt lat="40.507565" lon="-4.058177">
        <ele>858.2</ele>
        <time>2020-10-28T13:21:17Z</time>
      </trkpt>
      <trkpt lat="40.507813" lon="-4.057414">
        <ele>853.5</ele>
        <time>2020-10-28T13:21:28Z</time>
      </trkpt>
      <trkpt lat="40.508095" lon="-4.057017">
        <ele>851</ele>
        <time>2020-10-28T13:21:36Z</time>
      </trkpt>
      <trkpt lat="40.508008" lon="-4.056737">
        <ele>849.6</ele>
        <time>2020-10-28T13:21:43Z</time>
      </trkpt>
      <trkpt lat="40.507614" lon="-4.056473">
        <ele>847.2</ele>
        <time>2020-10-28T13:21:54Z</time>
      </trkpt>
      <trkpt lat="40.506872" lon="-4.056229">
        <ele>843.6</ele>
        <time>2020-10-28T13:22:10Z</time>
      </trkpt>
      <trkpt lat="40.506015" lon="-4.055495">
        <ele>838.9</ele>
        <time>2020-10-28T13:22:25Z</time>
      </trkpt>
      <trkpt lat="40.505961" lon="-4.055337">
        <ele>838.4</ele>
        <time>2020-10-28T13:22:27Z</time>
      </trkpt>
      <trkpt lat="40.505033" lon="-4.054735">
        <ele>833.1</ele>
        <time>2020-10-28T13:22:40Z</time>
      </trkpt>
      <trkpt lat="40.503417" lon="-4.054445">
        <ele>828</ele>
        <time>2020-10-28T13:22:59Z</time>
      </trkpt>
      <trkpt lat="40.502099" lon="-4.053385">
        <ele>824.9</ele>
        <time>2020-10-28T13:23:18Z</time>
      </trkpt>
      <trkpt lat="40.499866" lon="-4.052736">
        <ele>820.9</ele>
        <time>2020-10-28T13:23:51Z</time>
      </trkpt>
      <trkpt lat="40.499038" lon="-4.051953">
        <ele>818.1</ele>
        <time>2020-10-28T13:24:10Z</time>
      </trkpt>
      <trkpt lat="40.498732" lon="-4.051397">
        <ele>816.5</ele>
        <time>2020-10-28T13:24:34Z</time>
      </trkpt>
      <trkpt lat="40.498212" lon="-4.051048">
        <ele>815.6</ele>
        <time>2020-10-28T13:24:46Z</time>
      </trkpt>
      <trkpt lat="40.496762" lon="-4.050818">
        <ele>812.1</ele>
        <time>2020-10-28T13:25:10Z</time>
      </trkpt>
      <trkpt lat="40.496079" lon="-4.050614">
        <ele>809.3</ele>
        <time>2020-10-28T13:25:24Z</time>
      </trkpt>
      <trkpt lat="40.49448" lon="-4.050358">
        <ele>811.6</ele>
        <time>2020-10-28T13:26:07Z</time>
      </trkpt>
      <trkpt lat="40.494014" lon="-4.050111">
        <ele>810.2</ele>
        <time>2020-10-28T13:26:15Z</time>
      </trkpt>
      <trkpt lat="40.492492" lon="-4.049898">
        <ele>807.3</ele>
        <time>2020-10-28T13:26:41Z</time>
      </trkpt>
      <trkpt lat="40.491888" lon="-4.049631">
        <ele>807.9</ele>
        <time>2020-10-28T13:26:56Z</time>
      </trkpt>
      <trkpt lat="40.491601" lon="-4.049895">
        <ele>810.8</ele>
        <time>2020-10-28T13:27:26Z</time>
      </trkpt>
      <trkpt lat="40.491622" lon="-4.050019">
        <ele>811.6</ele>
        <time>2020-10-28T13:27:38Z</time>
      </trkpt>
      <trkpt lat="40.491366" lon="-4.049862">
        <ele>813.8</ele>
        <time>2020-10-28T13:27:59Z</time>
      </trkpt>
      <trkpt lat="40.49064" lon="-4.050372">
        <ele>819</ele>
        <time>2020-10-28T13:28:39Z</time>
      </trkpt>
      <trkpt lat="40.488809" lon="-4.050854">
        <ele>820.3</ele>
        <time>2020-10-28T13:29:35Z</time>
      </trkpt>
      <trkpt lat="40.487519" lon="-4.051785">
        <ele>820.6</ele>
        <time>2020-10-28T13:30:05Z</time>
      </trkpt>
      <trkpt lat="40.487247" lon="-4.052091">
        <ele>820.9</ele>
        <time>2020-10-28T13:30:11Z</time>
      </trkpt>
      <trkpt lat="40.486166" lon="-4.052552">
        <ele>822</ele>
        <time>2020-10-28T13:30:37Z</time>
      </trkpt>
      <trkpt lat="40.485225" lon="-4.052629">
        <ele>818.2</ele>
        <time>2020-10-28T13:30:58Z</time>
      </trkpt>
      <trkpt lat="40.484722" lon="-4.05238">
        <ele>816.7</ele>
        <time>2020-10-28T13:31:06Z</time>
      </trkpt>
      <trkpt lat="40.482963" lon="-4.05217">
        <ele>809.5</ele>
        <time>2020-10-28T13:31:28Z</time>
      </trkpt>
      <trkpt lat="40.480917" lon="-4.052651">
        <ele>805</ele>
        <time>2020-10-28T13:31:55Z</time>
      </trkpt>
      <trkpt lat="40.480495" lon="-4.052577">
        <ele>803.8</ele>
        <time>2020-10-28T13:32:01Z</time>
      </trkpt>
      <trkpt lat="40.480196" lon="-4.052319">
        <ele>802.7</ele>
        <time>2020-10-28T13:32:05Z</time>
      </trkpt>
      <trkpt lat="40.478075" lon="-4.051412">
        <ele>792.8</ele>
        <time>2020-10-28T13:32:35Z</time>
      </trkpt>
      <trkpt lat="40.476954" lon="-4.051001">
        <ele>783.6</ele>
        <time>2020-10-28T13:32:48Z</time>
      </trkpt>
      <trkpt lat="40.476052" lon="-4.05138">
        <ele>776.9</ele>
        <time>2020-10-28T13:32:59Z</time>
      </trkpt>
      <trkpt lat="40.473864" lon="-4.051081">
        <ele>762.5</ele>
        <time>2020-10-28T13:33:22Z</time>
      </trkpt>
      <trkpt lat="40.473599" lon="-4.050903">
        <ele>761.5</ele>
        <time>2020-10-28T13:33:26Z</time>
      </trkpt>
      <trkpt lat="40.473402" lon="-4.050359">
        <ele>760.2</ele>
        <time>2020-10-28T13:33:32Z</time>
      </trkpt>
      <trkpt lat="40.472833" lon="-4.050325">
        <ele>758.6</ele>
        <time>2020-10-28T13:33:40Z</time>
      </trkpt>
      <trkpt lat="40.47236" lon="-4.050023">
        <ele>758.4</ele>
        <time>2020-10-28T13:33:48Z</time>
      </trkpt>
      <trkpt lat="40.471915" lon="-4.04912">
        <ele>755.9</ele>
        <time>2020-10-28T13:34:03Z</time>
      </trkpt>
      <trkpt lat="40.47089" lon="-4.049281">
        <ele>752.4</ele>
        <time>2020-10-28T13:34:19Z</time>
      </trkpt>
      <trkpt lat="40.470832" lon="-4.049657">
        <ele>751.8</ele>
        <time>2020-10-28T13:34:26Z</time>
      </trkpt>
      <trkpt lat="40.470752" lon="-4.049754">
        <ele>751.8</ele>
        <time>2020-10-28T13:34:30Z</time>
      </trkpt>
      <trkpt lat="40.470782" lon="-4.051006">
        <ele>751.5</ele>
        <time>2020-10-28T13:35:05Z</time>
      </trkpt>
      <trkpt lat="40.47071" lon="-4.051539">
        <ele>748</ele>
        <time>2020-10-28T13:35:19Z</time>
      </trkpt>
      <trkpt lat="40.470866" lon="-4.052241">
        <ele>743.5</ele>
        <time>2020-10-28T13:35:33Z</time>
      </trkpt>
      <trkpt lat="40.47072" lon="-4.053581">
        <ele>744.3</ele>
        <time>2020-10-28T13:35:55Z</time>
      </trkpt>
      <trkpt lat="40.470264" lon="-4.055414">
        <ele>745</ele>
        <time>2020-10-28T13:36:53Z</time>
      </trkpt>
      <trkpt lat="40.470506" lon="-4.056002">
        <ele>744</ele>
        <time>2020-10-28T13:37:01Z</time>
      </trkpt>
      <trkpt lat="40.470741" lon="-4.056157">
        <ele>743.3</ele>
        <time>2020-10-28T13:37:06Z</time>
      </trkpt>
      <trkpt lat="40.470789" lon="-4.056443">
        <ele>742.5</ele>
        <time>2020-10-28T13:37:11Z</time>
      </trkpt>
      <trkpt lat="40.470594" lon="-4.056515">
        <ele>741.6</ele>
        <time>2020-10-28T13:37:15Z</time>
      </trkpt>
      <trkpt lat="40.469822" lon="-4.057679">
        <ele>739.3</ele>
        <time>2020-10-28T13:37:43Z</time>
      </trkpt>
      <trkpt lat="40.469227" lon="-4.060816">
        <ele>750.2</ele>
        <time>2020-10-28T13:39:05Z</time>
      </trkpt>
      <trkpt lat="40.467986" lon="-4.063287">
        <ele>755.1</ele>
        <time>2020-10-28T13:40:10Z</time>
      </trkpt>
      <trkpt lat="40.467661" lon="-4.064806">
        <ele>750.4</ele>
        <time>2020-10-28T13:40:28Z</time>
      </trkpt>
      <trkpt lat="40.467435" lon="-4.066801">
        <ele>752.9</ele>
        <time>2020-10-28T13:40:59Z</time>
      </trkpt>
      <trkpt lat="40.467581" lon="-4.067995">
        <ele>756.7</ele>
        <time>2020-10-28T13:41:29Z</time>
      </trkpt>
      <trkpt lat="40.467866" lon="-4.067695">
        <ele>758.7</ele>
        <time>2020-10-28T13:41:43Z</time>
      </trkpt>
      <trkpt lat="40.469689" lon="-4.07196">
        <ele>760.3</ele>
        <time>2020-10-28T13:43:28Z</time>
      </trkpt>
      <trkpt lat="40.469882" lon="-4.072014">
        <ele>761.5</ele>
        <time>2020-10-28T13:43:36Z</time>
      </trkpt>
      <trkpt lat="40.47047" lon="-4.071761">
        <ele>765.2</ele>
        <time>2020-10-28T13:44:06Z</time>
      </trkpt>
      <trkpt lat="40.470573" lon="-4.071966">
        <ele>765.9</ele>
        <time>2020-10-28T13:44:29Z</time>
      </trkpt>
    </trkseg>
  </trk>
</gpx>
